     2              OBSERVATION DATA    GPS                 RINEX VERSION / TYPE
teqc 1997Sep10 19970918 17:51:43UTC                         PGM / RUN BY / DATE
                                                            COMMENT
BIT 2 OF LLI FLAGS DATA COLLECTED UNDER A-S CONDITION       COMMENT
BIT 2 OF LLI FLAGS DATA COLLECTED UNDER A-S CONDITION       COMMENT
Original Marker Name: ECHO ROCK, MOUNT WILSON               COMMENT
Campaign Name: UCLA LA Basin 1990-91                        COMMENT
4-Character Station Name: ECHO                              COMMENT
6-Character Antenna Code: TRMSST                            COMMENT
Vertical Measurement Point: BGP                             COMMENT
Vertical Offset to Rinex Ref. Point: 0.0597                 COMMENT
Radial Measurement Point: NGP                               COMMENT
Radial Offset to Rinex Ref. Point: 0.2334                   COMMENT
Antenna Height from Field Measurement: 0.8580 m             COMMENT
Original XYZ: -2483602.5026 -4660173.0148 3568046.6676      COMMENT
New XYZ position is based on association with SCEC monument COMMENT
E1D0R0T0+0011. Position of that monument is believed to be  COMMENT
valid to within 1 m horizontally; vertical accuracy         COMMENT
should be no worse than 3-times this value.                 COMMENT
                                                            COMMENT
Revised Rinex header created by UCSD GPS archive for        COMMENT
GSAC on 13-Apr-1999 (1999:103) 16:37:52 GMT                 COMMENT
For assistance contact dagnew@ucsd.edu or hjohnson@ucsd.edu COMMENT
                                                            COMMENT
ECHO ROCK LAFC NO 2 1963                                    MARKER NAME
unknown UNIV CALIF LOS ANGELES                              OBSERVER / AGENCY
1051 TRIMBLE 4000 SST NP 4.30 / SP 4.20                     REC # / TYPE / VERS
271 TR 4000SST L1/L2 GEO                                    ANT # / TYPE
 -2483597.0000 -4660167.0000  3568048.0000                  APPROX POSITION XYZ
        0.7659        0.0000        0.0000                  ANTENNA: DELTA H/E/N
     1     1     0                                          WAVELENGTH FACT L1/2
     5    L1    L2    C1    D1    D2                        # / TYPES OF OBSERV
     0                                                      INTERVAL
  1990    11     1     7    40   30.000000                  TIME OF FIRST OBS
  1990    11     1    13    53   15.000000                  TIME OF LAST OBS
     0                                                      # OF SATELLITES
                                                            END OF HEADER
 90 11  1  7 40 30.2080000  0  4G18G 2G19G11
         0.460                    20634524.670          30.094           0.552
                                  23839939.989        2628.492           0.480
                                  22306756.422       -2136.893           0.062
                                  23772130.309        1720.056
 90 11  1  7 41  0.1600000  0  4G18G 2G19G11
      -684.149           0.247    20636899.854          14.787          11.523
    -78636.233           0.013    23827477.145        2621.553        2042.769
     64043.179           0.447    22321441.864       -2140.291       -1667.758
    -51347.719           0.344    23764854.617        1707.831        1330.778
 90 11  1  7 41 15.0080000  0  4G18G 2G19G11
      -852.609                    20638104.771           7.554
   -117540.809      -30315.342    23821314.517        2618.466        2040.362
     95829.371       24768.678    22328729.066       -2141.625       -1668.798
    -76666.058      -19728.030    23761278.996        1702.099        1326.309
 90 11  1  7 41 30.1120000  0  4G18G 2G19G11
      -912.135                    20639357.288          -0.308
   -157067.158      -61114.349    23815055.741        2614.821        2037.526
    128186.189       49981.985    22336151.402       -2143.455       -1670.225
   -102330.118      -39726.668    23757657.282        1695.758        1321.369
 90 11  1  7 41 45.2160000  0  4G18G 2G19G11
      -852.085                    20640627.038          -7.729
   -196537.317      -91871.234    23808804.147        2611.612        2035.018
    160570.231       75216.047    22343572.317       -2144.827       -1671.294
   -127899.132      -59650.486    23754058.869        1689.823        1316.745
 90 11  1  7 42  0.0640000  0  4G18G 2G19G11
      -684.393                    20641898.152         -15.126
   -235291.834     -122069.499    23802668.817        2608.352        2032.482
    192425.888      100038.947    22350872.679       -2146.266       -1672.415
   -152947.727      -79167.996    23750522.457        1683.891        1312.122
 90 11  1  7 42 15.1680000  0  4G18G 2G19G11
      -403.205                    20643209.360         -21.961
   -274668.231     -152752.063    23796433.807        2605.724        2030.432
    224849.869      125304.001    22358302.896       -2147.028       -1673.010
   -178339.812      -98954.783    23746949.138        1678.541        1307.953
 90 11  1  7 42 30.0160000  0  4G18G 2G19G11
       -16.686         520.347    20644519.642         -30.070         -23.431
   -313327.442     -182876.315    23790316.857        2601.746        2027.334
    256745.305      150157.580    22365614.201       -2149.180       -1674.686
   -203212.113     -118335.872    23743455.694        1671.826        1302.722
 90 11  1  7 42 45.1200000  0  4G18G 2G19G11
       487.973         914.095    20645874.198         -36.966         -28.805
   -352605.684     -213482.992    23784098.819        2599.067        2025.245
    289211.684      175455.390    22373044.545       -2149.949       -1675.285
   -228424.286     -137981.434    23739909.613        1666.416        1298.506
 90 11  1  7 43  0.2240000  0  4G18G 2G19G11
      1106.426        1395.274    20647245.464         -45.105         -35.147
   -391834.054     -244050.616    23777889.738        2595.133        2022.187
    321697.657      200769.643    22380482.579       -2152.013       -1676.894
   -253545.051     -157556.344    23736391.570        1659.694        1293.268
 90 11  1  7 43 15.0720000  0  4G18G 2G19G11
      1834.205        1962.921    20648622.200         -52.947         -41.258
   -430339.328     -274054.379    23771798.259        2591.432        2019.296
    353664.808      225678.920    22387805.044       -2153.844       -1678.321
   -278140.057     -176721.212    23732946.612        1653.245        1288.242
 90 11  1  7 43 30.1760000  0  4G18G 2G19G11
      2697.561        2634.846    20650043.505         -60.675         -47.279
   -469448.999     -304529.291    23765612.739        2587.908        2016.551
    386213.592      251041.128    22395250.733       -2155.454       -1679.574
   -303058.827     -196138.059    23729460.598        1646.934        1283.325
 90 11  1  7 43 45.0240000  0  4G18G 2G19G11
      3660.171        3385.597    20651461.960         -69.126         -53.863
   -507842.318     -334446.577    23759543.580        2583.605        2013.198
    418234.875      275993.448    22402582.587       -2157.845       -1681.437
   -327460.574     -215152.154    23726053.355        1639.873        1277.821
 90 11  1  7 44  0.1280000  0  4G18G 2G19G11
      4763.236        4244.824    20652928.739         -77.226         -60.176
   -546838.544     -364833.286    23753381.469        2579.716        2010.166
    450838.891      301398.834    22410038.611       -2159.801       -1682.961
   -352180.189     -234414.804    23722607.167        1633.124        1272.563
 90 11  1  7 44 15.2320000  0  4G18G 2G19G11
      5987.534        5198.853    20654420.456         -84.628         -65.943
   -585776.186     -395173.822    23747226.401        2576.518        2007.674
    483469.635      326827.344    22117719.669       -2161.006       -1683.899
   -376798.705     -253598.176    23719177.736        1627.088        1267.860
 90 11  1  7 44 30.0800000  0  4G18G 2G19G11
      7304.410        6225.223    20655907.868         -92.663         -72.206
   -624001.606     -424960.662    23741191.303        2572.602        2004.623
    515572.200      351841.832    22125062.435       -2162.985       -1685.442
   -400907.211     -272383.967    23715827.997        1620.358        1262.615
 90 11  1  7 44 45.1840000  0  4G18G 2G19G11
      8757.660        7357.039    20657439.998        -100.031         -77.947
   -662837.072     -455221.627    23735056.371        2569.431        2002.151
    548248.710      377303.820    22132543.604       -2164.176       -1686.370
   -425339.434     -291420.935    24012230.834        1614.316        1257.908
 90 11  1  7 45  0.0320000  0  4G18G 2G19G11
     10305.483        8563.372    20658969.786        -107.947         -84.115
   -700955.836     -484924.690    23729037.162        2565.646        1999.203
    580399.406      402356.742    22139891.902       -2166.018       -1687.805
   -449255.905     -310056.989    24008912.379        1607.678        1252.735
 90 11  1  7 45 15.1360000  0  4G18G 2G19G11
     12003.525        9886.918    20660552.463        -116.781         -90.999
   -739671.219     -515092.294    23722926.256        2560.998        1995.582
    613136.269      427866.304    22147380.089       -2168.643       -1689.851
   -473480.099     -328932.826    24005562.015        1600.156        1246.875
 90 11  1  7 45 30.2400000  0  4G18G 2G19G11
     13822.854       11304.750    20662156.314        -124.515         -97.024
   -778327.557     -545214.734    23716828.251        2557.473        1992.833
    645900.318      453396.595    22154871.147       -2170.148       -1691.025
   -497602.335     -347729.504    24002228.404        1593.706        1241.849
 90 11  1  7 45 45.0880000  0  4G18G 2G19G11
     15720.399       12782.749    20663751.555        -131.611        -102.555
   -816283.271     -574790.723    23710842.962        2554.491        1990.510
    678125.785      478506.930    22162241.943       -2171.125       -1691.785
   -521227.942     -366138.376    23998973.113        1587.872        1237.302
 90 11  1  7 46  0.1920000  0  4G18G 2G19G11
     17770.973       14381.058    20665400.004        -139.162        -108.437
   -854834.801     -604830.669    23704763.741        2551.122        1987.886
    710933.967      504071.653    22169740.251       -2172.425       -1692.798
   -545156.641     -384784.863    23995669.400        1581.577        1232.396
 90 11  1  7 46 15.0400000  0  4G18G 2G19G11
     19889.332       16031.325    20667034.291        -146.315        -114.012
   -892693.739     -634330.902    23698790.426        2548.115        1985.543
    743196.272      529211.001    22177110.447       -2173.393       -1693.551
   -568597.608     -403050.742    23992439.977        1575.647        1227.774
 90 11  1  7 46 30.1440000  0  4G18G 2G19G11
     22156.438       17797.882    20668717.924        -153.708        -119.772
   -931154.392     -664300.651    23692721.526        2544.903        1983.040
    776032.771      554797.617    22184609.771       -2174.522       -1694.434
   -592348.310     -421557.563    23989173.451        1569.490        1222.979
 90 11  1  7 46 45.2480000  0  4G18G 2G19G11
     24537.290       19653.681    20670421.506        -162.311        -126.476
   -969564.702     -694230.680    23686665.894        2540.495        1979.606
    808888.609      580400.378    22192115.109       -2176.851       -1696.247
   -616003.004     -439990.231    23985925.259        1562.085        1217.207
 90 11  1  7 47  0.0960000  0  4G18G 2G19G11
     27000.323       21572.362    20672118.855        -169.681        -132.219
  -1007264.420     -723606.965    23680723.025        2537.256        1977.083
    841217.719      605591.497    22199498.896       -2178.022       -1697.159
   -639153.189     -458028.795    23982748.030        1555.903        1212.392
 90 11  1  7 47 15.2000000  0  4G18G 2G19G11
     29631.918       23623.642    20673873.143        -179.100        -139.559
  -1045549.171     -753439.244    23674686.942        2532.038        1973.018
    874136.363      631242.517    22207016.521       -2181.116       -1699.572
   -662593.861     -476293.908    23979542.136        1547.676        1205.979
 90 11  1  7 47 30.0480000  0  4G18G 2G19G11
     32354.547       25744.693    20675624.953        -187.338        -145.977
  -1083111.694     -782708.638    23668771.770        2527.890        1969.784
    906538.682      656491.099    22214413.080       -2183.192       -1701.188
   -685518.147     -494157.375    23976408.070        1540.558        1200.434
 90 11  1  7 47 45.1520000  0  4G18G 2G19G11
     35259.668       28008.271    20677435.488        -197.247        -153.700
  -1121248.960     -812426.453    23662777.613        2522.139        1965.302
    939541.209      682207.152    22221952.119       -2186.812       -1704.009
   -708720.803     -512237.336    23973255.206        1531.806        1193.614
 90 11  1  7 48  0.2560000  0  4G18G 2G19G11
     38268.917       30353.369    20679264.042        -202.583        -157.856
  -1159344.391     -842111.138    23656781.678        2521.016        1964.425
    972553.906      707930.909    22229487.428       -2185.788       -1703.210
   -731834.998     -530248.285    23970110.176        1527.619        1190.352
 90 11  1  7 48 15.1040000  0  4G18G 2G19G11
     41332.167       32740.566    20681078.521        -210.300        -163.870
  -1196752.029     -871259.811    23650895.097        2517.409        1961.617
   1005017.072      733227.464    22236898.267       -2187.261       -1704.359
   -754470.205     -547885.783    23967037.247        1521.002        1185.197
 90 11  1  7 48 30.2080000  0  4G18G 2G19G11
     44569.027       35262.345    20682945.073        -218.431        -170.206
  -1234748.286     -900865.846    23944707.738        2513.464        1958.544
   1038065.998      758979.520    22244438.764       -2189.020       -1705.729
   -777391.464     -565746.807    23963922.361        1513.985        1179.729
 90 11  1  7 48 45.0560000  0  4G18G 2G19G11
     47873.983       37837.458    20684805.606        -226.629        -176.593
  -1272037.302     -929921.855    23938843.135        2509.359        1955.345
   1070584.024      784317.900    22251858.331       -2190.954       -1707.237
   -799817.372     -583221.825    23960891.440        1506.867        1174.181
 90 11  1  7 49  0.1600000  0  4G18G 2G19G11
     51358.659       40552.866    20686723.680        -234.753        -182.924
  -1309908.200     -959431.527    23932888.187        2505.413        1952.271
   1103690.466      810114.960    22259408.150       -2192.750       -1708.637
   -822523.210     -600914.659    23957817.563        1499.816        1168.686
 90 11  1  7 49 15.0080000  0  4G18G 2G19G11
     54897.615       43310.371    20688626.751        -242.541        -188.992
  -1347086.130     -988401.239    23927045.037        2501.724        1949.395
   1136253.882      835489.551    22266838.231       -2194.239       -1709.797
   -844747.763     -618232.397    23954820.937        1493.065        1163.427
 90 11  1  7 49 30.1120000  0  4G18G 2G19G11
     58623.813       46214.047    20690589.523        -251.086        -195.652
  -1384839.938    -1017820.318    23921112.673        2497.353        1945.990
   1169410.012      861325.580    22274400.684       -2196.383       -1711.467
   -867244.010     -635761.786    23951798.410        1485.572        1157.588
 90 11  1  7 49 45.2160000  0  4G18G 2G19G11
     62477.796       49216.980    20692574.404        -259.071        -201.874
  -1422530.567    -1047189.476    23915196.052        2493.524        1943.003
   1202597.945      887185.486    22281969.023       -2197.973       -1712.705
   -889628.539     -653204.626    23948787.151        1478.622        1152.172
 90 11  1  7 50  0.0640000  0  4G18G 2G19G11
     66381.658       52259.297    20694548.797        -266.905        -207.978
  -1459526.662    -1076017.959    23909387.644        2489.809        1940.111
   1235243.731      912624.426    22289410.749       -2199.487       -1713.885
   -911532.983     -670272.587    23945849.303        1471.784        1146.843
 90 11  1  7 50 15.1680000  0  4G18G 2G19G11
     70482.076       55454.224    20696584.362        -275.697        -214.829
  -1497095.662    -1105292.293    23903491.379        2485.177        1936.501
   1268485.203      938526.675    22296994.245       -2201.870       -1715.743
   -933701.204     -687547.072    23942886.850        1463.997        1140.777
 90 11  1  7 50 30.0160000  0  4G18G 2G19G11
     74638.707       58693.093    20698608.139        -284.056        -221.342
  -1533962.515    -1134020.043    23897708.901        2480.891        1933.160
   1301194.708      964014.616    22304451.276       -2203.891       -1717.317
   -955382.999     -704442.063    23939996.373        1456.613        1135.022
 90 11  1  7 50 45.1200000  0  4G18G 2G19G11
     78986.071       62080.980    20700690.536        -291.910        -227.462
  -1571407.891    -1163198.198    23891838.036        2477.210        1930.293
   1334491.400      989960.245    22312042.970       -2205.303       -1718.417
   -977333.517     -721546.244    23937069.709        1449.732        1129.660
 90 11  1  7 51  0.2240000  0  4G18G 2G19G11
     83462.922       65569.498    20702798.521        -299.943        -233.722
  -1608787.833    -1192324.950    23885983.005        2473.364        1927.296
   1367819.632     1015930.117    22319637.084       -2206.885       -1719.651
   -999169.767     -738561.071    23934173.313        1442.669        1124.157
 90 11  1  7 51 15.0720000  0  4G18G 2G19G11
     87979.278       69088.688    20704890.458        -308.005        -240.004
  -1645479.853    -1220916.343    23880232.852        2469.356        1924.175
   1400603.324     1041475.493    22327109.729       -2208.604       -1720.990
  -1020534.523     -755208.975    23931340.627        1435.513        1118.583
 90 11  1  7 51 30.1760000  0  4G18G 2G19G11
     92694.898       72763.206    20707041.443        -316.294        -246.462
  -1682744.678    -1249954.323    23874393.761        2465.232        1920.960
   1433976.125     1067480.160    22334712.091       -2210.401       -1722.390
  -1042160.408     -772060.741    23928478.384        1428.160        1112.848
 90 11  1  7 51 45.0240000  0  4G18G 2G19G11
     97450.037       76468.190    20709179.524        -324.370        -252.755
  -1719320.292    -1278454.325    23868665.633        2461.218        1917.833
   1466808.157     1093063.114    22342194.748       -2212.124       -1723.733
  -1063314.362     -788543.659    23925684.957        1421.002        1107.276
 90 11  1  7 52  0.1280000  0  4G18G 2G19G11
    102412.661       80335.428    20711377.216        -332.626        -259.189
  -1756462.795    -1307396.384    23862854.750        2457.122        1914.643
   1500234.243     1119109.875    22349811.201       -2213.937       -1725.145
  -1084720.377     -805223.687    23922867.164        1413.629        1101.526
 90 11  1  7 52 15.2320000  0  4G18G 2G19G11
    107497.142       84297.680    20713599.343        -341.077        -265.774
  -1793545.799    -1336292.100    23857052.211        2452.813        1911.283
   1533684.682     1145175.318    22357433.649       -2215.874       -1726.654
  -1106017.159     -821818.897    23920069.902        1406.053        1095.625
 90 11  1  7 52 30.0800000  0  4G18G 2G19G11
    112619.781       88289.000    20715808.710        -348.771        -271.770
  -1829937.446    -1364649.664    23851357.626        2449.217        1908.481
   1566597.278     1170820.892    22364927.529       -2217.155       -1727.652
  -1126843.238     -838046.769    23917339.499        1399.237        1090.313
 90 11  1  7 52 45.1840000  0  4G18G 2G19G11
    117952.694       92444.315    20718075.926        -357.435        -278.520
  -1866896.477    -1393449.454    23845579.878        2444.695        1904.957
   1600099.958     1196927.335    22372557.157       -2219.291       -1729.317
  -1147918.818     -854469.656    23914582.126        1391.416        1084.220
 90 11  1  7 53  0.0320000  0  4G18G 2G19G11
    123317.271       96624.796    20720331.669        -365.401        -284.728
  -1903167.365    -1421712.131    23839909.604        2440.807        1901.925
   1633063.104     1222612.526    22380061.291       -2220.848       -1730.531
  -1168526.610     -870527.364    23911896.412        1384.269        1078.649
 90 11  1  7 53 15.1360000  0  4G18G 2G19G11
    128898.233      100973.137    20722648.276        -373.499        -291.039
  -1940002.896    -1450415.525    23834153.096        2436.827        1898.826
   1666618.562     1248759.623    22387700.983       -2222.404       -1731.743
  -1189379.781     -886776.666    23909179.198        1377.030        1073.007
 90 11  1  7 53 30.2400000  0  4G18G 2G19G11
    134600.944      105416.403    20724985.857        -381.474        -297.251
  -1976779.278    -1479072.111    23828410.052        2432.993        1895.838
   1700197.409     1274925.361    22395342.843       -2223.823       -1732.849
  -1210122.838     -902940.733    23906486.368        1369.859        1067.421
 90 11  1  7 53 45.0880000  0  4G18G 2G19G11
    140325.793      109878.721    20427515.285        -389.445        -303.463
  -2012872.972    -1507197.001    23822774.857        2429.103        1892.807
   1733230.872     1300665.967    22402865.599       -2225.375       -1734.059
  -1230406.489     -918745.574    23903858.696        1362.650        1061.806
 90 11  1  7 54  0.1920000  0  4G18G 2G19G11
    146278.360      114516.209    20429901.993        -398.687        -310.666
  -2049523.292    -1535755.941    23817054.218        2423.999        1888.832
   1766863.392     1326872.837    22410519.811       -2228.070       -1736.159
  -1250924.378     -934733.582    23901210.347        1354.206        1055.224
 90 11  1  7 54 15.0400000  0  4G18G 2G19G11
    152260.851      119178.738    20432275.367        -407.230        -317.322
  -2085481.877    -1563775.362    23811446.985        2419.531        1885.350
   1799960.948     1352663.233    22418051.520       -2230.138       -1737.770
  -1270973.331     -950356.495    23898629.985        1346.425        1049.161
 90 11  1  7 54 30.1440000  0  4G18G 2G19G11
    158474.619      124019.657    20434714.824        -415.371        -323.665
  -2121994.960    -1592227.608    23805756.346        2415.521        1882.223
   1833657.918     1378920.185    22425718.366       -2231.715       -1738.999
  -1291253.600     -966159.389    23896022.054        1339.054        1043.418
 90 11  1  7 54 45.2480000  0  4G18G 2G19G11
    164813.935      128959.909    20437177.331        -424.187        -330.536
  -2158443.734    -1620628.805    23800074.702        2410.816        1878.557
   1867382.648     1405198.600    22433396.903       -2233.947       -1740.738
  -1311417.843     -981871.500    23893446.755        1330.961        1037.113
 90 11  1  7 55  0.0960000  0  4G18G 2G19G11
    171174.339      133915.903    20439624.690        -432.160        -336.748
  -2194207.836    -1648497.000    23794506.477        2406.883        1875.494
   1900565.919     1431056.027    22440948.610       -2235.419       -1741.884
  -1331123.946     -997226.446    23890929.766        1323.695        1031.452
 90 11  1  7 55 15.2000000  0  4G18G 2G19G11
    177770.241      139055.805    20442137.633        -441.023        -343.655
  -2230524.322    -1676795.259    23788854.776        2402.152        1871.807
   1934347.952     1457380.042    22448634.618       -2237.679       -1743.645
  -1351053.536    -1012756.356    23888397.701        1315.535        1025.092
 90 11  1  7 55 30.0480000  0  4G18G 2G19G11
    184376.258      144203.092    20444631.100        -448.892        -349.786
  -2266163.925    -1704567.104    23783309.430        2398.346        1868.840
   1967581.720     1483276.551    22456192.133       -2239.038       -1744.705
  -1370534.926    -1027936.630    23885926.338        1308.365        1019.504
 90 11  1  7 55 45.1520000  0  4G18G 2G19G11
    191214.186      149531.155    20447188.296        -457.118        -356.195
  -2302361.938    -1732773.089    23777676.761        2394.245        1865.643
   2001408.455     1509634.424    22463886.712       -2240.679       -1745.983
  -1390243.653    -1043293.759    23883432.796        1300.810        1013.615
 90 11  1  7 56  0.2560000  0  4G18G 2G19G11
    198176.467      154956.244    20449769.784        -465.228        -362.515
  -2338497.695    -1760931.276    23772056.862        2390.249        1862.531
   2035259.113     1536011.898    22471581.129       -2242.147       -1747.127
  -1409838.353    -1058562.668    23880963.372        1293.385        1007.831
 90 11  1  7 56 15.1040000  0  4G18G 2G19G11
    205146.046      160387.245    20452331.120        -473.706        -369.121
  -2373956.144    -1788560.843    23766545.113        2385.796        1859.061
   2068561.959     1561963.815    22179363.245       -2244.103       -1748.651
  -1428984.875    -1073482.269    23878550.021        1285.539        1001.718
 90 11  1  7 56 30.2080000  0  4G18G 2G19G11
    212368.670      166015.286    20454964.236        -482.191        -375.733
  -2409954.651    -1816611.824    23760952.642        2381.438        1855.664
   2102474.579     1588388.625    22187075.049       -2245.941       -1750.085
  -1448339.273    -1088563.640    23876128.384        1277.692         995.602
 90 11  1  7 56 45.0560000  0  4G18G 2G19G11
    219591.393      171643.462    20457574.411        -490.380        -382.115
  -2445280.835    -1844138.213    23755464.837        2377.269        1852.416
   2135837.989     1614386.180    22194665.048       -2247.609       -1751.385
  -1467251.010    -1103300.173    23873765.997        1270.101         989.689
 90 11  1  7 57  0.1600000  0  4G18G 2G19G11
    227067.651      177469.058    20460256.341        -499.275        -389.045
  -2481148.078    -1872087.312    23749899.003        2372.482        1848.687
   2169804.311     1640853.964    22202384.049       -2249.863       -1753.139
  -1486369.503    -1118197.604    23871387.402        1261.827         983.239
 90 11  1  7 57 15.0080000  0  4G18G 2G19G11
    234546.458      183296.706    20462917.598        -507.633        -395.558
  -2516339.523    -1899508.793    23744440.328        2368.152        1845.313
   2203227.322     1666897.433    22209981.512       -2251.667       -1754.545
  -1505044.451    -1132749.172    23869069.866        1254.022         977.158
 90 11  1  7 57 30.1120000  0  4G18G 2G19G11
    242279.213      189322.715    20465647.378        -516.332        -402.336
  -2552072.374    -1927353.267    23738902.016        2363.572        1841.743
   2237251.820     1693410.466    22217717.156       -2253.669       -1756.105
  -1523922.926    -1147460.338    23866738.458        1245.934         970.857
 90 11  1  7 57 45.2160000  0  4G18G 2G19G11
    250141.060      195448.552    20468405.754        -524.523        -408.720
  -2587739.209    -1955145.582    23733373.974        2359.456        1838.537
   2271304.599     1719944.573    22225457.828       -2255.192       -1757.292
  -1542682.964    -1162077.961    23864434.215        1238.290         964.900
 90 11  1  7 58  0.0640000  0  4G18G 2G19G11
    257992.405      201566.633    20471137.521        -532.954        -415.288
  -2622738.814    -1982418.259    23727950.587        2355.023        1835.081
   2304804.230     1746048.529    22233070.466       -2257.092       -1758.771
  -1561009.701    -1176358.795    23862176.974        1230.378         958.735
 90 11  1  7 58 15.1680000  0  4G18G 2G19G11
    266105.092      207888.017    20473942.815        -541.244        -421.749
  -2658277.214    -2010109.986    23722449.268        2350.817        1831.805
   2338907.530     1772622.503    22240816.645       -2258.664       -1759.999
  -1579534.046    -1190793.408    23859913.449        1222.615         952.687
 90 11  1  7 58 30.0160000  0  4G18G 2G19G11
    274203.543      214198.334    20476720.564        -550.076        -428.631
  -2693151.322    -2037284.412    23717050.493        2346.028        1828.076
   2372456.921     1798764.922    22248443.077       -2260.904       -1761.742
  -1597630.138    -1204894.519    23857706.796        1214.306         946.211
 90 11  1  7 58 45.1200000  0  4G18G 2G19G11
    282572.014      220719.805    20479575.234        -558.453        -435.158
  -2728554.619    -2064872.239    23711575.892        2341.729        1824.723
   2406615.703     1825381.985    22256205.443       -2262.565       -1763.038
  -1615914.776    -1219141.273    23855489.123        1206.426         940.072
 90 11  1  7 59  0.2240000  0  4G18G 2G19G11
    291067.710      227339.585    20482452.924        -566.839        -441.693
  -2763893.909    -2092409.260    23706111.972        2337.426        1821.370
   2440800.099     1852019.015    22263971.124       -2264.252       -1764.352
  -1634079.195    -1233295.909    23853296.564        1198.542         933.928
 90 11  1  7 59 15.0720000  0  4G18G 2G19G11
    299551.165      233949.410    20485306.576        -575.535        -448.469
  -2798566.192    -2119424.125    24000545.233        2332.720        1817.703
   2474437.360     1878229.179    22271611.932       -2266.340       -1765.979
  -1651812.436    -1247113.932    23851159.010        1190.294         927.501
 90 11  1  7 59 30.1760000  0  4G18G 2G19G11
    308304.898      240770.788    20488234.992        -583.896        -454.983
  -2833769.720    -2146855.374    23995108.799        2328.423        1814.355
   2508678.619     1904910.922    22279388.551       -2267.986       -1767.262
  -1669733.005    -1261077.904    23849010.844        1182.391         921.342
 90 11  1  7 59 45.0240000  0  4G18G 2G19G11
    317036.585      247574.854    20491136.706        -591.626        -461.007
  -2868308.946    -2173769.667    23989776.448        2324.699        1811.453
   2542365.742     1931161.241    22287040.607       -2269.104       -1768.132
  -1687230.637    -1274712.463    23846920.394        1175.094         915.657
 90 11  1  8  0  0.1280000  0  4G18G 2G19G11
    326039.293      254590.267    20494111.174        -600.130        -467.634
  -2903385.470    -2201101.971    23984362.121        2320.307        1808.030
   2576654.761     1957879.322    22294823.306       -2270.854       -1769.496
  -1704915.723    -1288493.061    23844814.990        1167.043         909.382
 90 11  1  8  0 15.2320000  0  4G18G 2G19G11
    335167.031      261702.496    20497108.359        -608.656        -474.277
  -2938397.982    -2228384.850    23978960.133        2315.821        1804.537
   2610965.955     1984615.876    22302612.418       -2272.662       -1770.905
  -1722481.626    -1302180.825    23842732.169        1158.883         903.027
 90 11  1  8  0 30.0800000  0  4G18G 2G19G11
    344264.991      268791.877    20500078.216        -616.641        -480.499
  -2972753.486    -2255154.745    23973661.142        2311.832        1801.427
   2644721.325     2010918.319    22310276.556       -2273.993       -1771.941
  -1739631.994    -1315544.881    23840713.222        1151.312         897.125
 90 11  1  8  0 45.1840000  0  4G18G 2G19G11
    353645.433      276100.903    20503123.415        -625.609        -487.487
  -3007635.357    -2282335.212    23968284.521        2306.920        1797.599
   2679083.301     2037693.919    22318073.403       -2276.204       -1773.666
  -1756957.727    -1329045.233    23838674.402        1142.729         890.438
 90 11  1  8  1  0.0320000  0  4G18G 2G19G11
    362986.889      283380.709    20506139.380        -632.783        -493.077
  -3041864.099    -2309007.698    23963006.671        2303.734        1795.116
   2712884.667     2064032.522    22325744.811       -2276.754       -1774.093
  -1773874.118    -1342227.392    23836692.399        1135.903         885.118
 90 11  1  8  1 15.1360000  0  4G18G 2G19G11
    372619.220      290885.594    20509231.159        -642.384        -500.559
  -3076615.735    -2336086.910    23957653.126        2298.168        1790.780
   2747296.017     2090846.277    22333552.977       -2279.591       -1776.304
  -1790959.502    -1355540.647    23834701.089        1126.647         877.904
 90 11  1  8  1 30.2400000  0  4G18G 2G19G11
    382382.291      298493.200    20512348.617        -650.702        -507.041
  -3111297.381    -2363111.245    23952315.850        2293.893        1787.449
   2781736.069     2117683.267    22341370.129       -2281.149       -1777.518
  -1807918.389    -1368755.143    23832733.159        1118.676         871.696
 90 11  1  8  1 45.0880000  0  4G18G 2G19G11
    392105.305      306069.427    20515438.472        -659.005        -513.511
  -3145324.891    -2389626.541    23947082.298        2289.564        1784.075
   2815618.527     2144084.676    22349054.422       -2282.764       -1778.776
  -1824469.634    -1381652.098    23830826.375        1110.703         865.481
 90 11  1  8  2  0.1920000  0  4G18G 2G19G11
    402124.294      313877.210    20518605.617        -667.958        -520.487
  -3179871.301    -2416545.797    23941768.222        2284.646        1780.243
   2850112.765     2170962.915    22356881.168       -2284.955       -1780.484
  -1841182.477    -1394674.901    23828905.619        1102.050         858.739
 90 11  1  8  2 15.0400000  0  4G18G 2G19G11
    412103.319      321652.626    20521745.616        -676.101        -526.832
  -3213763.024    -2442954.515    23936556.507        2280.478        1776.995
   2884050.808     2197408.294    22364576.164       -2286.406       -1781.614
  -1857487.056    -1407379.961    23827040.183        1094.201         852.625
 90 11  1  8  2 30.1440000  0  4G18G 2G19G11
    422374.908      329656.892    20524959.031        -683.865        -532.882
  -3248176.708    -2469770.768    23931270.283        2276.771        1774.104
   2918593.811     2224324.982    22372409.779       -2287.365       -1782.362
  -1873955.162    -1420212.221    23825167.137        1086.738         846.806
 90 11  1  8  2 45.2480000  0  4G18G 2G19G11
    432774.553      337759.839    20528197.130        -692.647        -539.725
  -3282525.171    -2496536.270    23925993.123        2272.018        1770.401
   2953160.478     2251259.818    22380248.537       -2289.354       -1783.909
  -1890301.743    -1432949.927    23823318.091        1078.217         840.168
 90 11  1  8  3  0.0960000  0  4G18G 2G19G11
    443120.704      345822.365    20531405.970        -701.528        -546.645
  -3316227.814    -2522797.107    23920815.815        2267.068        1766.546
   2987165.408     2277757.509    22387957.386       -2291.568       -1785.638
  -1906250.782    -1445377.525    23821520.465        1069.581         833.439
 90 11  1  8  3 15.2000000  0  4G18G 2G19G11
    453781.495      354128.960    20534694.437        -710.342        -553.512
  -3350435.066    -2549452.709    23915568.869        2262.280        1762.814
   3021790.167     2304737.810    22395806.325       -2293.560       -1787.188
  -1922342.955    -1457917.087    23819720.397        1060.989         826.746
 90 11  1  8  3 30.0480000  0  4G18G 2G19G11
    464391.751      362396.995    20537955.970        -718.975        -560.239
  -3383991.291    -2575599.973    23910424.467        2257.589        1759.161
   3055858.499     2331284.775    22403529.509       -2295.494       -1788.696
  -1938034.575    -1470144.338    23817971.562        1052.581         820.191
 90 11  1  8  3 45.1520000  0  4G18G 2G19G11
    475312.662      370906.653    20541295.858        -727.733        -567.065
  -3418057.910    -2602146.382    23905203.363        2252.837        1755.458
   3090540.224     2358309.110    22411393.790       -2297.424       -1790.202
  -1953872.830    -1482485.623    23816220.290        1044.028         813.529
 90 11  1  8  4  0.2560000  0  4G18G 2G19G11
    486367.143      379520.533    20544661.468        -735.739        -573.303
  -3452052.842    -2628635.279    23899998.635        2248.849        1752.348
   3125252.174     2385356.848    22419259.991       -2298.612       -1791.125
  -1969580.499    -1494725.366    23814495.588        1036.209         807.435
 90 11  1  8  4 15.1040000  0  4G18G 2G19G11
    497354.027      388081.533    20547992.440        -744.043        -579.774
  -3485409.817    -2654627.997    23894890.197        2244.502        1748.963
   3159394.641     2411961.729    22426996.493       -2300.212       -1792.372
  -1984906.058    -1506666.320    24112612.113        1028.094         801.111
 90 11  1  8  4 30.2080000  0  4G18G 2G19G11
    508653.824      396886.754    20551405.941        -752.374        -586.266
  -3519278.755    -2681019.825    23889706.065        2240.152        1745.573
   3194147.285     2439041.921    22434869.367       -2301.732       -1793.558
  -2000373.010    -1518718.989    24110929.673        1019.898         794.725
 90 11  1  8  4 45.0560000  0  4G18G 2G19G11
    519892.376      405644.220    20554782.176        -761.219        -593.158
  -3552502.398    -2706907.927    23884628.189        2235.246        1741.750
   3228341.076     2465685.779    22442616.961       -2303.816       -1795.180
  -2015450.417    -1530467.409    24109297.675        1011.220         787.963
 90 11  1  8  5  0.1600000  0  4G18G 2G19G11
    531455.833      414654.810    20558246.091        -769.852        -599.883
  -3586227.624    -2733187.078    23879468.965        2230.577        1738.110
   3263152.083     2492811.121    22450503.914       -2305.615       -1796.581
  -2030659.331    -1542318.411    24107671.319        1002.716         781.336
 90 11  1  8  5 15.0080000  0  4G18G 2G19G11
    542950.298      423611.386    20561673.363        -778.067        -606.287
  -3619313.332    -2758968.163    23874411.879        2226.290        1734.771
   3297399.481     2519497.328    22458259.151       -2307.105       -1797.743
  -2045484.520    -1553870.715    24106087.385         994.600         775.012
 90 11  1  8  5 30.1120000  0  4G18G 2G19G11
    554770.519      432821.817    20565185.015        -786.693        -613.007
  -3652901.085    -2785140.431    23869284.067        2221.680        1731.179
   3332262.511     2546663.248    22466162.563       -2308.882       -1799.128
  -2060439.403    -1565524.106    24104505.804         986.083         768.377
 90 11  1  8  5 45.2160000  0  4G18G 2G19G11
    566721.902      442134.818    20568722.209        -795.698        -620.024
  -3686417.221    -2811257.069    23864170.949        2216.616        1727.232
   3367153.646     2573851.373    22474063.833       -2311.021       -1800.793
  -2075264.126    -1577075.778    24102943.268         977.165         761.425
 90 11  1  8  6  0.0640000  0  4G18G 2G19G11
    578602.360      451391.943    20572226.504        -804.404        -626.809
  -3719293.314    -2836875.000    23859154.878        2211.841        1723.511
   3401483.236     2600601.791    22481835.844       -2312.977       -1802.319
  -2089707.592    -1588330.478    24101440.596         968.543         754.707
 90 11  1  8  6 15.1680000  0  4G18G 2G19G11
    590816.620      460909.431    20575814.246        -812.775        -633.331
  -3752667.135    -2862880.015    23854070.876        2207.481        1720.116
   3436431.019     2627833.991    22489747.956       -2314.488       -1803.497
  -2104273.147    -1599679.821    24099933.051         960.225         748.226
 90 11  1  8  6 30.0160000  0  4G18G 2G19G11
    602942.436      470358.443    20579360.430        -820.878        -639.646
  -3785413.553    -2888397.657    23849077.950        2203.216        1716.790
   3470804.965     2654618.471    22497536.982       -2315.885       -1804.583
  -2118472.533    -1610744.191    24098466.977         952.139         741.924
 90 11  1  8  6 45.1200000  0  4G18G 2G19G11
    615411.440      480074.137    20582998.062        -829.571        -646.418
  -3818650.752    -2914296.774    23844016.972        2198.523        1713.134
   3505801.784     2681888.814    22505456.040       -2317.670       -1805.975
  -2132783.507    -1621896.018    24097010.069         943.489         735.187
 90 11  1  8  7  0.2240000  0  4G18G 2G19G11
    628009.524      489890.932    20586656.998        -838.658        -653.500
  -3851819.023    -2940141.890    23838967.910        2193.405        1709.146
   3540824.587     2709179.120    22513384.643       -2319.870       -1807.690
  -2146965.377    -1632947.002    24095575.004         934.431         728.125
 90 11  1  8  7 15.0720000  0  4G18G 2G19G11
    640522.308      499641.806    20590282.224        -847.276        -660.215
  -3884354.308    -2965494.021    23834017.384        2188.654        1705.444
   3575280.463     2736028.403    22521178.601       -2321.738       -1809.147
  -2160778.698    -1643710.504    24094188.044         925.766         721.375
 90 11  1  8  7 30.1760000  0  4G18G 2G19G11
    653380.652      509661.011    20593992.227        -855.351        -666.507
  -3917380.645    -2991228.397    23828996.293        2184.530        1702.230
   3610357.451     2763360.526    22529124.112       -2322.926       -1810.072
  -2174700.910    -1654558.777    24092804.477         917.714         715.102
 90 11  1  8  7 45.0240000  0  4G18G 2G19G11
    666137.668      519601.556    20597660.213        -862.868        -672.364
  -3949788.469    -3016481.738    23824067.964        2180.892        1699.396
   3644852.823     2790241.556    22237133.937       -2323.688       -1810.666
  -2188270.362    -1665132.612    24091460.144         910.167         709.220
 90 11  1  8  8  0.1280000  0  4G18G 2G19G11
    679241.646      529812.064    20601414.778        -871.879        -679.387
  -3982687.048    -3042117.385    23819070.259        2175.834        1695.456
   3679968.400     2817604.425    22245079.257       -2325.827       -1812.333
  -2201946.803    -1675789.182    24090121.087         901.119         702.170
 90 11  1  8  8 15.2320000  0  4G18G 2G19G11
    692479.402      540127.015    20605195.304        -881.017        -686.506
  -4015511.546    -3067694.581    23814087.085        2170.640        1691.407
   3715114.732     2844991.110    22253026.196       -2328.057       -1814.070
  -2215487.785    -1686340.515    24088801.699         891.931         695.011
 90 11  1  8  8 30.0800000  0  4G18G 2G19G11
    705621.877      550368.204    20608938.190        -888.965        -692.699
  -4047708.146    -3092782.950    23809200.721        2166.557        1688.227
   3749692.797     2871934.884    22260849.923       -2329.221       -1814.979
  -2228668.539    -1696611.892    24087539.488         883.904         688.755
 90 11  1  8  8 45.1840000  0  4G18G 2G19G11
    719114.985      560882.040    20612766.030        -897.769        -699.559
  -4080396.649    -3118253.899    23804240.926        2161.683        1684.428
   3784887.132     2899358.887    22268804.734       -2331.120       -1816.457
  -2241953.073    -1706963.143    24086270.222         875.025         681.837
 90 11  1  8  9  0.0320000  0  4G18G 2G19G11
    732510.666      571320.940    20616556.516        -906.446        -706.321
  -4112455.636    -3143234.965    23799382.500        2156.869        1680.675
   3819515.182     2926342.367    22276638.317       -2333.004       -1817.924
  -2254878.474    -1717034.803    24085050.391         866.244         674.995
 90 11  1  8  9 15.1370000  0  4G18G 2G19G11
    746267.911      582040.317    20320643.660        -914.968        -712.961
  -4144998.955    -3168594.173    23494658.728        2152.240        1677.068
   3854768.153     2953812.045    21984817.885       -2334.649       -1819.207
  -2267897.125    -1727179.383    23784046.202         857.588         668.249
 90 11  1  8  9 30.2410000  0  4G18G 2G19G11
    760152.106      592859.902    20324547.444        -923.601        -719.689
  -4177470.882    -3193896.559    23489741.474        2147.494        1673.371
   3890044.080     2981300.001    21992790.936       -2336.391       -1820.564
  -2280784.048    -1737220.682    23782853.770         848.803         661.405
 90 11  1  8  9 45.0890000  0  4G18G 2G19G11
    773927.202      603593.494    20328410.682        -931.698        -725.998
  -4209324.572    -3218717.648    23484922.354        2143.264        1670.076
   3924746.088     3008339.704    22000633.527       -2337.657       -1821.549
  -2293324.629    -1746992.759    23781707.824         840.596         655.009
 90 11  1  8 10  0.1930000  0  4G18G 2G19G11
    788061.867      614606.724    20332359.652        -939.744        -732.268
  -4241663.768    -3243917.820    23480027.863        2139.153        1666.873
   3960063.164     3035859.950    22008614.110       -2338.806       -1822.444
  -2305957.718    -1756836.900    23780564.837         832.380         648.608
 90 11  1  8 10 15.0410000  0  4G18G 2G19G11
    802077.539      625528.841    20336264.271        -948.333        -738.960
  -4273391.831    -3268640.327    23475225.353        2134.385        1663.156
   3994802.449     3062929.297    22016465.557       -2340.583       -1823.830
  -2318252.603    -1766417.332    23779466.954         823.625         641.784
 90 11  1  8 10 30.1450000  0  4G18G 2G19G11
    816468.718      636742.499    20340264.092        -956.909        -745.644
  -4305591.281    -3293731.232    23470359.353        2129.688        1659.498
   4030169.869     3090488.723    22024452.791       -2342.274       -1825.149
  -2330623.606    -1776057.299    23778366.503         814.844         634.942
 90 11  1  8 10 45.2490000  0  4G18G 2G19G11
    830992.148      648059.062    20344286.684        -965.920        -752.665
  -4337717.746    -3318764.594    23465504.713        2124.578        1655.516
   4065566.315     3118069.812    22032449.312       -2344.396       -1826.800
  -2342859.161    -1785591.518    23777301.194         805.637         627.770
 90 11  1  8 11  0.0970000  0  4G18G 2G19G11
    845396.135      659282.543    20348267.840        -974.336        -759.222
  -4369232.148    -3343319.678    23760540.541        2119.981        1651.933
   4100386.028     3145202.261    22040313.644       -2345.967       -1828.028
  -2354758.405    -1794863.607    23776274.872         797.017         621.053
 90 11  1  8 11 15.2010000  0  4G18G 2G19G11
    860179.998      670803.191    20352340.994        -983.347        -766.244
  -4401213.880    -3368240.316    23755715.604        2114.847        1647.933
   4135836.223     3172825.364    22048320.092       -2348.088       -1829.679
  -2366726.702    -1804189.256    23775256.785         787.749         613.830
 90 11  1  8 11 30.0490000  0  4G18G 2G19G11
    874842.503      682228.436    20356370.599        -991.511        -772.605
  -4432581.717    -3392682.898    23750986.831        2110.486        1644.534
   4170711.072     3200001.134    22056197.734       -2349.458       -1830.746
  -2378359.997    -1813254.333    23774285.512         779.337         607.275
 90 11  1  8 11 45.1530000  0  4G18G 2G19G11
    889885.706      693950.494    20360494.432       -1000.587        -779.678
  -4464420.121    -3417491.920    23746189.118        2105.283        1640.480
   4206213.144     3227664.653    22064209.882       -2351.599       -1832.415
  -2390061.993    -1822372.406    23773317.408         769.990         599.991
 90 11  1  8 12  0.2570000  0  4G18G 2G19G11
    905067.372      705780.478    20364645.843       -1009.726        -786.800
  -4496177.962    -3442238.571    23741407.308        2099.999        1636.362
   4241748.609     3255354.189    22072239.506       -2353.823       -1834.147
  -2401621.034    -1831379.465    23772383.186         760.570         592.652
 90 11  1  8 12 15.1050000  0  4G18G 2G19G11
    920122.254      717511.428    20368751.917       -1018.392        -793.551
  -4527325.027    -3466508.923    23736722.745        2095.160        1632.592
   4276709.270     3282596.554    22080132.756       -2355.655       -1835.573
  -2412849.816    -1840129.026    23771483.050         751.646         585.698
 90 11  1  8 12 30.2090000  0  4G18G 2G19G11
    935568.126      729546.998    20372955.081       -1026.715        -800.038
  -4558935.066    -3491140.306    23731969.835        2090.667        1629.090
   4312300.316     3310330.293    22088168.338       -2357.038       -1836.652
  -2424135.479    -1848923.606    23770599.303         743.019         578.974
 90 11  1  8 12 45.0570000  0  4G18G 2G19G11
    950885.105      741482.118    20377109.955       -1035.944        -807.229
  -4589933.772    -3515294.957    23727312.467        2085.243        1624.865
   4347319.975     3337617.513    22096072.142       -2359.446       -1838.529
  -2435093.757    -1857461.927    23769759.663         733.472         571.537
 90 11  1  8 13  0.1610000  0  4G18G 2G19G11
    966596.727      753725.042    20381363.475       -1044.608        -813.980
  -4621393.167    -3539809.079    23722590.832        2080.438        1621.119
   4382969.187     3365396.281    22104125.392       -2361.180       -1839.881
  -2446104.556    -1866041.741    23768925.313         724.475         564.524
 90 11  1  8 13 15.0090000  0  4G18G 2G19G11
    982168.516      765859.409    20385570.958       -1053.636        -821.014
  -4652249.669    -3563853.034    23717960.443        2075.165        1617.010
   4418038.543     3392723.290    22112037.062       -2363.388       -1841.599
  -2456797.344    -1874373.981    23768135.789         715.105         557.225
 90 11  1  8 13 30.1130000  0  4G18G 2G19G11
    998140.170      778304.272    20389873.530       -1061.569        -827.197
  -4683565.016    -3588254.433    23713265.345        2071.076        1613.825
   4453740.530     3420542.917    22120095.755       -2364.401       -1842.390
  -2467538.302    -1882743.670    23767352.267         706.801         550.753
 90 11  1  8 13 45.2170000  0  4G18G 2G19G11
   1014247.218      790854.823    20394203.842       -1070.704        -834.314
  -4714802.396    -3612595.564    23708585.598        2065.763        1609.686
   4489472.377     3448385.981    22128158.561       -2366.582       -1844.089
  -2478138.673    -1891003.436    23766606.068         697.288         543.340
 90 11  1  8 14  0.0650000  0  4G18G 2G19G11
   1030203.149      803288.241    20398482.266       -1078.618        -840.480
  -4745444.254    -3636472.722    23703996.045        2061.596        1606.437
   4524619.021     3475772.694    22136093.651       -2367.686       -1844.949
  -2488430.423    -1899023.497    23765883.593         689.003         536.885
 90 11  1  8 14 15.1690000  0  4G18G 2G19G11
   1046559.325      816033.508    20402857.650       -1087.132        -847.116
  -4776546.104    -3660707.778    23699342.196        2056.904        1602.782
   4560394.384     3503649.392    22144158.687       -2369.287       -1846.197
  -2498769.052    -1907079.145    23765182.814         680.075         529.929
 90 11  1  8 14 30.0170000  0  4G18G 2G19G11
   1062771.519      828666.877    20407185.204       -1096.379        -854.322
  -4807044.692    -3684472.314    23694781.138        2051.399        1598.491
   4595592.800     3531077.264    22152102.966       -2371.694       -1848.074
  -2508793.141    -1914890.520    23764515.516         670.461         522.435
 90 11  1  8 14 45.1210000  0  4G18G 2G19G11
   1079393.654      841618.873    20411614.716       -1104.855        -860.926
  -4837995.224    -3708589.781    23690156.808        2046.752        1594.871
   4631425.505     3558998.071    22160185.610       -2373.208       -1849.253
  -2518853.191    -1922729.735    23763869.262         661.528         515.476
 90 11  1  8 15  0.2250000  0  4G18G 2G19G11
   1096150.868      854676.322    20416066.171       -1113.685        -867.806
  -4868868.731    -3732646.949    23685544.207        2041.702        1590.937
   4667287.388     3586942.265    22168275.120       -2375.096       -1850.723
  -2528772.653    -1930458.508    23763248.017         652.231         508.234
 90 11  1  8 15 15.0730000  0  4G18G 2G19G11
   1112754.201      867613.587    20420469.293       -1122.281        -874.504
  -4899143.945    -3756238.497    23681028.102        2036.832        1587.142
   4702568.678     3614434.592    22176229.856       -2376.862       -1852.100
  -2538386.087    -1937950.195    23762655.122         643.188         501.185
 90 11  1  8 15 30.1770000  0  4G18G 2G19G11
   1129769.226      880872.242    20424972.147       -1130.857        -881.187
  -4929872.816    -3780182.992    23676445.070        2032.063        1583.424
   4738481.577     3642418.496    22184334.266       -2378.527       -1853.398
  -2548033.071    -1945466.672    23762091.435         634.128         494.123
 90 11  1  8 15 45.0250000  0  4G18G 2G19G11
   1146623.249      894004.936    20429423.443       -1139.614        -888.011
  -4960009.834    -3803666.270    23671953.889        2027.027        1579.501
   4773809.555     3669946.549    22192299.012       -2380.418       -1854.872
  -2557382.785    -1952752.081    23761549.708         624.890         486.925
 90 11  1  8 16  0.1290000  0  4G18G 2G19G11
   1163909.241      907474.628    20433977.937       -1148.933        -895.272
  -4990581.444    -3827487.887    23667402.199        2021.477        1575.175
   4809783.927     3697979.194    22200409.073       -2382.813       -1856.735
  -2566743.254    -1960046.504    23761036.977         615.054         479.262
 90 11  1  8 16 15.2330000  0  4G18G 2G19G11
   1181330.491      921049.409    20438560.379       -1157.932        -902.284
  -5021073.752    -3851249.205    23662866.188        2016.230        1571.088
   4845789.464     3726035.245    22208527.479       -2384.889       -1858.355
  -2575962.085    -1967229.852    23760548.505         605.542         471.852
 90 11  1  8 16 30.0810000  0  4G18G 2G19G11
   1198584.638      934494.628    20443090.482       -1166.079        -908.633
  -5050977.451    -3874550.073    23658421.536        2011.779        1567.619
   4881211.725     3753636.226    22216514.410       -2386.193       -1859.371
  -2584887.224    -1974184.839    23760098.283         596.862         465.087
 90 11  1  8 16 45.1850000  0  4G18G 2G19G11
   1216264.561      948271.564    20447722.812       -1175.143        -915.695
  -5081323.716    -3898196.533    23653914.646        2006.492        1563.500
   4917268.128     3781732.417    22224641.210       -2388.318       -1861.026
  -2593830.229    -1981153.460    23759662.447         587.277         457.618
 90 11  1  8 17  0.0330000  0  4G18G 2G19G11
   1233782.589      961921.569    20452300.776       -1184.173        -922.731
  -5111074.556    -3921379.121    23649499.957        2001.151        1559.339
   4952748.069     3809379.331    22232640.219       -2390.527       -1862.747
  -2602477.557    -1987890.785    23759263.406         577.684         450.142
 90 11  1  8 17 15.1370000  0  4G18G 2G19G11
   1251726.622      975903.744    20456986.665       -1192.199        -928.986
  -5141269.460    -3944907.994    23645021.323        1996.887        1556.015
   4988860.466     3837518.532    22240782.618       -2391.575       -1863.564
  -2611139.962    -1994641.082    23758883.856         569.063         443.425
 90 11  1  8 17 30.2410000  0  4G18G 2G19G11
   1269805.820      989991.437    20461691.585       -1201.784        -936.456
  -5171386.454    -3968376.089    23640557.767        1991.036        1551.458
   5025002.251     3865681.281    22248927.817       -2394.232       -1865.635
  -2619658.690    -2001279.216    23758529.978         558.910         435.514
 90 11  1  8 17 45.0890000  0  4G18G 2G19G11
   1287708.707     1003942.390    20466347.098       -1210.198        -943.011
  -5200917.957    -3991387.070    23636184.782        1986.279        1547.749
   5060561.023     3893389.383    22256943.277       -2395.834       -1866.883
  -2627893.490    -2007695.822    23758212.828         549.909         428.500
 90 11  1  8 18  0.1930000  0  4G18G 2G19G11
   1306051.658     1018235.045    20471107.800       -1218.356        -949.369
  -5230882.470    -4014736.678    23631753.984        1981.854        1544.302
   5096758.991     3921595.255    22265101.365       -2397.046       -1867.827
  -2636131.154    -2014114.727    23757910.686         541.137         421.665
 90 11  1  8 18 15.0410000  0  4G18G 2G19G11
   1324212.072     1032385.640    20475811.101       -1227.596        -956.568
  -5260267.224    -4037633.227    23627410.378        1976.297        1539.971
   5132370.316     3949343.840    22273119.411       -2399.456       -1869.705
  -2644091.113    -2020317.382    23757644.816         531.260         413.968
 90 11  1  8 18 30.1450000  0  4G18G 2G19G11
   1342821.299     1046886.332    20480623.312       -1236.593        -963.579
  -5290077.197    -4060862.146    23623007.133        1971.007        1535.849
   5168626.375     3977595.952    22281292.968       -2401.506       -1871.302
  -2652042.615    -2026513.229    23757400.231         521.610         406.450
 90 11  1  8 18 45.2490000  0  4G18G 2G19G11
   1361558.587     1061487.326    20485458.330       -1244.859        -970.020
  -5319815.125    -4084034.532    23618618.555        1966.458        1532.304
   5204904.816     4005866.286    21989673.544       -2402.863       -1872.360
  -2659855.962    -2032601.583    23757183.531         512.677         399.488
 90 11  1  8 19  0.0970000  0  4G18G 2G19G11
   1380107.140     1075940.986    20490235.314       -1253.925        -977.084
  -5348975.042    -4106756.615    23614316.823        1961.038        1528.082
   5240596.207     4033678.419    21997718.365       -2405.108       -1874.110
  -2667398.429    -2038478.696    23756999.067         502.946         391.905
 90 11  1  8 19 15.2010000  0  5G18G 2G19G11G16
   1399124.737     1090759.302    20495126.747       -1263.941        -984.889
  -5378544.385    -4129797.443    23609963.953        1954.705        1523.146
   5276949.252     4062004.646    22005902.744       -2408.183       -1876.504
  -2674910.924    -2044333.148    23756840.997         492.242         383.563
         0.966                    24211594.781         927.358
 90 11  1  8 19 30.0490000  0  5G18G 2G19G11G16
   1417944.794     1105424.182    20499960.090       -1271.648        -990.894
  -5407541.136    -4152392.681    23605696.679        1950.638        1519.976
   5312708.773     4089869.290    22013960.622       -2409.054       -1877.186
  -2682162.401    -2049982.984    23756713.750         483.871         377.041
    -13716.488                    24210235.863         919.791
 90 11  1  8 19 45.1530000  0  5G18G 2G19G11G16
   1437211.376     1120437.061    20504898.348       -1279.822        -997.264
  -5436972.071    -4175326.130    23601369.244        1946.134        1516.467
   5349101.618     4118227.757    22022152.099       -2410.316       -1878.169
  -2689405.445    -2055627.078    23756604.835         474.951         370.092
    -27550.149           0.348    24208875.929         911.687         710.403
 90 11  1  8 20  0.2570000  0  5G18G 2G19G11G16
   1456602.549     1135546.899    20509858.290       -1288.178       -1003.774
  -5466334.018    -4198205.294    23597051.806        1941.464        1512.828
   5385516.136     4146601.917    22030356.149       -2411.741       -1879.279
  -2696513.482    -2061165.718    23756522.630         465.878         363.020
    -41260.877      -10682.953    24207541.448         903.443         703.980
 90 11  1  8 20 15.1050000  0  5G18G 2G19G11G16
   1475794.928     1150502.065    20514759.265       -1297.154       -1010.769
  -5495121.470    -4220637.290    23592821.263        1936.072        1508.627
   5421340.356     4174517.421    22038418.631       -2413.886       -1880.950
  -2703359.281    -2066500.137    23756471.963         456.142         355.434
    -54609.904      -21085.142    24206246.586         894.541         697.046
 90 11  1  8 20 30.2090000  0  5G18G 2G19G11G16
   1495446.647     1165815.313    20519769.442       -1305.634       -1017.377
  -5524332.270    -4243398.776    23588533.538        1931.282        1504.895
   5457806.563     4202932.930    22046631.155       -2415.423       -1882.148
  -2710183.391    -2071817.800    23756443.333         446.929         348.255
    -68061.969      -31567.641    24204956.947         886.165         690.520
 90 11  1  8 20 45.0570000  0  5G18G 2G19G11G16
   1514901.074     1180974.817    20524721.540       -1314.262       -1024.100
  -5552966.508    -4265710.911    23584334.301        1926.281        1501.000
   5493689.527     4230893.138    22054707.026       -2417.243       -1883.566
  -2716745.128    -2076931.067    23756441.461         437.555         340.951
    -81152.471      -41767.257    24203715.680         877.610         683.854
 90 11  1  8 21  0.1610000  0  5G18G 2G19G11G16
   1534808.433     1196486.955    20529778.869       -1322.047       -1030.166
  -5582032.052    -4288359.468    23580071.632        1922.115        1497.751
   5530203.570     4259345.822    22062929.173       -2418.106       -1884.239
  -2723291.565    -2082031.956    23756469.064         428.958         334.253
    -94351.178      -52052.690    24202474.684         869.899         677.843
 90 11  1  8 21 15.0090000  0  5G18G 2G19G11G16
   1554506.242     1211835.955    20534774.117       -1330.767       -1036.960
  -5610530.207    -4310565.570    23575897.894        1916.995        1493.763
   5566126.165     4287336.782    22071012.001       -2420.015       -1885.725
  -2729587.370    -2086937.467    23756513.171         419.473         326.861
   -107200.037      -62064.222    24201276.354         861.243         671.100
 90 11  1  8 21 30.1130000  0  5G18G 2G19G11G16
   1574664.644     1227543.518    20539878.324       -1339.171       -1043.509
  -5639453.834    -4333103.642    23571660.079        1912.219        1490.040
   5602682.941     4315823.274    22079238.255       -2421.482       -1886.869
  -2735859.032    -2091824.738    23756590.114         410.270         319.691
   -120151.096      -72155.488    24499872.272         852.881         664.581
 90 11  1  8 21 45.2170000  0  5G18G 2G19G11G16
   1594959.960     1243357.813    20545008.709       -1347.900       -1050.312
  -5668295.623    -4355577.766    23567440.485        1907.146        1486.088
   5639273.266     4344334.842    22087467.701       -2423.286       -1888.274
  -2741981.027    -2096595.002    23756693.531         400.700         312.232
   -132965.696      -82140.539    24498701.145         844.186         657.812
 90 11  1  8 22  0.0650000  0  5G18G 2G19G11G16
   1615031.711     1258998.402    20550073.922       -1356.080       -1056.685
  -5696580.379    -4377617.605    23563305.718        1902.518        1482.480
   5675262.865     4372378.515    22095561.880       -2424.658       -1889.343
  -2747865.431    -2101180.452    23756815.131         391.701         305.221
   -145441.466      -91862.054    24497575.813         836.014         651.445
 90 11  1  8 22 15.1690000  0  5G18G 2G19G11G16
   1635580.922     1275010.165    20555250.790       -1364.664       -1063.375
  -5725276.594    -4399978.603    23559110.451        1897.552        1478.612
   5711898.887     4400926.309    22103800.690       -2426.370       -1890.679
  -2753709.126    -2105733.942    23756976.381         382.245         297.852
   -158001.959     -101650.057    24496450.434         827.457         644.768
 90 11  1  8 22 30.0170000  0  5G18G 2G19G11G16
   1655901.327     1290844.768    20560362.922       -1372.517       -1069.493
  -5753419.788    -4421908.497    23554999.568        1893.239        1475.251
   5747933.048     4429004.769    22111904.573       -2427.417       -1891.494
  -2759319.865    -2110106.413    23757150.223         373.555         291.080
   -170230.424     -111178.435    24495369.282         819.629         638.672
 90 11  1  8 22 45.1210000  0  5G18G 2G19G11G16
   1676698.601     1307050.352    20565586.269       -1381.489       -1076.485
  -5781975.984    -4444160.029    23550830.819        1887.905        1471.096
   5784610.996     4457585.170    22120142.524       -2429.429       -1893.061
  -2764889.611    -2114445.669    23757355.908         363.715         283.414
   -182543.731     -120772.879    24494288.951         810.691         631.705
 90 11  1  8 23  0.2250000  0  5G18G 2G19G11G16
   1697628.535     1323359.733    20570833.379       -1389.969       -1083.092
  -5810453.263    -4466349.998    23546676.925        1882.992        1467.265
   5821318.694     4486187.586    22128394.625       -2431.012       -1894.296
  -2770311.469    -2118670.424    23757589.851         354.316         276.091
   -194722.789     -130263.469    24493238.513         802.153         625.057
 90 11  1  8 23 15.0730000  0  5G18G 2G19G11G16
   1718333.914     1339494.671    20276227.232       -1398.692       -1089.890
  -5838368.716    -4488102.812    23542609.372        1877.802        1463.222
   5857432.725     4514328.611    22136512.562       -2432.952       -1895.805
  -2775496.845    -2122711.002    23757845.359         344.706         268.602
   -206565.359     -139491.224    24492230.050         793.434         618.257
 90 11  1  8 23 30.1770000  0  5G18G 2G19G11G16
   1739525.128     1356007.252    20281524.571       -1407.505       -1096.756
  -5866692.536    -4510173.470    23538484.184        1872.552        1459.130
   5894192.805     4542973.193    22144773.918       -2434.859       -1897.293
  -2780631.132    -2126711.762    23758134.179         334.957         261.004
   -218483.242     -148777.901    24491226.898         784.604         611.382
 90 11  1  8 23 45.0250000  0  5G18G 2G19G11G16
   1760489.793     1372342.632    20286757.352       -1415.673       -1103.121
  -5894458.023    -4531808.225    23534447.512        1867.911        1455.515
   5930361.008     4571155.737    22152900.806       -2436.258       -1898.384
  -2785532.238    -2130531.022    23758448.917         325.876         253.929
   -230067.830     -157804.837    24490267.112         776.385         604.972
 90 11  1  8 24  0.1290000  0  5G18G 2G19G11G16
   1781949.887     1389065.886    20292110.500       -1426.025       -1111.188
  -5922619.413    -4553751.804    23530354.342        1861.127        1450.227
   5967184.454     4599849.299    22161179.787       -2439.696       -1901.063
  -2790368.374    -2134299.732    23758794.618         314.558         245.109
   -241714.952     -166880.916    24489318.992         765.974         596.870
 90 11  1  8 24 15.2330000  0  6G18G 2G19G11G16G 6
   1803551.144     1405897.958    20297490.034       -1434.992       -1118.175
  -5950695.699    -4575628.887    23826073.764        1855.726        1446.019
   6004043.564     4628571.196    22169458.105       -2441.790       -1902.693
  -2795049.834    -2137947.926    23759176.502         304.634         237.376
   -253221.972     -175847.462    24488399.517         757.008         589.877
         0.856                    24359522.082        1691.677
 90 11  1  8 24 30.0810000  0  6G18G 2G19G11G16G 6
   1824905.513     1422537.172    20302799.729       -1442.762       -1124.229
  -5978228.481    -4597082.522    23822081.462        1851.464        1442.697
   6040296.682     4656819.624    22177602.526       -2442.716       -1903.414
  -2799519.395    -2141429.768    23759568.981         295.919         230.586
   -264413.745     -184568.450    24487514.203         749.172         583.776
    -25128.376                    24355985.262        1691.814
 90 11  1  8 24 45.1850000  0  6G18G 2G19G11G16G 6
   1846753.094     1439561.646    20308223.190       -1450.827       -1130.514
  -6006163.352    -4618850.006    23818032.883        1846.959        1439.188
   6077195.911     4685572.946    22185894.033       -2443.922       -1904.355
  -2803924.977    -2144862.936    23759998.111         286.867         223.532
   -275672.743     -193341.091    24486639.329         740.989         577.392
    -50686.109                    24352394.925        1691.776
 90 11  1  8 25  0.0330000  0  6G18G 2G19G11G16G 6
   1868361.972     1456399.878    20313582.717       -1459.377       -1137.177
  -6033545.788    -4640187.113    23814066.660        1841.870        1435.222
   6113500.409     4713861.933    22194044.145       -2445.676       -1905.721
  -2808110.077    -2148124.082    23760446.867         277.320         216.094
   -286607.999     -201861.854    24485806.298         732.417         570.720
    -75797.158                    24348857.647        1691.090
 90 11  1  8 25 15.1370000  0  6G18G 2G19G11G16G 6
   1890469.180     1473625.991    20319055.554       -1467.882       -1143.804
  -6061326.949    -4661835.095    23810048.550        1836.891        1431.343
   6150452.693     4742655.904    22202346.937       -2447.306       -1906.990
  -2812225.828    -2151331.706    23760932.260         267.793         208.668
   -297605.041     -210431.072    24484977.184         723.792         563.993
   -101335.309                    24345265.651        1690.635
 90 11  1  8 25 30.2410000  0  6G18G 2G19G11G16G 6
   1912706.411     1490953.704    20324555.120       -1476.872       -1150.809
  -6089031.845    -4683423.128    23806042.785        1831.442        1427.098
   6187432.277     4771470.608    22210650.255       -2449.462       -1908.671
  -2816196.800    -2154425.739    23761439.221         257.787         200.873
   -308470.552     -218898.217    24484176.688         714.760         556.950
   -126865.331                    24341672.915        1689.684
 90 11  1  8 25 45.0890000  0  6G18G 2G19G11G16G 6
   1934695.961     1508087.891    20329982.093       -1485.039       -1157.173
  -6116190.041    -4704585.726    23802117.174        1826.718        1423.416
   6223810.835     4799818.031    22218814.419       -2450.835       -1909.743
  -2819957.161    -2157355.473    23761973.535         248.569         193.690
   -319022.429     -227119.973    24483412.462         706.437         550.470
   -151952.436                    24338144.174        1689.412
 90 11  1  8 26  0.1930000  0  6G18G 2G19G11G16G 6
   1957191.953     1525617.063    20335530.670       -1493.679       -1163.905
  -6143742.007    -4726054.614    23798143.116        1821.604        1419.431
   6260843.028     4828674.046    22227131.567       -2452.592       -1911.111
  -2823637.386    -2160223.480    23762537.078         238.895         186.151
   -329625.391     -235382.428    24482662.234         697.696         543.656
   -177464.016                    24334556.738        1688.782
 90 11  1  8 26 15.0410000  0  6G18G 2G19G11G16G 6
   1979433.300     1542948.385    20341007.984       -1502.170       -1170.521
  -6170751.636    -4747100.555    23794248.356        1816.574        1415.513
   6297271.831     4857060.076    22235307.714       -2454.309       -1912.447
  -2827112.893    -2162931.729    23763120.129         229.359         178.721
   -339920.843     -243404.434    24481948.922         689.114         536.972
   -202534.811           0.367    24331029.100        1688.264        1315.535
 90 11  1  8 26 30.1450000  0  6G18G 2G19G11G16G 6
   2002193.754     1560683.339    20346603.089       -1511.193       -1177.554
  -6198143.179    -4768445.323    23790301.294        1811.013        1411.178
   6334362.780     4885961.574    22243630.254       -2456.516       -1914.169
  -2830497.602    -2165569.038    23763739.699         219.226         170.824
   -350256.543     -251458.774    24481245.456         679.958         529.839
   -228023.719      -19860.868    24327444.166        1687.233        1314.723
 90 11  1  8 26 45.2490000  0  6G18G 2G19G11G16G 6
   2025084.015     1578519.748    20352227.759       -1519.644       -1184.138
  -6225458.053    -4789729.568    23786370.833        1806.050        1407.312
   6371478.443     4914883.153    22251959.610       -2458.096       -1915.397
  -2833735.490    -2168092.174    23764393.952         209.681         163.387
   -360459.973     -259409.683    24480570.779         671.349         523.125
   -253505.252      -39715.352    24623656.655        1686.838        1314.419
 90 11  1  8 27  0.0970000  0  6G18G 2G19G11G16G 6
   2047717.521     1596156.874    20357779.888       -1528.991       -1191.422
  -6252229.477    -4810590.468    23782522.204        1800.159        1402.722
   6407996.982     4943339.163    22260161.600       -2460.696       -1917.424
  -2836769.857    -2170456.540    23765061.063         199.242         155.253
   -370356.966     -267120.795    24479936.929         661.867         515.742
   -278539.948      -59222.477    24620138.935        1685.405        1313.303
 90 11  1  8 27 15.2010000  0  6G18G 2G19G11G16G 6
   2070866.145     1614194.916    20363452.148       -1536.236       -1197.066
  -6279390.152    -4831754.553    23778620.345        1796.384        1399.779
   6445166.682     4972302.364    22268495.581       -2461.080       -1917.725
  -2839716.166    -2172752.433    23765770.200         190.881         148.737
   -380297.815     -274867.175    24479311.253         654.469         509.979
   -304001.541      -79063.486    24616560.805        1686.206        1313.928
 90 11  1  8 27 30.0490000  0  6G18G 2G19G11G16G 6
   2093735.283     1632014.718    20369049.002       -1545.023       -1203.915
  -6306029.589    -4852512.714    23774794.314        1791.004        1395.586
   6481717.131     5000783.458    22276694.041       -2463.139       -1919.327
  -2842483.815    -2174908.643    23766483.242         180.980         141.024
   -389955.217     -282392.592    24478716.121         645.509         502.998
   -329038.444      -98572.603    24613040.003        1685.324        1313.244
 90 11  1  8 27 45.1530000  0  6G18G 2G19G11G16G 6
   2117135.298     1650249.004    20374766.569       -1553.499       -1210.519
  -6333041.999    -4873561.438    23770917.454        1785.961        1391.658
   6518933.127     5029782.861    22285046.187       -2464.771       -1920.600
  -2845144.153    -2176981.849    23767242.906         171.327         133.500
   -399639.367     -289938.696    24478139.378         636.863         496.254
   -354490.430     -118405.332    24609461.057        1684.906        1312.913
 90 11  1  8 28  0.2570000  0  6G18G 2G19G11G16G 6
   2140659.647     1668579.530    20380506.737       -1561.947       -1217.101
  -6359983.390    -4894554.732    23767057.351        1780.998        1387.791
   6556169.465     5058797.682    22293395.754       -2466.362       -1921.840
  -2847663.154    -2178944.543    23768030.094         161.736         126.027
   -409196.874     -297386.421    24477584.367         628.245         489.546
   -379939.371     -138235.768    24605882.892        1684.502        1312.600
 90 11  1  8 28 15.1050000  0  6G18G 2G19G11G16G 6
   2163915.808     1686700.744    20386176.856       -1570.770       -1223.976
  -6386387.978    -4915129.575    23763276.565        1775.541        1383.538
   6592804.128     5087344.358    22301610.701       -2468.445       -1923.463
  -2849991.315    -2180758.990    23768830.997         151.769         118.261
   -418460.167     -304604.194    24477064.615         619.256         482.537
   -404945.487     -157721.262    24602369.703        1683.611        1311.901
 90 11  1  8 28 30.2090000  0  6G18G 2G19G11G16G 6
   2187691.729     1705227.656    20391963.612       -1577.137       -1228.937
  -6413181.092    -4936007.216    23759441.425        1772.587        1381.237
   6630087.274     5116396.277    22309968.080       -2467.989       -1923.107
  -2852223.550    -2182498.107    23769669.085         144.200         112.364
   -427760.265     -311851.049    24476561.657         612.697         477.426
   -430384.288     -177543.756    24598790.064        1685.272        1313.194
 90 11  1  8 28 45.0570000  0  6G18G 2G19G11G16G 6
   2211174.903     1723525.864    20397672.101       -1585.795       -1235.684
  -6439460.331    -4956484.206    23755677.722        1767.297        1377.114
   6666747.931     5144962.676    22318179.976       -2469.952       -1924.636
  -2854290.500    -2184108.857    23770511.924         134.352         104.690
   -436790.728     -318887.619    24476080.756         603.813         470.508
   -455401.310     -197037.002    24595267.326        1684.533        1312.623
 90 11  1  8 29  0.1610000  0  6G18G 2G19G11G16G 6
   2235194.538     1742242.320    20403499.931       -1594.372       -1242.367
  -6466111.055    -4977251.301    23751866.750        1762.146        1373.101
   6704069.798     5174044.943    22326542.533       -2471.701       -1926.002
  -2856243.153    -2185629.934    23771402.894         124.572          97.069
   -445840.500     -325940.178    24475617.371         594.984         463.628
   -480837.697     -216857.243    24591688.687        1683.986        1312.193
 90 11  1  8 29 15.0090000  0  6G18G 2G19G11G16G 6
   2258920.893     1760730.152    20409254.168       -1602.227       -1248.488
  -6492248.386    -4997617.780    23748129.088        1757.665        1369.608
   6740772.875     5202644.152    22334764.841       -2472.825       -1926.877
  -2858031.223    -2187023.471    23772294.698         115.516          90.012
   -454621.498     -332782.079    24475181.736         586.962         457.373
   -505847.311     -236345.877    24588164.369        1684.080        1312.264
 90 11  1  8 29 30.1130000  0  6G18G 2G19G11G16G 6
   2283183.165     1779635.724    20415127.162       -1610.130       -1254.646
  -6518758.896    -5018276.036    23744341.992        1753.158        1366.097
   6778130.919     5231756.356    22043340.387       -2473.920       -1927.729
  -2859703.855    -2188327.231    23773240.271         106.377          82.892
   -463422.483     -339640.214    24474764.731         578.830         451.034
   -531282.266     -256165.274    24584578.716        1684.234        1312.390
 90 11  1  8 29 45.2170000  0  6G18G 2G19G11G16G 6
   2307572.743     1798641.541    20421025.073       -1619.081       -1261.621
  -6545194.195    -5038874.402    23740568.433        1747.604        1361.769
   6815515.643     5260887.692    22051707.300       -2476.066       -1929.401
  -2861230.698    -2189516.549    23774202.957          96.158          74.928
   -472092.536     -346395.949    24474373.919         569.610         443.856
   -556711.501     -275979.801    24580997.886        1683.345        1311.705
 90 11  1  8 30  0.0650000  0  6G18G 2G19G11G16G 6
   2331676.588     1817423.564    20426848.668       -1628.078       -1268.632
  -6571102.738    -5059063.483    23736873.550        1741.938        1357.354
   6852294.827     5289546.402    22059942.080       -2478.346       -1931.179
  -2862585.362    -2190572.469    23775178.533          85.931          66.957
   -480485.187     -352935.423    24474009.257         560.403         436.679
   -581700.739     -295451.845    24577479.592        1682.271        1310.856
 90 11  1  8 30 15.1690000  0  6G18G 2G19G11G16G 6
   2356332.572     1836635.953    20432798.283       -1637.433       -1275.921
  -6597372.915    -5079533.385    23733134.738        1735.938        1352.679
   6889742.190     5318726.086    22068329.020       -2480.923       -1933.187
  -2863807.645    -2191525.379    23776207.602          75.288          58.665
   -488881.501     -359478.612    24473672.029         550.745         429.149
   -607104.094     -315247.273    24573902.313        1680.949        1309.837
 90 11  1  8 30 30.0170000  0  6G18G 2G19G11G16G 6
   2380698.429     1855622.018    20438672.652       -1645.279       -1282.036
  -6623120.008    -5099596.183    23729470.842        1731.407        1349.147
   6926581.901     5347432.266    22076576.869       -2482.086       -1934.091
  -2864863.555    -2192347.731    23777243.830          66.150          51.546
   -497004.364     -365807.771    24473361.839         542.658         422.850
   -632069.535     -334700.366    24570391.859        1681.031        1309.895
 90 11  1  8 30 45.1210000  0  6G18G 2G19G11G16G 6
   2405627.191     1875047.191    20444677.658       -1655.306       -1289.849
  -6649218.291    -5119932.598    23725764.406        1724.737        1343.949
   6964098.326     5376665.798    22084976.889       -2485.346       -1936.632
  -2865774.137    -2193057.141    23778331.600          54.811          42.709
   -505120.927     -372131.756    24473079.205         532.362         414.835
   -657441.347     -354471.263    24566819.098        1679.049        1308.354
 90 11  1  8 31  0.2250000  0  6G18G 2G19G11G16G 6
   2430687.615     1894574.537    20450707.395       -1663.807       -1296.473
  -6675235.304    -5140205.866    23722076.245        1719.627        1339.969
   7001643.672     5405922.461    22093386.449       -2487.026       -1937.941
  -2866534.314    -2193648.915    23779449.136          45.025          35.085
   -513100.349     -378350.448    24472822.752         523.598         407.994
   -682804.806     -374234.132    24563260.700        1678.608        1308.005
 90 11  1  8 31 15.0730000  0  6G18G 2G19G11G16G 6
   2455456.610     1913875.310    20456662.249       -1672.775       -1303.461
  -6700728.250    -5160069.633    23718468.021        1713.912        1335.514
   7038587.090     5434709.217    22101654.932       -2489.349       -1939.752
  -2867127.212    -2194111.772    23780578.924          34.734          27.065
   -520808.150     -384355.698    24472597.838         514.342         400.789
   -707722.122     -393650.888    24559759.020        1677.563        1307.194
 90 11  1  8 31 30.1770000  0  6G18G 2G19G11G16G 6
   2480785.210     1933611.173    20462744.573       -1681.811       -1310.501
  -6726577.356    -5180212.439    23714812.181        1708.212        1331.074
   7076196.790     5464015.403    22110076.925       -2491.595       -1941.502
  -2867579.803    -2194464.136    23781752.899          24.340          18.965
   -528511.301     -390359.072    24472395.229         504.990         393.499
   -733057.932     -413393.181    24556199.406        1676.558        1306.403
 90 11  1  8 31 45.0250000  0  6G18G 2G19G11G16G 6
   2505827.590     1953125.214    20468756.971       -1690.885       -1317.571
  -6751894.739    -5199940.039    23711238.324        1702.425        1326.564
   7113213.722     5492859.593    22118363.655       -2494.014       -1943.385
  -2867859.594    -2194682.617    23782946.136          13.930          10.853
   -535936.669     -396144.501    24472228.799         495.617         386.200
   -757939.350     -432781.094    24552712.419        1675.408        1305.511
 90 11  1  8 32  0.1290000  0  6G18G 2G19G11G16G 6
   2531421.566     1973068.404    20474893.860       -1698.345       -1323.385
  -6777577.905    -5219952.911    23707618.129        1698.277        1323.333
   7150887.284     5522215.630    22126797.451       -2494.701       -1943.921
  -2868005.372                    23784181.724           5.097
   -543364.612     -401932.904    24472078.221         487.853         380.143
   -783251.038     -452504.311    24549159.369        1676.011        1305.982
 90 11  1  8 32 15.2330000  0  6G18G 2G19G11G16G 6
   2557151.414     1993117.952    20481054.499       -1708.449       -1331.258
  -6803175.753    -5239899.290    23704011.888        1691.508        1318.057
   7188594.337     5551597.734    22135236.130       -2498.048       -1946.531
  -2867993.866                    23785452.462          -6.412
   -550652.282     -407611.561    24471956.736         477.385         371.994
   -808548.564     -472216.665    24545614.224        1673.967        1304.392
 90 11  1  8 32 30.0810000  0  6G18G 2G19G11G16G 6
   2582580.451     2012932.564    20487139.984       -1717.356       -1338.200
  -6828253.756    -5259440.613    23700487.675        1685.829        1313.633
   7225698.407     5580509.387    22143548.937       -2500.314       -1948.296
  -2867827.657                    23786732.648         -16.653
   -557677.182     -413085.307    24471867.827         468.189         364.819
   -833399.919     -491581.560    24542132.332        1672.952        1303.604
 90 11  1  8 32 45.1850000  0  6G18G 2G19G11G16G 6
   2608581.579     2033193.162    20493357.138       -1726.325       -1345.188
  -6853679.008    -5279252.472    23696919.010        1680.155        1309.212
   7263473.962     5609945.152    22152005.722       -2502.500       -1949.997
  -2867503.445                    23788061.086         -27.008
   -564683.824     -418545.075    24471804.297         458.881         357.562
   -858667.188     -511270.343    24538590.288        1672.060        1302.911
 90 11  1  8 33  0.0330000  0  6G18G 2G19G11G16G 6
   2634281.847     2053219.562    20499499.357       -1735.198       -1352.102
  -6878581.640                    23693428.668        1674.508
   7300650.085     5638914.087    22160331.276       -2504.794       -1951.789
  -2867023.877    -2194030.655    23789406.648         -37.300         -29.064
   -571427.106     -423799.050    24471770.426         449.639         350.371
   -883484.049                    24535118.548        1671.061
 90 11  1  8 33 15.1370000  0  6G18G 2G19G11G16G 6
   2660551.708     2073689.116    20505768.482       -1742.891       -1358.097
  -6903837.528                    23689894.129        1670.092
   7338492.098     5668401.042    22168802.318       -2505.726       -1952.514
  -2866388.479    -2193536.009    23790795.301         -46.426         -36.176
   -578154.547     -429042.063    24471760.696         441.607         344.105
   -908724.102                    24531582.967        1671.435
 90 11  1  8 33 30.2410000  0  6G18G 2G19G11G16G 6
   2686941.639     2094252.289    20512059.778       -1751.919       -1365.131
  -6929022.862                    23686371.535        1664.363
   7376353.055     5697903.093    22177275.223       -2508.031       -1954.310
  -2865612.251    -2192930.415    23792214.092         -56.868         -44.314
   -584756.379     -434186.297    24471775.711         432.241         336.813
   -933964.750                    24528051.363        1670.461
 90 11  1  8 33 45.0890000  0  6G18G 2G19G11G16G 6
   2713010.754     2114566.635    20518269.231       -1759.945       -1371.385
  -6953701.783    -5357192.074    23682923.727        1659.511        1293.125
   7413600.465     5726926.606    22185612.287       -2509.448       -1955.414
  -2864699.693    -2192219.682    23793633.405         -66.372         -51.718
   -591114.247     -439140.287    24471813.506         423.800         330.234
   -958768.860     -589271.813    24524578.763        1670.331        1301.550
 90 11  1  8 34  0.1930000  0  6G18G 2G19G11G16G 6
   2739661.935     2135332.993    20524611.499       -1769.129       -1378.542
  -6978722.895    -5376689.710    23679432.543        1653.560        1288.488
   7451521.063     5756475.101    22194096.774       -2511.912       -1957.333
  -2863617.505    -2191377.083    23795110.901         -77.010         -60.007
   -597444.655     -444073.036    24471879.708         414.259         322.799
   -983990.159     -608924.548    24521051.601        1669.178        1300.659
 90 11  1  8 34 15.0410000  0  6G18G 2G19G11G16G 6
   2765994.440     2155851.998    20530873.189       -1777.729       -1385.243
  -7003233.942    -5395789.215    23676018.605        1648.153        1284.274
   7488834.053     5785550.126    22202446.166       -2513.924       -1958.900
  -2862399.172    -2190427.075    23796592.922         -87.065         -67.844
   -603527.503     -448812.949    24471972.795         405.247         315.779
  -1008767.871     -628231.997    24517587.538        1668.475        1300.116
 90 11  1  8 34 30.1450000  0  6G18G 2G19G11G16G 6
   2792908.967     2176824.270    20537264.278       -1786.427       -1392.020
  -7028088.728    -5415156.613    23672561.401        1642.704        1280.028
   7526817.797     5815147.443    22210948.574       -2515.929       -1960.466
  -2861008.480    -2189344.069    23798133.460         -97.271         -75.796
   -609582.590     -453531.126    24472093.948         396.136         308.677
  -1033966.050     -647867.160    24514066.417        1667.819        1299.598
 90 11  1  8 34 45.2490000  0  6G18G 2G19G11G16G 6
   2819958.916     2197902.323    20543688.850       -1795.414       -1399.024
  -7052856.382    -5434455.544    23669121.854        1636.934        1275.532
   7564835.636     5844772.333    22219462.746       -2518.226       -1962.253
  -2859459.871    -2188137.338    23799694.312        -107.762         -83.971
   -615494.173     -458138.086    24472242.034         386.762         301.372
  -1059149.608     -667490.311    24510543.801        1666.902        1298.886
 90 11  1  8 35  0.0970000  0  6G18G 2G19G11G16G 6
   2846689.093     2218730.784    20550028.759       -1804.415       -1406.037
  -7077113.124    -5453357.243    23665760.159        1631.099        1270.985
   7602248.558     5873925.170    22227834.337       -2520.642       -1964.134
  -2857778.217    -2186826.040    23801275.258        -118.226         -92.124
   -621163.179     -462555.132    24472417.212         377.360         294.046
  -1083887.313     -686765.998    24507095.389        1665.792        1298.018
 90 11  1  8 35 15.2010000  0  6G18G 2G19G11G16G 6
   2874025.629     2240031.990    20556509.203       -1814.226       -1413.682
  -7101690.957    -5472508.713    23662361.489        1624.485        1265.832
   7640352.914     5903616.746    22236364.440       -2523.766       -1966.569
  -2855897.608    -2185361.184    23802909.092        -129.599        -100.986
   -626776.329     -466929.062    24472628.913         367.116         286.063
  -1109025.180     -706354.069    24503590.778        1663.989        1296.611
 90 11  1  8 35 30.0490000  0  6G18G 2G19G11G16G 6
   2901020.670     2261067.391    20562904.841       -1821.954       -1419.704
  -7125776.257    -5491276.788    23659035.215        1619.889        1262.250
   7677835.352     5932823.517    22244755.384       -2524.960       -1967.500
  -2853903.954    -2183807.701    23804547.382        -138.852        -108.197
   -632166.226     -471128.988    24472860.638         358.959         279.708
  -1133732.986     -725607.315    24500144.271        1664.168        1296.751
 90 11  1  8 35 45.1530000  0  6G18G 2G19G11G16G 6
   2928608.077     2282563.881    20569431.462       -1831.650       -1427.260
  -7150198.957    -5510307.102    23655666.490        1613.360        1257.163
   7715990.568     5962554.948    22253297.066       -2528.002       -1969.871
  -2851727.114    -2182111.319    23806242.492        -150.132        -116.987
   -637516.103     -475298.028    24473118.098         348.795         271.788
  -1158860.375     -745187.264    24496642.648        1662.508        1295.461
 90 11  1  8 36  0.2570000  0  6G18G 2G19G11G16G 6
   2956337.071     2304170.583    20575989.656       -1839.791       -1433.604
  -7174528.433    -5529264.822    23652319.256        1608.409        1253.307
   7754185.765     5992317.476    22261845.457       -2529.469       -1971.015
  -2849384.423    -2180285.902    23807964.700        -159.833        -124.546
   -642718.167     -479351.598    24473411.544         340.228         265.115
  -1183967.761     -764751.740    24493144.710        1662.381        1295.356
 90 11  1  8 36 15.1050000  0  6G18G 2G19G11G16G 6
   2983708.226     2325499.052    20582455.885       -1846.929       -1439.165
  -7198378.445    -5547849.962    23649037.953        1604.380        1250.166
   7791749.596     6021587.798    22270246.385       -2530.063       -1971.480
  -2846945.566    -2178385.471    23809690.874        -168.507        -131.304
   -647712.143     -483242.982    24473717.894         332.622         259.189
  -1208655.055     -783988.178    24489707.176        1663.136        1295.944
 90 11  1  8 36 30.2090000  0  6G18G 2G19G11G16G 6
   3011671.093     2347287.831    20589053.914       -1855.746       -1446.035
  -7222568.907    -5566699.533    23645711.360        1598.744        1245.775
   7829980.067     6051377.299    22278798.490       -2532.225       -1973.162
  -2844321.595    -2176340.904    23811464.737        -178.902        -139.403
   -652666.863     -487103.543    24474053.320         323.389         251.989
  -1233769.474     -803557.680    24486201.317        1662.341        1295.331
 90 11  1  8 36 45.0570000  0  6G18G 2G19G11G16G 6
   3039282.124     2368803.209    20595565.848       -1863.494       -1452.073
  -7246272.182    -5585169.774    23642454.034        1594.067        1242.129
   7867586.908     6080681.720    22287211.597       -2533.462       -1974.125
  -2841596.538    -2174217.327    23813238.771        -188.236        -146.679
   -657407.118     -490797.507    24474405.078         315.151         245.571
  -1258452.878     -822791.813    24482760.241        1662.475        1295.437
 90 11  1  8 37  0.1610000  0  6G18G 2G19G11G16G 6
   3067502.368     2390792.793    20602210.769       -1872.916       -1459.415
  -7270299.749    -5603892.385    23639161.176        1587.783        1237.233
   7905875.899     6110517.027    22295773.401       -2536.256       -1976.305
  -2838668.149    -2171935.120    23815072.101        -199.271        -155.274
   -662090.146     -494446.189    24474793.945         305.275         237.873
  -1283550.523     -842347.997    24479260.578        1661.098        1294.358
 90 11  1  8 37 15.0090000  0  6G18G 2G19G11G16G 6
   3095376.890     2412513.717    20608774.404       -1880.883       -1465.624
  -7293831.848    -5622229.494    23635941.475        1582.945        1233.463
   7943551.073     6139874.643    22304200.699       -2537.687       -1977.418
  -2835630.847    -2169569.191    23816908.552        -208.827        -162.723
   -666553.583     -497924.071    24475201.031         296.804         231.277
  -1308207.056     -861560.802    24475828.279        1660.979        1294.268
 90 11  1  8 37 30.1130000  0  6G18G 2G19G11G16G 6
   3123852.834     2434702.816    20615469.676       -1890.047       -1472.763
  -7317697.572    -5640825.760    23632679.038        1576.903        1228.756
   7981897.313     6169754.749    22312779.359       -2540.219       -1979.389
  -2832397.842    -2167049.465    23818800.803        -219.629        -171.140
   -670965.403     -501362.102    24475640.524         287.160         223.764
  -1333287.933     -881104.777    24472333.815        1659.880        1293.408
 90 11  1  8 37 45.2170000  0  6G18G 2G19G11G16G 6
   3152474.347     2457004.823    20622198.301       -1899.320       -1479.990
  -7341464.813    -5659345.432    23629437.206        1570.735        1223.948
   8020289.668     6199670.351    22321365.680       -2542.899       -1981.481
  -2828994.233    -2164397.329    23820731.392        -230.572        -179.666
   -675224.994     -504680.957    24476111.797         277.362         216.118
  -1358344.662     -900629.808    24468849.924        1658.598        1292.408
 90 11  1  8 38  0.0650000  0  6G18G 2G19G11G16G 6
   3180744.612     2479033.894    20628838.671       -1908.021       -1486.770
  -7364739.753    -5677482.396    23626271.337        1565.086        1219.548
   8058067.205     6229108.013    22329815.715       -2545.113       -1983.203
  -2825488.843    -2161665.689    23822661.464        -240.922        -187.731
   -679269.967     -507832.852    24476602.860         268.147         208.953
  -1382960.607     -919810.576    24465426.848        1657.739        1291.743
 90 11  1  8 38 15.1690000  0  6G18G 2G19G11G16G 6
   3209628.587     2501540.573    20635620.616       -1916.190       -1493.135
  -7388338.192    -5695870.067    23623063.304        1560.006        1215.589
   8096523.561     6259073.661    22338412.219       -2546.682       -1984.423
  -2821772.591    -2158770.317    23824649.939        -250.759        -195.397
   -683251.994     -510935.286    24477128.475         259.454         202.176
  -1407994.325     -939317.820    24461945.519        1657.555        1291.598
 90 11  1  8 38 30.0170000  0  6G18G 2G19G11G16G 6
   3238155.182     2523769.377    20642311.889       -1926.061       -1500.826
  -7411447.940    -5713878.232    23619926.936        1553.165        1210.258
   8134364.044     6288559.410    22346879.875       -2550.091       -1987.086
  -2817962.096    -2155800.489    23826640.658        -262.310        -204.397
   -687024.924     -513875.984    24477674.854         249.073         194.082
  -1432589.174     -958482.392    24458527.755        1655.597        1290.073
 90 11  1  8 38 45.1210000  0  6G18G 2G19G11G16G 6
   3267318.514     2546493.632    20649150.351       -1935.294       -1508.021
  -7434859.126    -5732120.279    23616761.027        1546.979        1205.438
   8172902.700     6318589.557    22355504.763       -2552.757       -1989.158
  -2813915.245    -2152648.140    23828696.887        -273.227        -212.904
   -690711.528     -516748.411    24478261.286         239.277         186.450
  -1457584.714     -977959.367    24455061.203        1654.355        1289.114
 90 11  1  8 39  0.2250000  0  6G18G 2G19G11G16G 6
   3296610.330     2569320.155    20356221.455       -1943.541       -1514.447
  -7458184.019    -5750296.135    23613612.311        1541.834        1201.428
   8211472.884     6348644.485    22364134.852       -2554.400       -1990.441
  -2809712.661    -2149372.557    23830788.483        -283.174        -220.655
   -694257.271     -519511.788    24478875.484         230.499         179.612
  -1482568.612     -997426.903    24451596.686        1654.126        1288.931
 90 11  1  8 39 15.0730000  0  6G18G 2G19G11G16G 6
   3325530.479     2591855.071    20362991.205       -1951.961       -1521.008
  -7481038.188    -5768104.116    23610530.242        1536.413        1197.204
   8249415.412     6378209.433    22372618.837       -2556.362       -1991.969
  -2805433.770    -2146038.563    23832869.580        -293.276        -228.527
   -697614.697     -522127.542    24479502.199         221.549         172.634
  -1507124.575    -1016562.166    24448188.059        1653.536        1288.459
 90 11  1  8 39 30.1770000  0  6G18G 2G19G11G16G 6
   3355076.593     2614878.123    20369903.882       -1961.255       -1528.250
  -7504203.070    -5786154.323    23607409.751        1530.164        1192.336
   8288041.460     6408307.232    22381259.253       -2559.115       -1994.115
  -2800926.894    -2142526.768    23835015.561        -304.303        -237.120
   -700892.607     -524681.568    24480167.014         211.706         164.968
  -1532095.994    -1036020.282    24444724.829        1652.229        1287.450
 90 11  1  8 39 45.0250000  0  6G18G 2G19G11G16G 6
   3384257.367     2637616.015    20376726.446       -1969.458       -1534.642
  -7526886.640    -5803829.213    23904155.528        1524.943        1188.267
   8326050.251     6437925.071    22389759.166       -2560.854       -1995.470
  -2796335.658    -2138949.548    23837154.939        -314.223        -244.849
   -703971.661     -527081.363    24480850.498         202.961         158.154
  -1556627.040    -1055134.913    24441327.799        1651.895        1287.204
 90 11  1  8 40  0.1290000  0  6G18G 2G19G11G16G 6
   3414063.824     2660841.745    20383687.821       -1977.835       -1541.170
  -7549882.742    -5821748.220    23901070.659        1519.581        1184.089
   8364738.066     6468072.623    22098622.041       -2562.728       -1996.929
  -2791516.716    -2135194.458    23839366.636        -324.383        -252.766
   -706973.137     -529420.140    24481572.571         193.974         151.145
  -1581577.135    -1074576.968    24437867.769        1651.468        1286.862
 90 11  1  8 40 15.2330000  0  6G18G 2G19G11G16G 6
   3443999.265     2684168.559    20390675.183       -1986.503       -1547.925
  -7572794.290    -5839601.394    23898004.626        1513.960        1179.708
   8403458.866     6498244.787    22107280.469       -2564.845       -1998.580
  -2786541.425    -2131317.199    23841602.737        -334.810        -260.891
   -709835.732     -531650.318    24482319.813         184.717         143.934
  -1606518.084    -1094011.485    24434418.576        1650.776        1286.318
 90 11  1  8 40 30.0810000  0  6G18G 2G19G11G16G 6
   3473556.287     2707199.899    20397569.904       -1995.074       -1554.603
  -7595234.510    -5857086.722    23895002.500        1508.328        1175.321
   8441555.234     6527930.680    22115803.434       -2566.986       -2000.253
  -2781496.005    -2127385.760    23843835.447        -345.123        -268.927
   -712512.558     -533736.121    24483079.059         175.563         136.799
  -1631026.213    -1113108.516    24431018.968        1650.046        1285.742
 90 11  1  8 40 45.1850000  0  6G18G 2G19G11G16G 6
   3503753.867     2730729.774    20404609.201       -2003.465       -1561.141
  -7617975.184    -5874807.289    23891967.503        1502.938        1171.121
   8480341.104     6558153.227    22124470.198       -2568.849       -2001.699
  -2776206.003    -2123263.864    23846133.208        -355.313        -276.868
   -715096.570     -535749.687    24483882.027         166.568         129.792
  -1655944.835    -1132526.320    24427572.249        1649.634        1285.429
 90 11  1  8 41  0.0330000  0  6G18G 2G19G11G16G 6
   3533560.918     2753956.232    20411551.933       -2011.944       -1567.748
  -7640253.008    -5892167.108    23888999.782        1497.402        1166.807
   8518495.632     6587884.119    22133007.986       -2570.978       -2003.356
  -2770857.250    -2119096.225    23848421.049        -365.559        -284.851
   -717505.099     -537626.901    24484691.593         157.472         122.700
  -1680437.248    -1151611.010    24424180.027        1648.985        1284.927
 90 11  1  8 41 15.1370000  0  6G18G 2G19G11G16G 6
   3564016.368     2777688.427    20418641.674       -2020.447       -1574.374
  -7662824.913    -5909754.904    23885997.975        1491.875        1162.500
   8557346.687     6618157.314    22141692.598       -2572.968       -2004.910
  -2765254.436    -2114730.413    23850783.688        -375.896        -292.907
   -719811.621     -539424.095    24485548.671         148.362         115.607
  -1705336.005    -1171012.163    24420740.725        1648.453        1284.517
 90 11  1  8 41 30.2410000  0  6G18G 2G19G11G16G 6
   3594607.460     2801525.234    20425759.620       -2029.992       -1581.812
  -7685305.928    -5927273.035    23883015.353        1485.287        1157.366
   8596234.285     6648459.320    22150386.874       -2576.047       -2007.312
  -2759489.995    -2110238.138    23853174.450        -387.239        -301.746
   -721973.974     -541108.730    24486433.608         138.215         107.704
  -1730219.815    -1190402.285    24417298.565        1646.871        1283.277
 90 11  1  8 41 45.0890000  0  6G18G 2G19G11G16G 6
   3624812.487     2825061.650    20432786.070       -2038.961       -1588.800
  -7707317.969    -5944425.494    23880105.464        1479.244        1152.657
   8634499.130     6678275.914    22158948.038       -2578.655       -2009.341
  -2753663.324    -2105698.124    23855562.853        -398.030        -310.154
   -723958.825     -542655.313    24487332.366         128.608         100.212
  -1754667.244    -1209452.313    24413926.767        1645.692        1282.358
 90 11  1  8 42  0.1930000  0  6G18G 2G19G11G16G 6
   3655670.742     2849106.679    20439956.163       -2047.287       -1595.287
  -7729621.564    -5961804.100    23877160.647        1473.853        1148.455
   8673459.679     6708634.895    22167660.333       -2580.504       -2010.781
  -2747575.184    -2100954.489    23858021.391        -408.190        -318.070
   -725833.887     -544116.986    24488272.024         119.671          93.250
  -1779521.509    -1228819.270    24410494.289        1645.309        1282.057
 90 11  1  8 42 15.0410000  0  6G18G 2G19G11G16G 6
   3686140.658     2872850.048    20447034.836       -2057.022       -1602.875
  -7751454.564    -5978817.065    23874285.003        1467.014        1143.127
   8711799.957     6738510.989    22176237.181       -2583.893       -2013.420
  -2741428.169    -2096164.730    23860472.489        -419.765        -327.089
   -727533.633     -545441.459    24489229.248         109.272          85.150
  -1803936.510    -1247844.110    24407127.224        1643.390        1280.557
 90 11  1  8 42 30.1450000  0  6G18G 2G19G11G16G 6
   3717266.712     2897104.095    20454262.150       -2065.352       -1609.365
  -7773576.922    -5996055.760    23871377.109        1461.623        1138.927
   8750835.500     6768928.083    22184966.224       -2585.783       -2014.895
  -2735017.564    -2091168.578    23862993.264        -429.978        -335.047
   -729122.007     -546679.358    24490233.542         100.256          78.120
  -1828762.529    -1267187.906    24703500.949        1642.953        1280.219
 90 11  1  8 42 45.2490000  0  6G18G 2G19G11G16G 6
   3748525.144     2921461.159    20461513.708       -2073.117       -1615.416
  -7795611.716    -6013225.861    23868488.709        1456.725        1135.110
   8789906.057     6799372.256    22193707.273       -2587.120       -2015.936
  -2728445.655    -2086047.568    23865546.863        -439.646        -342.581
   -730569.155     -547806.268    24491262.980          91.819          71.550
  -1853574.881    -1286522.193    24700085.029        1643.134        1280.365
 90 11  1  8 43  0.0970000  0  6G18G 2G19G11G16G 6
   3779368.025     2945494.535    20468663.931       -2081.863       -1622.231
  -7817201.924    -6030049.018    23865663.511        1450.852        1130.533
   8828333.678     6829315.686    22202304.381       -2589.522       -2017.811
  -2721842.966    -2080902.404    23868085.151        -450.237        -350.834
   -731866.602     -548817.698    24492296.034          82.438          64.237
  -1877968.713    -1305530.176    24696720.645        1642.204        1279.637
 90 11  1  8 43 15.2010000  0  6G18G 2G19G11G16G 6
   3810879.773     2970048.624    20475965.300       -2090.390       -1628.875
  -7839070.269    -6047089.564    23862807.730        1445.211        1126.138
   8867464.412     6859807.280    22211052.123       -2591.655       -2019.470
  -2714960.362    -2075540.032    23870700.135        -460.692        -358.982
   -733039.742     -549731.859    24493377.990          73.212          57.047
  -1902765.736    -1324852.098    24693306.953        1641.546        1279.125
 90 11  1  8 43 30.0490000  0  6G18G 2G19G11G16G 6
   3841983.445     2994284.806    20483169.840       -2099.056       -1635.626
  -7860485.395    -6063775.922    23860016.734        1439.416        1121.623
   8905963.995     6889806.600    22219661.379       -2593.994       -2021.292
  -2708041.420    -2070148.441    23873299.541        -471.231        -367.194
   -734057.012     -550524.478    24494470.314          63.899          49.791
  -1927131.924    -1343839.049    24689952.673        1640.697        1278.472
 90 11  1  8 43 45.1530000  0  6G18G 2G19G11G16G 6
   3873751.605     3019039.741    20490519.679       -2107.562       -1642.256
  -7882182.777    -6080683.792    23857194.919        1433.784        1117.234
   8945159.635     6920348.919    22228429.112       -2596.103       -2022.935
  -2700844.759    -2064540.881    23875979.167        -481.659        -375.319
   -734952.502     -551222.479    24495604.275          54.715          42.643
  -1951908.872    -1363145.756    24686546.919        1640.121        1278.012
 90 11  1  8 44  0.2570000  0  6G18G 2G19G11G16G 6
   3905652.131     3043897.658    20497899.848       -2115.125       -1648.149
  -7903792.274    -6097522.047    23854389.805        1429.068        1113.560
   8984391.448     6950918.674    22237209.819       -2597.279       -2023.852
  -2693487.375    -2058807.332    23878686.650        -491.155        -382.717
   -735705.347     -551808.927    24496770.383          46.446          36.197
  -1976672.310    -1382442.033    24683142.626        1640.448        1278.271
 90 11  1  8 44 15.1050000  0  6G18G 2G19G11G16G 6
   3937112.652     3068412.084    20505166.804       -2122.091       -1653.577
  -7924977.108    -6114030.003    23851640.684        1424.929        1110.334
   9022963.569     6980975.202    22245823.909       -2597.956       -2024.381
  -2686125.101    -2053071.161    23881369.945        -500.042        -389.643
   -736335.444     -552299.569    24497930.059          38.780          30.219
  -2001032.780    -1401424.043    24679788.450        1641.243        1278.896
 90 11  1  8 44 30.2090000  0  6G18G 2G19G11G16G 6
   3969231.503     3093439.221    20512582.371       -2130.813       -1660.374
  -7946454.335    -6130765.338    23848855.237        1419.036        1105.741
   9062221.590     7011565.934    22254596.466       -2600.316       -2026.216
  -2678491.795    -2047123.065    23884123.756        -510.723        -397.966
   -736849.284     -552700.004    24499135.365          29.328          22.851
  -2025815.271    -1420734.969    24676376.294        1640.408        1278.236
 90 11  1  8 44 45.0570000  0  6G18G 2G19G11G16G 6
   4000941.048     3118148.758    20519900.144       -2140.434       -1667.870
  -7967472.599    -6147143.646    23846140.138        1412.201        1100.416
   9100857.033     7041671.587    22263231.851       -2603.709       -2028.865
  -2670822.704    -2041146.517    23886867.215        -522.285        -406.977
   -737206.966     -552979.411    24500354.294          18.990          14.798
  -2050157.221    -1439703.303    24673027.579        1638.552        1276.797
 90 11  1  8 45  0.1610000  0  6G18G 2G19G11G16G 6
   4033326.211     3143383.464    20527369.266       -2148.294       -1673.995
  -7988768.538    -6163737.382    23843395.039        1407.182        1096.503
   9140191.240     7072321.416    22272031.078       -2605.197       -2030.027
  -2662862.825    -2034944.684    23889688.740        -532.114        -414.635
   -737432.881     -553154.819    24501616.292          10.404           8.107
  -2074909.558    -1458990.568    24669625.575        1638.583        1276.817
 90 11  1  8 45 15.0090000  0  6G18G 2G19G11G16G 6
   4065292.925     3168291.828    20534736.397       -2157.141       -1680.889
  -8009614.511    -6179981.422    23840713.025        1401.138        1091.795
   9178895.109     7102479.888    22280673.907       -2607.822       -2032.072
  -2654879.445    -2028723.849    23892493.734        -542.895        -423.034
   -737514.514                    24502887.614           0.851
  -2099229.245    -1477940.850    24666281.834        1637.479        1275.966
 90 11  1  8 45 30.1130000  0  6G18G 2G19G11G16G 6
   4097926.786     3193721.636    20542255.477       -2164.479       -1686.606
  -8030745.198    -6196446.329    23837998.249        1396.548        1088.219
   9218288.011     7133175.703    22289481.792       -2608.827       -2032.852
  -2646611.730    -2022281.106    23895374.603        -552.286        -430.354
   -737467.912                    24504201.040          -7.239
  -2123968.083    -1497218.036    24662883.256        1638.010        1276.371
 90 11  1  8 45 45.2170000  0  6G18G 2G19G11G16G 6
   4130683.600     3219246.022    20549796.032       -2172.837       -1693.120
  -8051795.412    -6212849.201    23835300.302        1390.961        1083.865
   9257707.933     7163892.829    22298285.471       -2610.832       -2034.408
  -2638190.650    -2015718.910    23898283.650        -562.650        -438.430
   -737289.261                    24505542.858         -16.357
  -2148703.083    -1516492.422    24659479.932        1637.519        1275.985
 90 11  1  8 46  0.0650000  0  6G18G 2G19G11G16G 6
   4163013.035     3244437.666    20557232.491       -2182.096       -1700.334
  -8072402.199    -6228906.071    23832663.590        1384.435        1078.779
   9296495.379     7194116.100    22306948.902       -2613.907       -2036.812
  -2629754.864    -2009145.565    23901174.407        -573.898        -447.192
   -736972.978                    24506889.503         -26.370
  -2173007.199    -1535430.815    24656139.600        1635.983        1274.791
 90 11  1  8 46 15.1690000  0  6G18G 2G19G11G16G 6
   4196040.210     3270173.191    20564829.625       -2190.896       -1707.192
  -8093264.318    -6245162.652    23830005.427        1378.429        1074.100
   9335997.350     7224897.041    22315784.664       -2616.402       -2038.755
  -2621001.930    -2002325.368    23904150.105        -584.735        -455.638
   -736500.536     -552428.421    24508288.257         -35.938         -28.010
  -2197707.022    -1554677.169    24652753.373        1635.007        1274.033
 90 11  1  8 46 30.0170000  0  6G18G 2G19G11G16G 6
   4228632.558     3295569.641    20572320.959       -2199.352       -1713.780
  -8113690.059    -6261078.405    23827408.727        1372.667        1069.610
   9374861.540     7255180.388    22324465.123       -2618.688       -2040.536
  -2612243.804    -1995500.651    23907106.974        -595.196        -463.790
   -735898.762     -551959.899    24509694.180         -45.172         -35.192
  -2221979.930    -1573590.900    24649422.275        1634.271        1273.458
 90 11  1  8 46 45.1210000  0  6G18G 2G19G11G16G 6
   4261916.221     3321504.986    20579968.820       -2208.284       -1720.740
  -8134378.949    -6277199.921    23824785.315        1366.532        1064.832
   9414431.618     7286014.438    22333309.587       -2621.307       -2042.575
  -2603173.392    -1988432.762    23910145.054        -606.172        -472.342
   -735146.085     -551373.211    24511149.453         -54.851         -42.731
  -2246657.911    -1592820.877    24646040.981        1633.200        1272.627
 90 11  1  8 47  0.2250000  0  6G18G 2G19G11G16G 6
   4295333.847     3347545.144    20587643.838       -2217.040       -1727.564
  -8154974.884    -6293248.825    23822179.519        1360.450        1060.091
   9454040.135     7316878.555    22342165.772       -2623.814       -2044.533
  -2593937.824    -1981236.622    23913222.324        -617.018        -480.792
   -734247.548     -550673.045    24512636.643         -64.455         -50.229
  -2271321.546    -1612038.445    24642663.531        1632.232        1271.872
 90 11  1  8 47 15.0730000  0  6G18G 2G19G11G16G 6
   4328307.218     3373238.093    20595209.337       -2224.346       -1733.255
  -8175141.671    -6308962.980    23819637.064        1355.871        1056.522
   9493007.060     7347242.192    22350873.346       -2624.972       -2045.430
  -2584707.668    -1974043.798    23916269.253        -626.360        -488.074
   -733231.480     -549880.858    24514124.944         -72.492         -56.483
  -2295560.240    -1630926.239    24639342.836        1632.650        1272.196
 90 11  1  8 47 30.1770000  0  6G18G 2G19G11G16G 6
   4361966.815     3399466.374    20602932.271       -2232.720       -1739.782
  -8195577.322    -6324887.296    23817063.862        1350.214        1052.115
   9532671.405     7378149.137    22359736.976       -2627.075       -2047.073
  -2575167.660    -1966610.531    23919397.995        -636.809        -496.214
   -732066.600     -548973.629    24515662.125         -81.705         -63.666
  -2320215.038    -1650138.245    24635968.051        1632.091        1271.759
 90 11  1  8 47 45.0250000  0  6G18G 2G19G11G16G 6
   4395181.742     3425348.685    20610545.212       -2241.252       -1746.430
  -8215581.701    -6340474.890    23814550.901        1344.339        1047.537
   9571696.444     7408558.545    22368451.855       -2629.522       -2048.977
  -2565633.070    -1959181.107    23922508.322        -647.424        -504.486
   -730783.577     -547973.597    24517200.513         -91.049         -70.949
  -2344441.776    -1669015.635    24632653.446        1631.229        1271.082
 90 11  1  8 48  0.1290000  0  6G18G 2G19G11G16G 6
   4429089.220     3451769.306    20618312.947       -2249.073       -1752.524
  -8235851.756    -6356269.828    23812009.414        1339.230        1043.556
   9611420.673     7439511.893    22377333.808       -2631.078       -2050.188
  -2555783.538    -1951506.107    23925697.034        -657.322        -512.199
   -729347.911     -546855.037    24518788.808         -99.645         -77.644
  -2369083.823    -1688217.562    24629276.308        1631.254        1271.104
 90 11  1  8 48 15.2330000  0  6G18G 2G19G11G16G 6
   4463121.015     3478287.469    20626105.442       -2257.410       -1759.021
  -8256037.343    -6371999.211    23809484.228        1333.548        1039.128
   9651175.462     7470490.000    22386213.604       -2633.214       -2051.852
  -2545777.418    -1943708.967    23928918.984        -667.815        -520.376
   -727773.973     -545628.896    24520402.546        -108.829         -84.799
  -2393718.958    -1707413.891    24625906.115        1630.705        1270.676
 90 11  1  8 48 30.0810000  0  6G18G 2G19G11G16G 6
   4496700.936     3504453.811    20633790.939       -2265.199       -1765.091
  -8275795.348    -6387394.915    23807019.501        1328.389        1035.108
   9690289.532     7500968.621    22394948.329       -2634.910       -2053.174
  -2535784.421    -1935921.946    23932114.922        -677.684        -528.065
   -726090.243     -544316.682    24522019.752        -117.412         -91.493
  -2417926.705    -1726276.667    24622594.858        1630.564        1270.570
 90 11  1  8 48 45.1850000  0  6G18G 2G19G11G16G 6
   4530970.748     3531158.170    20641627.917       -2274.734       -1772.520
  -8295822.731    -6403000.618    23804523.089        1321.502        1029.741
   9730097.813     7531987.430    22403836.794       -2638.231       -2055.764
  -2525475.061    -1927889.474    23935390.416        -689.355        -537.160
   -724253.254     -542885.320    24523684.859        -127.830         -99.614
  -2442556.658    -1745469.056    24619220.412        1628.792        1269.187
 90 11  1  8 49  0.0330000  0  6G18G 2G19G11G16G 6
   4564830.583     3557541.752    20649374.227       -2285.083       -1780.583
  -8315380.727    -6418240.333    23802105.445        1313.778        1023.723
   9769309.393     7562541.876    22412603.597       -2642.498       -2059.090
  -2515140.116    -1919836.012    23938660.886        -701.824        -546.876
   -722265.517     -541336.283    24525365.013        -138.996        -108.307
  -2466713.987    -1764293.360    24615927.381        1626.098        1267.090
 90 11  1  8 49 15.1370000  0  6G18G 2G19G11G16G 6
   4599393.316     3584474.159    20657274.341       -2293.254       -1786.950
  -8335194.322    -6433679.496    23799659.266        1308.246        1019.412
   9809224.138     7593644.571    22421527.188       -2644.509       -2060.655
  -2504474.047    -1911525.129    23942016.453        -712.159        -554.929
   -720109.812     -539656.835    24527099.558        -148.020        -115.337
  -2491283.895    -1783438.645    24612576.426        1625.678        1266.763
 90 11  1  8 49 30.2410000  0  6G18G 2G19G11G16G 6
   4634084.116     3611505.839    20665204.371       -2300.195       -1792.359
  -8354920.519    -6449050.455    23797231.296        1303.935        1016.052
   9849173.607     7624774.317    22430454.799       -2645.302       -2061.271
  -2493648.547    -1903089.056    23945401.660        -721.268        -562.028
   -717814.184     -537867.933    24528864.153        -155.825        -121.420
  -2515844.391    -1802576.122    24609229.297        1626.526        1267.425
 90 11  1  8 49 45.0890000  0  6G18G 2G19G11G16G 6
   4668287.685     3638157.323    20673012.802       -2306.898       -1797.582
  -8374250.431    -6464113.353    23794854.517        1299.799        1012.831
   9888456.563     7655383.377    22439226.938       -2645.960       -2061.787
  -2482873.160    -1894692.806    23948751.158        -730.118        -568.923
   -715445.072     -536021.662    24530612.782        -163.396        -127.331
  -2540001.967    -1821400.103    24605932.705        1627.445        1268.138
 90 11  1  8 50  0.1930000  0  6G18G 2G19G11G16G 6
   4703195.204     3665358.745    20680977.504       -2315.557       -1804.330
  -8393837.481    -6479376.092    23792445.079        1293.750        1008.117
   9928436.327     7686539.292    22148362.981       -2648.467       -2063.737
  -2471764.022    -1886036.471    23952187.258        -740.966        -577.376
   -712905.456     -534042.870    24532418.616        -172.927        -134.745
  -2564576.047    -1840549.092    24602578.426        1626.538        1267.434
 90 11  1  8 50 15.0410000  0  6G18G 2G19G11G16G 6
   4737643.454     3692200.798    20688833.460       -2324.463       -1811.269
  -8413000.010    -6494307.366    23790100.440        1287.379        1003.152
   9967782.920     7717198.626    22157152.796       -2651.385       -2066.012
  -2460679.893    -1877399.602    23955597.100        -752.029        -585.998
   -710264.913     -531985.670    24534222.616        -182.715        -142.378
  -2588717.026    -1859360.507    24599284.432        1625.205        1266.394
 90 11  1  8 50 30.1450000  0  6G18G 2G19G11G16G 6
   4772807.911     3719601.627    20696847.626       -2332.243       -1817.332
  -8432408.261    -6509431.087    23787733.837        1282.182         999.102
  10007838.918     7748410.995    22166099.687       -2653.068       -2067.330
  -2449248.838    -1868492.505    23959100.572        -762.029        -593.790
   -707443.251     -529787.021    24536084.565        -191.364        -149.112
  -2613267.550    -1878490.612    24595939.514        1625.182        1266.375
 90 11  1  8 50 45.2490000  0  6G18G 2G19G11G16G 6
   4808098.077     3747100.104    20704890.096       -2340.361       -1823.658
  -8451730.629    -6524486.824    23785380.164        1276.632         994.778
  10047929.192     7779649.786    22175053.073       -2655.072       -2068.886
  -2437659.366    -1859460.813    23962629.222        -772.370        -601.847
   -704482.594     -527479.435    24537974.377        -200.416        -156.165
  -2637808.607    -1897613.356    24592595.553        1624.763        1266.049
 90 11  1  8 51  0.0970000  0  6G18G 2G19G11G16G 6
   4842906.567     3774224.223    20712816.789       -2348.698       -1830.154
  -8470645.041    -6539225.765    23783083.983        1270.823         990.251
  10087366.354     7810380.371    22183861.272       -2657.437       -2070.729
  -2426114.813    -1850466.009    23966127.208        -782.888        -610.042
   -701440.119     -525109.062    24539854.477        -209.614        -163.334
  -2661929.757    -1916409.432    24589301.730        1624.041        1265.486
 90 11  1  8 51 15.2010000  0  6G18G 2G19G11G16G 6
   4878430.560     3801906.362    20421110.480       -2355.924       -1835.785
  -8489807.482    -6554157.751    23780762.537        1266.136         986.599
  10127508.524     7841660.186    22192828.202       -2658.572       -2071.614
  -2414222.646    -1841199.120    23969715.523        -792.336        -617.405
   -698216.359     -522596.844    24541792.178        -217.773        -169.695
  -2686466.691    -1935528.483    24585962.733        1624.501        1265.842
 90 11  1  8 51 30.0490000  0  6G18G 2G19G11G16G 6
   4913471.166     3829211.628    20429078.000       -2363.794       -1841.917
  -8508564.995    -6568774.123    23778492.760        1260.778         982.425
  10166999.248     7872432.013    22201640.811       -2660.429       -2073.062
  -2402381.634    -1831971.833    23973271.396        -802.414        -625.258
   -694916.395     -520025.308    24543721.338        -226.517        -176.503
  -2710582.626    -1954320.648    24582672.687        1624.197        1265.609
 90 11  1  8 51 45.1530000  0  6G18G 2G19G11G16G 6
   4949218.271     3857066.262    20437201.189       -2370.941       -1847.486
  -8527582.868    -6583592.688    23776195.984        1256.123         978.797
  10207181.160     7903742.146    22210612.236       -2661.555       -2073.942
  -2390200.517    -1822479.861    23976911.993        -811.848        -632.609
   -691442.733     -517319.062    24545701.728        -234.612        -182.812
  -2735128.395    -1973447.486    24579327.530        1624.762        1266.046
 90 11  1  8 52  0.2570000  0  6G18G 2G19G11G16G 6
   4985096.656     3885023.265    20445350.995       -2379.387       -1854.067
  -8546507.298    -6598338.967    23773917.000        1250.220         974.197
  10247402.980     7935084.109    22219594.138       -2663.923       -2075.786
  -2377853.641    -1812859.664    23980581.995        -822.540        -640.940
   -687825.052     -514499.887    24547716.273        -243.963        -190.096
  -2759659.837    -1992562.172    24575978.008        1624.011        1265.462
 90 11  1  8 52 15.1050000  0  6G18G 2G19G11G16G 6
   5020501.104     3912611.126    20453392.778       -2389.053       -1861.600
  -8565013.268    -6612759.748    23771700.472        1243.018         968.584
  10286988.648     7965929.913    22228426.563       -2667.664       -2078.699
  -2365549.271    -1803271.545    23984226.339        -834.433        -650.208
   -684121.405     -511613.358    24549723.149        -254.550        -198.352
  -2783753.681    -2011336.614    24572698.441        1621.875        1263.804
 90 11  1  8 52 30.2090000  0  6G18G 2G19G11G16G 6
   5056636.596     3940768.241    20461596.754       -2395.847       -1866.894
  -8583756.121    -6627364.218    23769461.519        1238.716         965.233
  10327287.478     7997331.074    22237416.359       -2668.470       -2079.325
  -2352876.957    -1793397.505    23987964.128        -843.537        -657.302
   -680218.381     -508572.278    24551793.499        -262.287        -204.378
  -2808256.759    -2030430.456    24569361.441        1622.720        1264.454
 90 11  1  8 52 45.0570000  0  6G18G 2G19G11G16G 6
   5092269.686     3968534.477    20469679.773       -2404.465       -1873.608
  -8602106.417    -6641663.139    23767271.600        1232.533         960.416
  10366924.725     8028217.426    22246270.153       -2671.207       -2081.458
  -2340276.342    -1783578.121    23991666.768        -854.397        -665.764
   -676256.005     -505485.317    24553849.875        -271.854        -211.827
  -2832347.507    -2049201.938    24566078.603        1621.644        1263.624
 90 11  1  8 53  0.1610000  0  6G18G 2G19G11G16G 6
   5128648.287     3996881.088    20477930.577       -2412.487       -1879.860
  -8620680.864    -6656136.998    23765065.971        1226.977         956.085
  10407286.341     8059668.071    22255275.019       -2673.225       -2083.032
  -2327293.399    -1773461.409    23995463.920        -864.744        -673.828
   -672082.493     -502232.558    24555972.293        -280.842        -218.841
  -2856838.088    -2068285.627    24562746.467        1621.301        1263.357
 90 11  1  8 53 15.0090000  0  6G18G 2G19G11G16G 6
   5164530.909     4024841.795    20486063.715       -2420.635       -1886.208
  -8638854.512    -6670298.343    23762912.605        1221.234         951.611
  10446996.749     8090611.295    22264134.668       -2675.501       -2084.804
  -2314374.078    -1763394.948    23999229.232        -875.150        -681.936
   -667842.911     -498929.394    24558084.733        -289.952        -225.937
  -2880903.822    -2087037.898    24559473.357        1620.608        1262.809
 90 11  1  8 53 30.1130000  0  6G18G 2G19G11G16G 6
   5201145.827     4053372.504    20494360.156       -2427.642       -1891.668
  -8657265.344    -6684643.905    23760736.249        1216.687         948.066
  10487416.332     8122106.841    22273153.372       -2676.521       -2085.601
  -2301084.978    -1753039.465    24003085.740        -884.482        -689.207
   -663402.362     -495469.514    24560256.711        -297.904        -232.134
  -2905385.136    -2106114.605    24556140.687        1621.233        1263.299
 90 11  1  8 53 45.2170000  0  6G18G 2G19G11G16G 6
   5237881.852     4081997.870    20502675.444       -2436.204       -1898.340
  -8675591.120    -6698924.499    23758577.033        1210.553         943.287
  10527866.803     8153626.542    22282178.582       -2679.132       -2087.635
  -2287638.646    -1742562.688    24006974.772        -895.375        -697.696
   -658826.164     -491903.421    24562455.034        -307.477        -239.594
  -2929860.877    -2125186.815    24552811.826        1620.300        1262.571
 90 11  1  8 54  0.0650000  0  6G18G 2G19G11G16G 6
   5274111.087     4110228.777    20510879.399       -2444.477       -1904.787
  -8693527.072    -6712899.898    23756469.386        1204.646         938.685
  10567659.869     8184634.098    22291052.590       -2681.593       -2089.549
  -2274271.432    -1732145.782    24010820.055        -905.964        -705.946
   -654197.452     -488296.634    24564640.620        -316.701        -246.781
  -2953918.317    -2143932.610    24549539.559        1619.474        1261.923
 90 11  1  8 54 15.1690000  0  6G18G 2G19G11G16G 6
   5311082.442     4139037.121    20519239.524       -2451.349       -1910.141
  -8711690.351    -6727053.369    23754338.632        1200.210         935.229
  10608167.073     8216198.255    22300092.196       -2682.526       -2090.280
  -2260520.047    -1721430.364    24014764.375        -915.174        -713.123
   -649356.698     -484524.423    24566892.943        -324.571        -252.912
  -2978386.213    -2162999.234    24546211.641        1620.221        1262.512
 90 11  1  8 54 30.0170000  0  6G18G 2G19G11G16G 6
   5347535.421     4167441.901    20527479.540       -2459.012       -1916.113
  -8729473.328    -6740910.127    23752261.315        1194.926         931.110
  10648009.261     8247243.718    22308983.745       -2684.339       -2091.688
  -2246859.006    -1710785.463    24018669.561        -925.139        -720.889
   -644474.531     -480720.768    24569123.600        -333.186        -259.625
  -3002443.821    -2181745.166    24542937.159        1620.052        1262.378
 90 11  1  8 54 45.1210000  0  6G18G 2G19G11G16G 6
   5384733.395     4196427.721    20535886.100       -2466.372       -1921.848
  -8747482.061    -6754943.404    23750160.846        1189.936         927.223
  10688566.376     8278846.957    22318026.616       -2685.817       -2092.844
  -2232809.926    -1699838.634    24022670.560        -934.893        -728.488
   -639377.938     -476748.966    24571417.852        -341.581        -266.165
  -3026912.898    -2200811.737    24539607.623        1620.229        1262.514
 90 11  1  8 55  0.2250000  0  6G18G 2G19G11G16G 6
   5422039.010     4225497.065    20544308.240       -2474.264       -1927.997
  -8765419.003    -6768920.124    23748070.155        1184.412         922.917
  10729142.153     8310464.517    22327065.465       -2687.828       -2094.411
  -2218618.365    -1688779.813    24026695.282        -945.143        -736.475
   -634156.988     -472680.676    24573736.491        -350.476        -273.100
  -3051388.236    -2219883.625    24536274.515        1619.938        1262.287
 90 11  1  8 55 15.0730000  0  6G18G 2G19G11G16G 6
   5458838.066     4254171.632    20552614.290       -2482.337       -1934.289
  -8782961.148    -6782589.426    23746037.349        1178.642         918.421
  10769069.407     8341576.547    22335967.907       -2690.147       -2096.217
  -2204505.572    -1677782.966    24030682.683        -955.606        -744.628
   -628884.591     -468572.496    24576046.431        -359.599        -280.205
  -3075435.305    -2238621.236    24533003.285        1619.235        1261.734
 90 11  1  8 55 30.1770000  0  6G18G 2G19G11G16G 6
   5496393.911     4283435.785    20561088.414       -2491.067       -1941.091
  -8800718.561    -6796425.980    23743983.329        1172.252         913.442
  10809719.572     8373251.747    22345031.302       -2693.017       -2098.456
  -2189991.095    -1666473.370    24034772.955        -966.749        -753.312
   -623382.760     -464285.383    24578418.045        -369.330        -287.791
  -3099886.585    -2257674.644    24529672.852        1618.056        1260.820
 90 11  1  8 55 45.0250000  0  6G18G 2G19G11G16G 6
   5533447.727     4312308.803    20569448.385       -2500.476       -1948.422
  -8818074.937    -6809950.868    23741989.244        1165.146         907.906
  10849728.612     8404427.378    22353952.116       -2696.667       -2101.300
  -2175553.525    -1655222.933    24038828.241        -978.531        -762.493
   -617825.958     -459955.040    24580785.563        -379.754        -295.915
  -3123900.824    -2276386.773    24526416.388        1616.083        1259.284
 90 11  1  8 56  0.1290000  0  6G18G 2G19G11G16G 6
   5571269.990     4341780.611    20577977.631       -2508.647       -1954.790
  -8835636.244    -6823634.111    23739981.183        1159.315         903.362
  10890470.614     8436174.050    22363046.627       -2698.986       -2103.103
  -2160700.323    -1643649.252    24042989.182        -989.093        -770.722
   -612026.810     -455436.030    24583221.134        -388.932        -303.061
  -3148311.389    -2295408.059    24523105.048        1615.438        1258.784
 90 11  1  8 56 15.2330000  0  6G18G 2G19G11G16G 6
   5609214.008     4371347.568    20586533.804       -2516.339       -1960.783
  -8853109.835    -6837250.773    23737990.744        1153.928         899.163
  10931245.078     8467946.488    22372139.024       -2700.839       -2104.550
  -2145689.239    -1631952.417    24047177.969        -999.229        -778.620
   -606090.391     -450810.786    24585683.571        -397.718        -309.910
  -3172714.422    -2314423.774    24519795.577        1615.262        1258.644
 90 11  1  8 56 30.0810000  0  6G18G 2G19G11G16G 6
   5646633.381     4400505.116    20594968.169       -2523.733       -1966.545
  -8870204.444    -6850570.469    23736049.875        1148.801         895.169
  10971361.753     8499205.884    22381083.778       -2702.529       -2105.867
  -2130778.944    -1620333.560    24051330.581       -1009.006        -786.238
   -600120.715     -446159.449    24588133.787        -406.122        -316.460
  -3196696.735    -2333110.802    24516540.999        1615.248        1258.632
 90 11  1  8 56 45.1850000  0  6G18G 2G19G11G16G 6
   5684813.654     4430256.347    20603568.340       -2531.617       -1972.688
  -8887510.790    -6864056.398    23734090.594        1143.208         890.811
  11012198.437     8531027.376    22390187.536       -2704.601       -2107.483
  -2115457.883    -1608395.424    24055576.974       -1019.319        -794.274
   -593917.377     -441324.643    24590649.539        -415.050        -323.415
  -3221087.332    -2352116.732    24513235.126        1614.877        1258.344
 90 11  1  8 57  0.0330000  0  6G18G 2G19G11G16G 6
   5722463.318     4459593.551    20612045.592       -2539.437       -1978.781
  -8904441.872    -6877249.453    23732184.472        1137.616         886.454
  11052374.918     8562332.886    22399147.301       -2706.729       -2109.139
  -2100245.461    -1596541.311    24059786.295       -1029.576        -802.268
   -587686.218     -436469.649    24593147.230        -423.954        -330.355
  -3245059.973    -2370796.654    24509985.140        1614.403        1257.978
 90 11  1  8 57 15.1370000  0  6G18G 2G19G11G16G 6
   5760878.353     4489527.048    20620690.555       -2547.186       -1984.819
  -8921582.023    -6890605.540    23730254.066        1132.135         882.184
  11093272.562     8594201.915    22408263.049       -2708.724       -2110.692
  -2084617.067    -1584363.691    24064096.764       -1039.758        -810.200
   -581215.510     -431427.983    24595714.974        -432.763        -337.213
  -3269441.595    -2389795.007    24506684.525        1614.117        1257.756
 90 11  1  8 57 30.2410000  0  6G18G 2G19G11G16G 6
   5799411.012     4519552.628    20629359.510       -2555.572       -1991.354
  -8938638.669    -6903896.610    23728345.825        1126.017         877.414
  11134201.438     8626094.170    22417384.342       -2711.350       -2112.739
  -2068833.754    -1572065.068    24068433.944       -1050.603        -818.652
   -574612.047     -426281.701    24598306.201        -442.184        -344.560
  -3293817.616    -2408789.392    24503379.484        1613.223        1257.059
 90 11  1  8 57 45.0890000  0  6G18G 2G19G11G16G 6
   5837412.256     4549164.092    20637906.984       -2563.442       -1997.487
  -8955319.060    -6916893.939    23726486.379        1120.373         873.018
  11174474.013     8657474.819    22426366.480       -2713.530       -2114.442
  -2053161.140    -1559852.135    24072730.618       -1060.902        -826.678
   -567982.186     -421116.128    24600883.869        -451.150        -351.544
  -3317769.255    -2427453.367    24500133.209        1612.709        1256.655
 90 11  1  8 58  0.1930000  0  6G18G 2G19G11G16G 6
   5876186.167     4579377.457    20646622.070       -2571.440       -2003.719
  -8972201.417    -6930049.378    23724611.969        1114.601         868.518
  11215471.912     8689421.136    22435511.185       -2715.806       -2116.212
  -2037062.484    -1547307.853    24077133.122       -1071.378        -834.840
   -561104.772     -415756.666    24603529.797        -460.210        -358.605
  -3342127.807    -2446434.105    24496837.320        1612.123        1256.199
 90 11  1  8 58 15.0410000  0  6G18G 2G19G11G16G 6
   5914419.052     4609169.198    20655212.531       -2579.377       -2009.904
  -8988715.494    -6942917.249    23722783.743        1108.840         864.031
  11255806.935     8720851.307    22444493.020       -2718.171       -2118.052
  -2021083.614    -1534857.395    24081487.136       -1081.793        -842.955
   -554210.779     -410385.038    24606157.184        -469.254        -365.652
  -3366067.073    -2465087.899    24493598.718        1611.472        1255.692
 90 11  1  8 58 30.1450000  0  6G18G 2G19G11G16G 6
   5953428.543     4639565.476    20663972.232       -2586.256       -2015.264
  -9005429.826    -6955941.582    23720942.426        1104.157         860.382
  11296868.058     8752847.283    22453649.528       -2719.311       -2118.945
  -2004675.378    -1522071.814    24085949.670       -1091.155        -850.251
   -547065.995     -404817.379    24608853.855        -477.186        -371.830
  -3390413.801    -2484059.296    24490304.929        1612.054        1256.145
 90 11  1  8 58 45.2490000  0  6G18G 2G19G11G16G 6
   5992549.311     4670049.525    20672758.816       -2594.574       -2021.746
  -9022066.250    -6968904.378    23719114.456        1098.027         855.606
  11337956.299     8784863.334    22462808.209       -2721.934       -2120.985
  -1988117.381    -1509169.146    24090437.340       -1102.000        -858.702
   -539791.693     -399149.048    24611578.564        -486.638        -379.192
  -3414762.087    -2503030.632    24786803.993        1611.141        1255.434
 90 11  1  8 59  0.0970000  0  6G18G 2G19G11G16G 6
   6031132.106     4700114.433    20681416.009       -2601.875       -2027.435
  -9038325.729    -6981575.021    23717336.974        1092.854         851.575
  11378388.847     8816369.642    22471815.915       -2723.677       -2122.342
  -1971678.367    -1496358.771    23795091.318       -1111.785        -866.326
   -532498.923     -393466.572    24614282.183        -495.048        -385.752
  -3438678.277    -2521667.082    24783568.523        1611.116        1255.416
 90 11  1  8 59 15.2010000  0  6G18G 2G19G11G16G 6
   6070492.681     4730784.566    20690244.508       -2610.552       -2034.196
  -9054787.760    -6994401.834    23715544.781        1086.361         846.516
  11419546.041     8848440.479    22480991.208       -2726.659       -2124.668
  -1954805.631    -1483211.392    23799643.428       -1122.948        -875.026
   -524951.822     -387585.989    24617059.636        -504.834        -393.371
  -3463007.358    -2540624.683    24780277.971        1609.833        1254.414
 90 11  1  8 59 30.0490000  0  6G18G 2G19G11G16G 6
   6109308.618     4761030.925    20698951.686       -2617.568       -2039.664
  -9070878.788    -7006941.006    23713803.238        1081.477         842.709
  11460044.964     8879997.658    22490013.738       -2728.123       -2125.806
  -1938058.876    -1470161.863    23804152.179       -1132.474        -882.447
   -517393.141     -381696.264    24619815.865        -512.966        -399.712
  -3486909.573    -2559249.691    24777047.764        1610.065        1254.596
 90 11  1  8 59 45.1530000  0  6G18G 2G19G11G16G 6
   6148906.207     4791885.926    20707828.464       -2626.081       -2046.296
  -9087169.099    -7019633.651    24011836.990        1075.082         837.727
  11501267.222     8912121.303    22199404.727       -2731.048       -2128.089
  -1920873.102    -1456770.171    23808760.710       -1143.556        -891.082
   -509575.891     -375604.475    24622643.455        -522.590        -407.213
  -3511221.512    -2578194.252    24773763.272        1608.900        1253.684
 90 11  1  9  0  0.2570000  0  6G18G 2G19G11G16G 6
   6188628.172     4822838.532    20716731.416       -2633.379       -2051.984
  -9103365.289    -7032253.819    24010097.062        1069.922         833.705
  11542532.693     8944275.699    22208602.130       -2732.691       -2129.367
  -1903523.742    -1443250.712    23813405.792       -1153.396        -898.751
   -501616.128     -369401.966    24625505.728        -531.030        -413.790
  -3535520.173    -2597128.289    24770486.556        1608.966        1253.741
 90 11  1  9  0 15.1050000  0  6G18G 2G19G11G16G 6
   6227787.860     4853351.727    20725503.679       -2640.524       -2057.551
  -9119209.094    -7044599.337    24008405.301        1064.863         829.763
  11583126.080     8975906.454    22217645.615       -2734.365       -2130.673
  -1886321.065    -1429846.087    23818000.232       -1163.074        -906.292
   -493664.217     -363206.120    24628337.880        -539.273        -420.215
  -3559405.395    -2615739.838    24767261.379        1609.063        1253.814
 90 11  1  9  0 30.2090000  0  6G18G 2G19G11G16G 6
   6267729.928     4884475.763    20734447.575       -2648.329       -2063.633
  -9135248.073    -7057097.940    24006694.989        1059.166         825.324
  11624442.820     9008102.109    22226854.809       -2736.529       -2132.360
  -1868674.176    -1416095.641    23822700.151       -1173.437        -914.366
   -485449.439     -356805.477    24631241.537        -548.277        -427.229
  -3583703.808    -2634673.672    24763976.329        1608.555        1253.421
 90 11  1  9  0 45.0570000  0  6G18G 2G19G11G16G 6
   6307113.652     4915164.356    20743259.682       -2656.305       -2069.847
  -9150928.683    -7069316.562    24005029.395        1053.238         820.705
  11665096.228     9039779.335    22235910.936       -2739.043       -2134.318
  -1851170.961    -1402457.084    23827351.944       -1183.950        -922.559
   -477239.474     -350407.726    24634124.168        -557.386        -434.326
  -3607579.198    -2653278.359    24760755.499        1607.747        1252.788
 90 11  1  9  1  0.1610000  0  6G18G 2G19G11G16G 6
   6347292.602     4946472.359    20752250.664       -2664.440       -2076.187
  -9166794.737    -7081679.556    24003354.330        1047.174         815.979
  11706483.046     9072028.852    22245134.732       -2741.640       -2136.343
  -1833210.511    -1388461.624    23832114.947       -1194.670        -930.913
   -468754.348     -343796.011    24637081.214        -566.662        -441.552
  -3631860.323    -2672198.208    24757478.841        1606.923        1252.145
 90 11  1  9  1 15.0090000  0  6G18G 2G19G11G16G 6
   6386914.640     4977346.385    20761115.296       -2672.307       -2082.315
  -9182298.186    -7093759.939    24001729.860        1041.342         811.435
  11747210.569     9103764.584    22254208.906       -2744.076       -2138.240
  -1815392.950    -1374577.658    23836828.549       -1205.089        -939.031
   -460271.996     -337185.718    24640019.852        -575.670        -448.571
  -3655712.674    -2690784.690    24754264.301        1606.226        1251.603
 90 11  1  9  1 30.1130000  0  6G18G 2G19G11G16G 6
   6427334.549     5008842.428    20770154.661       -2680.219       -2088.481
  -9197984.388    -7105983.080    24000091.440        1035.493         806.877
  11788672.464     9136072.546    22263442.594       -2746.446       -2140.090
  -1797114.787    -1360335.046    23841653.122       -1215.594        -947.217
   -451510.608     -330358.946    24643037.058        -584.743        -455.645
  -3679971.340    -2709687.324    24750994.838        1605.615        1251.126
 90 11  1  9  1 45.2170000  0  6G18G 2G19G11G16G 6
   6467869.440     5040430.633    20479424.847       -2687.420       -2094.093
  -9213583.737    -7118138.774    23998472.274        1030.318         802.844
  11830168.992     9168407.441    22272686.251       -2748.121       -2141.392
  -1778678.349    -1345969.564    23846508.401       -1225.409        -954.865
   -442614.111     -323426.365    24646076.615        -593.149        -462.195
  -3704221.144    -2728583.670    24747728.193        1605.668        1251.173
 90 11  1  9  2  0.0650000  0  6G18G 2G19G11G16G 6
   6507826.135     5071565.206    20488351.021       -2694.889       -2099.913
  -9228843.757    -7130029.330    23996891.246        1024.850         798.584
  11870985.707     9200212.806    22281774.264       -2750.164       -2142.983
  -1760411.368    -1331734.748    23851314.816       -1235.444        -962.684
   -433744.856     -316515.401    24649091.394        -601.756        -468.903
  -3728062.174    -2747160.717    24744514.141        1605.353        1250.921
 90 11  1  9  2 15.1690000  0  6G18G 2G19G11G16G 6
   6548589.430     5103328.623    20497456.505       -2702.283       -2105.675
  -9244279.056    -7142056.624    23995303.111        1019.459         794.383
  11912542.825     9232594.674    22291030.994       -2752.085       -2144.479
  -1741671.116    -1317132.652    23856225.386       -1245.474        -970.500
   -424586.678     -309379.837    24652181.665        -610.362        -475.610
  -3752304.685    -2766050.845    24741251.406        1605.194        1250.801
 90 11  1  9  2 30.0170000  0  6G18G 2G19G11G16G 6
   6588776.718     5134643.371    20506429.828       -2710.538       -2112.107
  -9259367.181    -7153813.491    23993757.035        1013.191         789.500
  11953428.902     9264454.377    22300137.175       -2754.943       -2146.705
  -1723095.799    -1302658.078    23861085.293       -1256.316        -978.948
   -415451.803     -302261.589    24655247.362        -619.774        -482.939
  -3776127.576    -2784614.048    24738043.120        1604.046        1249.908
 90 11  1  9  2 45.1210000  0  6G18G 2G19G11G16G 6
   6629771.296     5166587.285    20515580.810       -2717.569       -2117.586
  -9274630.210    -7165707.284    23992202.570        1008.159         785.579
  11995053.415     9296888.798    22309412.731       -2756.554       -2147.963
  -1704045.579    -1287813.613    23866062.068       -1265.969        -986.469
   -406026.633     -294917.172    24658385.543        -627.988        -489.337
  -3800354.005    -2803492.786    24734783.797        1604.229        1250.051
 90 11  1  9  3  0.2250000  0  6G18G 2G19G11G16G 6
   6670885.842     5198624.411    20524755.909       -2725.322       -2123.627
  -9289804.482    -7177531.295    23990668.247        1002.376         781.071
  12036715.218     9329352.010    22318683.024       -2758.841       -2149.741
  -1684836.877    -1272845.479    23871067.127       -1276.384        -994.583
   -396464.533     -287466.103    24661558.831        -636.977        -496.344
  -3824571.543    -2822362.688    24731525.105        1603.692        1249.632
 90 11  1  9  3 15.0730000  0  6G18G 2G19G11G16G 6
   6711414.523     5230205.180    20533798.077       -2732.771       -2129.432
  -9304638.444    -7189090.472    23989173.078         996.871         776.782
  12077701.672     9361289.849    22327820.346       -2760.933       -2151.374
  -1665802.439    -1258013.768    23876017.412       -1286.420       -1002.404
   -386935.127     -280040.117    24664703.946        -645.575        -503.045
  -3848372.052    -2840908.781    24728326.315        1603.299        1249.323
 90 11  1  9  3 30.1770000  0  6G18G 2G19G11G16G 6
   6752753.490     5262417.510    20543016.394       -2740.889       -2135.758
  -9319646.488    -7200785.091    23987670.348         990.660         771.942
  12119426.084     9393801.704    22337113.162       -2763.675       -2153.512
  -1646288.927    -1242808.231    23881085.681       -1297.249       -1010.843
   -377110.737     -272385.400    24667923.548        -654.983        -510.373
  -3872579.545    -2859771.344    24725071.268        1602.340        1248.575
 90 11  1  9  3 45.0250000  0  6G18G 2G19G11G16G 6
   6793508.466     5294174.703    20552102.118       -2748.362       -2141.581
  -9334312.604    -7212213.008    23986207.836         985.119         767.625
  12160479.704     9425791.589    22346254.825       -2765.836       -2155.194
  -1626949.848    -1227738.980    23886097.562       -1307.317       -1018.689
   -367318.845     -264755.302    24671118.205        -663.628        -517.112
  -3896365.025    -2878306.032    24721876.409        1601.928        1248.255
 90 11  1  9  4  0.1290000  0  6G18G 2G19G11G16G 6
   6835070.324     5326560.189    20561362.667       -2755.236       -2146.937
  -9349155.856    -7223779.438    23984737.103         980.155         763.756
  12202263.809     9458350.759    22355559.350       -2767.312       -2156.343
  -1607133.562    -1212297.708    23891221.894       -1316.880       -1026.141
   -357236.341     -256898.463    24674388.630        -671.726        -523.419
  -3920563.801    -2897162.405    24718624.879        1602.187        1248.458
 90 11  1  9  4 15.2330000  0  6G18G 2G19G11G16G 6
   6876735.019     5359026.357    20570642.137       -2762.456       -2152.563
  -9363925.342    -7235287.937    23983277.487         974.862         759.632
  12244070.312     9490927.292    22364864.899       -2769.114       -2157.747
  -1587172.899    -1196744.473    23896366.996       -1326.771       -1033.848
   -347031.309     -248947.302    24677684.126        -680.166        -529.996
  -3944768.000    -2916023.087    24715366.947        1602.128        1248.409
 90 11  1  9  4 30.0810000  0  6G18G 2G19G11G16G 6
   6917804.762                    20579787.435       -2769.780
  -9378360.645    -7246536.056    23981858.224         969.403         755.379
  12285200.459                    22374018.941       -2771.211
  -1567400.922    -1181337.221    23901460.229       -1336.742       -1041.617
   -336871.046     -241029.237    24680944.587        -688.715        -536.656
  -3968556.041    -2934558.538    24712170.299        1601.814        1248.167
 90 11  1  9  4 45.1850000  0  6G18G 2G19G11G16G 6
   6959694.622                    20589110.385       -2777.143
  -9392961.099    -7257913.437    23980430.453         963.902         751.093
  12327071.966                    22383336.600       -2773.228
  -1547135.091    -1165545.987    23906666.055       -1346.819       -1049.470
   -326403.232     -232873.286    24684287.966        -697.312        -543.370
  -3992748.422    -2953409.635    24708917.969        1601.526        1247.946
 90 11  1  9  5  0.0330000  0  6G18G 2G19G11G16G 6
   7000980.972     5455841.526    20598294.424       -2784.811       -2169.982
  -9407235.764    -7269036.143    23979044.681         958.097         746.568
  12368261.165                    22392505.899       -2775.646
  -1527066.316    -1149907.805    23911815.569       -1357.141       -1057.512
   -315988.970     -224758.251    24687595.719        -706.206        -550.289
  -4016527.527    -2971939.483    24705722.154        1600.867        1247.428
 90 11  1  9  5 15.1370000  0  6G18G 2G19G11G16G 6
   7043100.774     5488661.310    20607662.968       -2792.373       -2175.875
  -9421663.939    -7280278.973    23977650.430         952.397         742.128
  12410202.279                    22401840.774       -2777.911
  -1506489.776    -1133874.673    23917082.608       -1367.400       -1065.506
   -305255.542     -216394.684    24690992.180        -715.004        -557.145
  -4040704.286    -2990778.236    24702474.834        1600.376        1247.054
 90 11  1  9  5 30.2410000  0  6G18G 2G19G11G16G 6
   7085334.794     5521570.969    20617054.532       -2799.506       -2181.433
  -9436004.937    -7291453.594    23976275.930         947.119         738.015
  12452177.399        7605.943    22411187.984       -2779.729       -2166.021
  -1485758.007    -1117719.763    23922382.217       -1377.269       -1073.197
   -294388.889     -207926.617    24694412.875        -723.424        -563.697
  -4064871.678    -3009610.104    24699231.400        1600.323        1247.005
 90 11  1  9  5 45.0890000  0  6G18G 2G19G11G16G 6
   7126955.708     5554003.014    20626305.317       -2806.454       -2186.847
  -9450026.593    -7302379.800    23974940.354         941.972         734.003
  12493467.559       39779.244    22420369.836       -2781.495       -2167.395
  -1465233.951    -1101727.284    23927619.877       -1386.892       -1080.695
   -283583.565     -199506.954    24697803.054        -731.623        -570.098
  -4088630.217    -3028123.308    24696040.354        1600.302        1246.990
 90 11  1  9  6  0.1930000  0  6G18G 2G19G11G16G 6
   7169401.460     5587077.590    20635735.939       -2814.061       -2192.775
  -9464211.528    -7313432.970    23973593.665         936.177         729.488
  12535496.311       72529.169    22429724.601       -2783.854       -2169.236
  -1444209.711    -1085343.867    23932975.144       -1397.231       -1088.751
   -272466.035     -190844.629    24701271.838        -740.505        -577.014
  -4112798.412    -3046955.087    24692794.352        1599.746        1246.555
 90 11  1  9  6 15.0410000  0  6G18G 2G19G11G16G 6
   7211238.031     5619677.715    20645025.940       -2821.832       -2198.830
  -9478071.409    -7324232.875    23972287.347         930.177         724.812
  12576846.354      104749.688    22438922.205       -2786.462       -2171.271
  -1423389.111    -1069120.942    23938266.250       -1407.716       -1096.922
   -261408.487     -182228.292    24704706.361        -749.560        -584.071
  -4136548.917    -3065462.253    24689605.228        1598.890        1245.888
 90 11  1  9  6 30.1450000  0  6G18G 2G19G11G16G 6
   7253914.566     5652932.393    20654504.712       -2829.133       -2204.519
  -9492078.707    -7335147.178    23970976.161         924.670         720.521
  12618949.863      137557.551    22448296.068       -2788.605       -2172.942
  -1402050.835    -1052493.435    23943682.549       -1417.760       -1104.748
   -250022.036     -173355.504    24708229.506        -758.116        -590.742
  -4160695.211    -3084277.890    24686364.789        1598.592        1245.652
 90 11  1  9  6 45.2490000  0  6G18G 2G19G11G16G 6
   7296707.472     5686276.853    20664005.188       -2837.040       -2210.681
  -9505996.495    -7345992.688    23969685.668         918.549         715.752
  12661090.152      170393.911    22457664.482       -2791.229       -2174.986
  -1380555.093    -1035743.390    23949128.856       -1428.429       -1113.062
   -238501.411     -164378.215    24711778.297        -767.285        -597.882
  -4184831.887    -3103085.759    24683130.362        1597.696        1244.960
 90 11  1  9  7  0.0970000  0  6G18G 2G19G11G16G 6
   7338887.821     5719144.627    20673367.356       -2843.650       -2215.831
  -9519592.116    -7356586.967    23968435.418         913.690         711.967
  12702551.720      202702.393    22466895.866       -2792.714       -2176.139
  -1359269.706    -1019157.167    23954517.995       -1437.733       -1120.312
   -227043.423     -155449.605    24715297.542        -775.161        -604.024
  -4208550.177    -3121566.835    24679951.512        1597.944        1245.153
 90 11  1  9  7 15.2010000  0  6G18G 2G19G11G16G 6
   7381903.647     5752663.349    20682913.193       -2851.761       -2222.150
  -9533340.391    -7367299.641    23967176.414         907.331         707.011
  12744759.332      235591.196    22476282.367       -2795.655       -2178.431
  -1337467.432    -1002168.835    23960026.906       -1448.627       -1128.800
   -215259.623     -146267.932    24718894.515        -784.579        -611.351
  -4232672.477    -3140364.076    24676719.983        1596.817        1244.272
 90 11  1  9  7 30.0500000  0  6G18G 2G19G11G16G 6
   7424309.050     5785706.593    20392525.634       -2859.506       -2228.186
  -9546766.836    -7377761.352    23666168.765         901.294         702.307
  12786295.220      267956.351    22185729.394       -2798.342       -2180.524
  -1315877.055     -985345.032    23665674.152       -1459.095       -1136.958
   -203540.384     -137135.563    24422671.938        -793.583        -618.385
  -4256374.288    -3158833.133    24373758.890        1595.889        1243.548
 90 11  1  9  7 45.1540000  0  6G18G 2G19G11G16G 6
   7467552.178     5819402.814    20402118.164       -2866.244       -2233.437
  -9560339.129    -7388337.799    23664946.463         896.286         698.405
  12828574.444      300901.874    22195132.474       -2799.898       -2181.737
  -1293764.703     -968114.514    23671247.173       -1468.615       -1144.375
   -191490.695     -127746.924    24426325.819        -801.631        -624.641
  -4280478.032    -3177615.145    24370531.181        1596.100        1243.711
 90 11  1  9  8  0.2580000  0  6G18G 2G19G11G16G 6
   7510906.553     5853185.201    20411729.308       -2874.186       -2239.625
  -9573827.763    -7398847.778    23663741.479         890.036         693.534
  12870888.788      333873.175    22204554.178       -2802.735       -2183.946
  -1271498.609     -950764.986    23676846.399       -1479.352       -1152.742
   -179310.222     -118255.733    24430004.708        -810.866        -631.845
  -4304575.892    -3196392.542    24367305.977        1595.086        1242.925
 90 11  1  9  8 15.1060000  0  6G18G 2G19G11G16G 6
   7553638.780     5886482.339    20421201.864       -2882.136       -2245.819
  -9586999.350    -7409112.030    23662575.649         883.777         688.658
  12912521.900      366314.752    22213816.302       -2805.636       -2186.208
  -1249457.789     -933589.744    23682381.188       -1490.053       -1161.080
   -167205.561     -108822.820    24433650.471        -820.148        -639.071
  -4328254.324    -3214843.467    24364140.624        1593.941        1242.031
 90 11  1  9  8 30.2100000  0  6G18G 2G19G11G16G 6
   7597226.302     5920447.011    20430859.987       -2888.716       -2250.947
  -9600303.982    -7419479.315    23661409.502         878.861         684.827
  12954916.663      399349.351    22223246.964       -2807.102       -2187.354
  -1226873.876     -915992.265    23688040.559       -1499.439       -1168.395
   -154751.764      -99118.649    24437385.226        -828.073        -645.254
  -4352325.011    -3233599.715    24360926.512        1594.252        1242.273
 90 11  1  9  8 45.0580000  0  6G18G 2G19G11G16G 6
   7640179.685     5953916.694    20440377.227       -2896.559       -2257.058
  -9613305.430    -7429609.680    23660276.824         872.692         680.019
  12996619.913      431845.694    22232520.696       -2809.979       -2189.594
  -1204528.497     -898580.115    23693637.224       -1510.040       -1176.654
   -142385.982      -89483.325    24441081.219        -837.160        -652.336
  -4375984.992    -3252036.234    24357764.982        1593.163        1241.424
 90 11  1  9  9  0.1620000  0  6G18G 2G19G11G16G 6
   7683980.312     5988047.116    20450076.778       -2903.908       -2262.786
  -9626447.190    -7439850.807    23659141.817         866.994         675.580
  13039074.955      464927.498    22241970.016       -2812.254       -2191.368
  -1181648.423     -880751.940    23699357.881       -1520.219       -1184.586
   -129679.827      -79582.183    24444864.379        -845.873        -659.124
  -4400048.589    -3270787.266    24354551.519        1592.668        1241.041
 90 11  1  9  9 15.0100000  0  6G18G 2G19G11G16G 6
   7727142.132     6021679.574    20459633.369       -2910.694       -2268.074
  -9639288.223    -7449856.783    23658041.278         861.825         671.552
  13080836.056      497470.316    21951465.500       -2814.077       -2192.785
  -1159011.881     -863112.873    23705007.953       -1529.760       -1192.021
   -117065.863      -69753.780    24448604.289        -853.971        -665.429
  -4423702.360    -3289218.913    24351393.444        1592.611        1240.993
 90 11  1  9  9 30.1140000  0  6G18G 2G19G11G16G 6
   7771162.840     6055981.410    20469376.488       -2918.420       -2274.093
  -9652259.954    -7459964.670    23656939.533         855.757         666.821
  13123358.961      530604.764    21960928.592       -2816.722       -2194.846
  -1135828.217     -845046.963    23710786.623       -1540.280       -1200.219
   -104101.636      -59650.052    24152648.141        -863.008        -672.475
  -4447751.653    -3307958.659    24348184.722        1591.765        1240.340
 90 11  1  9  9 45.2180000  0  6G18G 2G19G11G16G 6
   7815301.282     6090374.932    20479147.069       -2926.224       -2280.174
  -9665139.209    -7469999.751    23655857.630         849.558         661.993
  13165922.992      563771.958    21970396.151       -2819.500       -2197.012
  -1112482.840     -826856.153    23716598.966       -1550.938       -1208.523
    -90996.823      -49439.388    24156514.804        -872.166        -679.625
  -4471786.766    -3326686.611    24344980.131        1590.775        1239.562
 90 11  1  9 10  0.0660000  0  6G18G 2G19G11G16G 6
   7858797.474     6124267.970    20488771.387       -2933.193       -2285.604
  -9677716.853    -7479801.329    23654811.507         844.162         657.789
  13207798.164      596401.734    21979715.618       -2821.552       -2198.615
  -1089386.459     -808858.836    23722339.933       -1560.704       -1216.133
    -77990.052      -39303.621    24160335.343        -880.485        -686.086
  -4495408.109    -3345093.123    24341833.232        1590.475        1239.330
 90 11  1  9 10 15.1700000  0  6G18G 2G19G11G16G 6
   7903161.195     6158837.091    20498584.700       -2941.229       -2291.866
  -9690419.671    -7489699.007    23653767.656         837.711         652.762
  13250437.454      629627.524    21989199.145       -2824.624       -2201.002
  -1065732.013     -790426.854    23728212.956       -1571.593       -1224.618
    -64620.496      -28885.980    24164248.068        -889.879        -693.407
  -4519421.906    -3363805.078    24338635.701        1589.221        1238.354
 90 11  1  9 10 30.0180000  0  6G18G 2G19G11G16G 6
   7946882.784     6192905.580    20508256.692       -2948.259       -2297.344
  -9702819.652    -7499361.178    23652759.044         832.245         648.503
  13292391.676      662318.713    21998534.108       -2826.779       -2202.686
  -1042325.403     -772188.296    23734017.829       -1581.423       -1232.276
    -51348.216      -18543.901    24168125.475        -898.237        -699.914
  -4543017.603    -3382191.588    24335496.443        1588.849        1238.063
 90 11  1  9 10 45.1220000  0  6G18G 2G19G11G16G 6
   7991473.934     6227652.359    20518118.903       -2956.551       -2303.805
  -9715339.828    -7509117.549    23651751.732         825.525         643.266
  13335110.615      695606.150    22008041.312       -2830.089       -2205.261
  -1018357.529     -753511.920    23739955.839       -1592.573       -1240.967
    -37710.041       -7916.826    24172099.213        -907.886        -707.453
  -4567005.886    -3400883.731    24332307.041        1587.328        1236.880
 90 11  1  9 11  0.2260000  0  6G18G 2G19G11G16G 6
   8036181.960     6262491.742    20228210.843       -2963.750       -2309.416
  -9727765.278    -7518799.524    23650764.257         819.896         638.879
  13377873.775      728928.569    22017556.709       -2832.335       -2207.010
   -994226.391     -734708.075    23745927.303       -1602.626       -1248.798
    -23932.049        2819.437    24176099.010        -916.437        -714.104
  -4590976.173    -3419562.087    24329122.880        1586.871        1236.524
 90 11  1  9 11 15.0740000  0  6G18G 2G19G11G16G 6
   8080240.883     6296823.208    20237950.173       -2970.970       -2315.042
  -9739897.572    -7528253.261    23649812.390         814.172         634.418
  13419945.473      761711.215    22026914.911       -2834.698       -2208.856
   -970356.311     -716108.816    23751824.040       -1612.669       -1256.625
    -10262.074       13471.220    24180056.605        -924.996        -720.779
  -4614534.573    -3437919.136    24325998.628        1586.282        1236.061
 90 11  1  9 11 30.1780000  0  6G18G 2G19G11G16G 6
   8125161.561     6331826.922    20247878.010       -2977.572       -2320.186
  -9752158.457    -7537807.198    23648859.242         809.070         630.443
  13462772.008      795082.359    22036448.107       -2836.445       -2210.216
   -945929.801     -697074.403    23757852.070       -1622.160       -1264.020
      3767.887       24403.419    24184105.592        -933.035        -727.033
  -4638496.096    -3456590.617    24322816.371        1586.354        1236.118
 90 11  1  9 11 45.0260000  0  6G18G 2G19G11G16G 6
   8169428.284     6366320.165    20257659.295       -2985.544       -2326.397
  -9764126.913    -7547133.468    23647937.929         802.572         625.381
  13504907.726      827914.749    22045821.306       -2839.571       -2212.652
   -921766.231     -678246.132    23763804.971       -1632.964       -1272.439
     17687.016       35249.391    24188110.301        -942.325        -734.278
  -4662043.590    -3474939.149    24319693.314        1584.959        1235.031
 90 11  1  9 12  0.1300000  0  6G18G 2G19G11G16G 6
   8214572.889     6401497.844    20267631.808       -2991.942       -2331.383
  -9776210.029    -7556548.701    23647021.101         797.703         621.586
  13547810.233      861345.584    22055363.526       -2841.083       -2213.828
   -897029.846     -658970.969    23769896.881       -1642.248       -1279.673
     31980.644       46387.502    24192213.382        -950.084        -740.322
  -4685983.015    -3493593.009    24316520.021        1585.247        1235.259
 90 11  1  9 12 15.2340000  0  6G18G 2G19G11G16G 6
   8259819.650     6436754.887    20277623.145       -2999.294       -2337.111
  -9788213.303    -7565901.889    23646118.592         791.834         617.013
  13590741.560      894798.972    22064914.396       -2843.619       -2215.808
   -872147.228     -639581.596    23776013.223       -1652.488       -1287.653
     46398.286       57621.594    24196340.538        -958.828        -747.145
  -4709920.065    -3512245.812    24313345.989        1584.559        1234.723
 90 11  1  9 12 30.0820000  0  6G18G 2G19G11G16G 6
   8304408.954     6471499.897    20287468.503       -3006.533       -2342.752
  -9799925.655    -7575028.123    23645250.973         786.032         612.492
  13632983.307      927714.368    22074317.969       -2846.050       -2217.702
   -847534.173     -620402.669    23782056.409       -1662.591       -1295.525
     60700.694       68766.555    24200420.321        -967.451        -753.857
  -4733440.982    -3530573.507    24310231.711        1583.855        1234.171
 90 11  1  9 12 45.1860000  0  6G18G 2G19G11G16G 6
   8349873.669     6506926.349    20297505.494       -3013.521       -2348.197
  -9811754.730    -7584245.772    23644383.914         780.494         608.177
  13675988.241      961224.205    22083883.368       -2848.237       -2219.408
   -822346.551     -600776.247    23788237.825       -1672.490       -1303.239
     75376.498       80202.866    24204598.617        -975.831        -760.390
  -4757359.731    -3549211.731    24307062.862        1583.470        1233.874
 90 11  1  9 13  0.0340000  0  6G18G 2G19G11G16G 6
   8394670.376     6541832.772    20307390.089       -3020.222       -2353.419
  -9823302.576    -7593244.016    23643546.442         775.218         604.064
  13718295.889      994191.136    22093296.084       -2850.210       -2220.942
   -797440.814     -581369.441    23794335.153       -1682.056       -1310.691
     89928.285       91541.095    24208728.385        -983.914        -766.682
  -4780868.591    -3567529.756    24303950.864        1583.289        1233.730
 90 11  1  9 13 15.1380000  0  6G18G 2G19G11G16G 6
   8440341.720     6577420.541    20317464.214       -3027.271       -2358.912
  -9834968.487    -7602334.726    23642712.082         769.605         599.692
  13761362.576     1027749.984    22102868.931       -2852.478       -2222.705
   -771959.645     -561513.413    23800569.821       -1692.035       -1318.469
    104853.546      103171.237    24212950.106        -992.412        -773.306
  -4804778.525    -3586161.018    24300785.652        1582.818        1233.369
 90 11  1  9 13 30.2420000  0  6G18G 2G19G11G16G 6
   8486114.973     6613088.759    20327562.507       -3034.688       -2364.692
  -9846552.662    -7611361.617    23641891.828         763.605         595.016
  13804460.613     1061332.598    22112457.774       -2855.134       -2224.780
   -746330.171     -541543.043    23806828.606       -1702.384       -1326.533
    119903.062      114898.351    24217203.309       -1001.207        -780.156
  -4828684.596    -3604789.466    24297621.910        1581.990        1232.719
 90 11  1  9 13 45.0900000  0  6G18G 2G19G11G16G 6
   8531225.853     6648239.387    20337507.764       -3042.363       -2370.672
  -9857850.183    -7620164.721    23641105.304         757.295         590.101
  13846869.826     1094378.628    22121894.266       -2858.129       -2227.108
   -720981.729     -521790.293    23813021.297       -1712.947       -1334.763
    134829.992      126529.717    24221406.784       -1010.270        -787.212
  -4852171.360    -3623090.633    24294516.791        1580.763        1231.768
 90 11  1  9 14  0.1940000  0  6G18G 2G19G11G16G 6
   8577214.170     6684074.725    20347644.611       -3047.842       -2374.942
  -9869261.899    -7629056.656    23640320.948         753.200         586.908
  13890040.952     1128018.315    22131500.732       -2858.845       -2227.673
   -695049.474     -501583.883    23819342.979       -1721.340       -1341.304
    150136.971      138457.226    24225705.978       -1017.146        -792.583
  -4876059.384    -3641704.739    24291357.771        1581.832        1232.599
 90 11  1  9 14 15.0420000  0  6G18G 2G19G11G16G 6
   8622530.028     6719385.602    20357634.443       -3055.524       -2380.929
  -9880394.150    -7637731.180    23639568.773         746.880         581.984
  13932515.689     1161115.310    22140940.938       -2861.887       -2230.038
   -669408.371     -481603.830    23825582.492       -1731.916       -1349.545
    165311.465      150281.345    24229957.245       -1026.257        -799.670
  -4899532.680    -3659995.546    24288256.121        1580.560        1231.605
 90 11  1  9 14 30.1460000  0  6G18G 2G19G11G16G 6
   8668728.157     6755384.002    20367816.505       -3062.016       -2385.986
  -9891637.932    -7646492.636    23638816.557         741.746         577.984
  13975753.017     1194807.083    22150561.084       -2863.657       -2231.417
   -643179.850     -461166.159    23831966.653       -1741.321       -1356.873
    180870.087      162405.062    24234306.445       -1034.183        -805.858
  -4923407.197    -3678599.527    24285100.413        1580.598        1231.637
 90 11  1  9 14 45.2500000  0  6G18G 2G19G11G16G 6
   8715026.816     6791460.653    20378015.233       -3068.735       -2391.222
  -9902801.735    -7655191.910    23638081.264         736.362         573.788
  14019020.023     1228521.595    22160181.972       -2865.709       -2233.018
   -616806.668     -440615.757    23838370.034       -1751.021       -1364.433
    196550.396      174623.112    24238679.381       -1042.333        -812.202
  -4947279.665    -3697201.776    24281946.641        1580.360        1231.449
 90 11  1  9 15  0.0980000  0  6G18G 2G19G11G16G 6
   8760640.104     6827003.771    20388060.409       -3075.812       -2396.735
  -9913695.969    -7663680.752    23637372.582         730.576         569.280
  14061585.285     1261689.218    22169644.108       -2868.219       -2234.979
   -590737.021     -420301.494    23844695.137       -1761.024       -1372.228
    212085.737      186729.033    24243002.438       -1050.798        -818.808
  -4970743.418    -3715484.548    24578637.927        1579.634        1230.884
 90 11  1  9 15 15.2020000  0  6G18G 2G19G11G16G 6
   8807151.110     6863245.867    20398299.730       -3083.033       -2402.364
  -9924687.517    -7672245.221    23636670.598         724.673         564.679
  14104925.426     1295460.565    22179281.532       -2870.745       -2236.941
   -564062.824     -399516.220    23851162.636       -1771.193       -1380.151
    228021.572      199146.135    24247423.668       -1059.459        -825.552
  -4994598.482    -3734072.262    24575489.710        1578.878        1230.296
 90 11  1  9 15 30.0500000  0  6G18G 2G19G11G16G 6
   8852982.079     6898958.183    20408388.652       -3089.865       -2407.688
  -9935402.625    -7680594.778    23636001.975         719.143         560.371
  14147571.121     1328690.777    22188774.574       -2873.037       -2238.729
   -537687.952     -378964.718    23857550.385       -1780.931       -1387.739
    243817.184      211454.166    24251796.652       -1067.732        -832.005
  -5018034.624    -3752334.019    24572398.319        1578.367        1229.893
 90 11  1  9 15 45.1540000  0  6G18G 2G19G11G16G 6
   8899708.563     6935368.224    20418675.804       -3097.069       -2413.301
  -9946217.168    -7689021.956    23635336.442         713.224         555.758
  14190987.847     1362521.556    22198418.549       -2875.644       -2240.752
   -510709.486     -357942.470    23864079.116       -1791.117       -1395.675
    260011.134      224073.317    24256271.413       -1076.369        -838.722
  -5041866.535    -3770903.948    24569256.888        1577.592        1229.292
 90 11  1  9 16  0.2580000  0  6G18G 2G19G11G16G 6
   8946535.413     6971856.672    20428979.786       -3103.404       -2418.237
  -9956951.134    -7697385.962    23634687.351         708.177         551.826
  14234434.531     1396376.574    22208085.177       -2877.330       -2242.076
   -483585.098     -336806.543    23870633.924       -1800.391       -1402.902
    276327.913      236787.833    24260770.288       -1084.111        -844.762
  -5065693.843    -3789470.990    24566115.046        1577.685        1229.366
 90 11  1  9 16 15.1060000  0  6G18G 2G19G11G16G 6
   8992666.663     7007803.255    20439128.993       -3110.035       -2423.404
  -9967422.809    -7705545.983    23634064.099         702.771         547.613
  14277175.909     1429681.135    22217586.509       -2879.501       -2243.761
   -456778.942     -315918.865    23877106.790       -1809.981       -1410.375
    292487.645      249379.677    24265217.837       -1092.143        -851.022
  -5089114.165    -3807720.449    24563028.542        1577.324        1229.084
 90 11  1  9 16 30.2100000  0  6G18G 2G19G11G16G 6
   9039693.840     7044447.634    20449471.744       -3116.893       -2428.747
  -9977993.565    -7713783.073    23633446.492         697.136         543.221
  14320686.474     1463585.239    22227266.622       -2881.785       -2245.538
   -429365.343     -294557.597    23883714.605       -1819.854       -1418.067
    309047.843      262284.003    24269763.949       -1100.554        -857.578
  -5112932.546    -3826280.494    24559889.091        1576.823        1228.691
 90 11  1  9 16 45.0580000  0  6G18G 2G19G11G16G 6
   9086029.586     7080553.305    20459660.346       -3124.545       -2434.710
  -9988298.492    -7721812.186    23632858.345         690.722         538.224
  14363498.025     1496945.309    22236788.461       -2884.956       -2248.016
   -402265.890     -273441.067    23890241.168       -1830.439       -1426.316
    325455.739      275069.006    24274255.847       -1109.597        -864.613
  -5136335.746    -3844516.096    24556811.338        1575.425        1227.605
 90 11  1  9 17  0.1620000  0  6G18G 2G19G11G16G 6
   9133262.053     7117357.903    20470044.181       -3130.225       -2439.136
  -9998700.784    -7729918.100    23632275.347         686.242         534.733
  14407077.694     1530903.033    22246475.337       -2886.130       -2248.928
   -374559.602     -251850.420    23597118.633       -1839.105       -1433.069
    342265.663      288167.552    24278852.115       -1116.722        -870.174
  -5160139.324    -3863064.429    24553675.502        1576.067        1228.104
 90 11  1  9 17 15.0100000  0  6G18G 2G19G11G16G 6
   9179796.011     7153617.528    20480273.430       -3137.092       -2444.486
 -10008842.581    -7737821.429    23631718.530         680.572         530.316
  14449953.122     1564312.713    22255999.373       -2888.521       -2250.797
   -347174.904     -230511.274    23603702.257       -1848.933       -1440.728
    358913.409      301139.800    24283393.496       -1125.008        -876.637
  -5183530.648    -3881291.978    24550596.861        1575.411        1227.597
 90 11  1  9 17 30.1140000  0  6G18G 2G19G11G16G 6
   9227222.892     7190573.557    20490694.101       -3143.743       -2449.670
 -10019086.840    -7745803.807    23631164.217         675.133         526.078
  14493592.252     1598316.806    22265699.559       -2890.639       -2252.445
   -319181.300     -208698.380    23610426.443       -1858.596       -1448.256
    375960.837      314423.894    24288033.342       -1133.158        -882.977
  -5207329.038    -3899836.088    24547462.976        1575.050        1227.311
 90 11  1  9 17 45.2180000  0  6G18G 2G19G11G16G 6
   9274756.727     7227612.801    20501137.340       -3150.596       -2455.009
 -10029242.468    -7753716.768    23630629.723         669.448         521.647
  14537269.589     1632351.316    22275414.213       -2893.051       -2254.324
   -291035.154     -186766.684    23617177.630       -1868.450       -1455.936
    393138.750      327808.936    24292700.086       -1141.506        -889.483
  -5231115.675    -3918370.655    24544336.847        1574.487        1226.873
 90 11  1  9 18  0.0660000  0  6G18G 2G19G11G16G 6
   9321572.361     7264092.144    20511415.050       -3156.299       -2459.454
 -10039156.088    -7761441.586    23630113.052         664.883         518.089
  14580228.442     1665825.427    22284961.948       -2894.351       -2255.329
   -263235.298     -165104.639    23623843.682       -1877.119       -1462.691
    410133.617      341051.952    24297303.310       -1148.664        -895.061
  -5254503.502    -3936595.634    24541256.858        1574.931        1227.221
 90 11  1  9 18 15.1700000  0  6G18G 2G19G11G16G 6
   9369299.121     7301282.112    20521896.788       -3163.090       -2464.745
 -10049152.884    -7769231.120    23629606.097         659.231         513.686
  14623965.103     1699905.605    22294675.272       -2896.733       -2257.197
   -234806.243     -142952.183    23630645.677       -1886.944       -1470.347
    427548.201      354621.857    24302013.427       -1156.929        -901.500
  -5278283.842    -3955125.984    24538126.244        1574.375        1226.786
 90 11  1  9 18 30.0180000  0  6G18G 2G19G11G16G 6
   9416310.494     7337914.476    20532211.855       -3169.826       -2469.995
 -10058902.648    -7776829.013    23629125.782         653.594         509.293
  14666986.429     1733431.051    22004443.277       -2899.122       -2259.048
   -206721.272     -121067.138    23637363.887       -1896.664       -1477.920
    444783.640      368051.911    24306662.323       -1165.137        -907.897
  -5301660.069    -3973340.471    24535051.617        1573.740        1226.291
 90 11  1  9 18 45.1220000  0  6G18G 2G19G11G16G 6
   9464231.674     7375255.316    20542730.618       -3175.813       -2474.660
 -10068739.589    -7784494.356    23628650.774         648.741         505.512
  14710784.864     1767559.386    22014177.670       -2900.668       -2260.250
   -178007.272      -98693.356    23644227.445       -1905.664       -1484.933
    462436.705      381807.570    24311420.783       -1172.632        -913.743
  -5325433.738    -3991865.309    24531923.878        1573.989        1226.484
 90 11  1  9 19  0.2260000  0  6G18G 2G19G11G16G 6
   9512246.403     7412669.875    20553261.653       -3181.637       -2479.197
 -10078498.926    -7792098.949    23628189.755         644.021         501.834
  14754611.222     1801709.850    22023908.634       -2902.078       -2261.356
   -149153.444      -76209.743    23651114.030       -1914.519       -1491.833
    480207.024      395654.313    24316201.474       -1179.940        -919.434
  -5349205.238    -4010389.014    24528798.349        1574.354        1226.771
 90 11  1  9 19 15.0740000  0  6G18G 2G19G11G16G 6
   9559535.145     7449517.950    20563632.419       -3187.787       -2483.989
 -10088022.446    -7799519.107    23627747.825         638.936         497.871
  14797716.940     1835298.737    22033476.673       -2903.954       -2262.822
   -120657.440      -54004.645    23657906.143       -1923.661       -1498.957
    497785.348      409351.258    24320919.135       -1187.547        -925.360
  -5372578.656    -4028601.830    24525720.531        1574.247        1226.688
 90 11  1  9 19 30.1780000  0  6G18G 2G19G11G16G 6
   9607729.243     7487073.793    20274406.325       -3194.581       -2489.285
 -10097632.156    -7807006.994    23627312.981         633.223         493.419
  14841594.074     1869488.432    22043219.532       -2906.355       -2264.691
    -91529.929      -31308.326    23664843.472       -1933.518       -1506.638
    515782.142      423374.810    24325734.849       -1195.875        -931.847
  -5396353.888    -4047127.967    24522590.196        1573.576        1226.162
 90 11  1  9 19 45.0260000  0  6G18G 2G19G11G16G 6
   9655218.337     7524078.898    20284817.085       -3201.607       -2494.760
 -10106984.805    -7814295.589    23626908.481         627.224         488.745
  14884772.691     1903134.495    22052811.119       -2909.141       -2266.857
    -62743.241       -8876.472    23671695.611       -1943.529       -1514.439
    533605.026      437263.536    24330498.592       -1204.331        -938.442
  -5419706.996    -4065325.331    24519521.012        1572.594        1225.398
 90 11  1  9 20  0.1300000  0  6G18G 2G19G11G16G 6
   9703635.856     7561805.992    20295430.867       -3209.281       -2500.738
 -10116406.611    -7821637.073    23626516.745         620.585         483.572
  14928739.600     1937394.308    22062584.714       -2912.525       -2269.498
    -33305.608       14061.598    23678697.877       -1954.274       -1522.811
    551866.972      451492.971    24335374.196       -1213.531        -945.608
  -5443445.651    -4083822.953    24516400.349        1571.032        1224.182
 90 11  1  9 20 15.2340000  0  5G18G 2G11G16G 6
   9752148.567     7599608.347    20306058.406       -3215.131       -2505.297
 -10125748.851    -7828916.424    23626134.281         615.789         479.834
     -3725.499       37111.335    23685724.861       -1963.167       -1529.739
    570247.014      465815.428    24340267.276       -1220.891        -951.344
  -5467180.418    -4102317.854    24513281.390        1571.258        1224.357
 90 11  1  9 20 30.0820000  0  5G18G 2G11G16G 6
   9799928.798     7636839.559    20316527.118       -3221.579       -2510.321
 -10134856.613    -7836013.789    23625775.954         610.323         475.576
     25488.794       59875.057    23692659.989       -1972.637       -1537.120
    588428.293      479982.645    24345105.724       -1228.856        -957.557
  -5490512.738    -4120498.707    24510217.192        1570.767        1223.974
 90 11  1  9 20 45.1860000  0  5G18G 2G11G16G 6
   9848629.962     7674788.755    20327194.677       -3227.530       -2514.958
 -10144040.697    -7843170.065    23625428.200         605.398         471.738
     55348.371       83142.240    23699738.904       -1981.628       -1544.125
    607042.849      494487.158    24350047.803       -1236.280        -963.344
  -5514241.211    -4138988.544    24507101.949        1570.887        1224.068
 90 11  1  9 21  0.0340000  0  5G18G 2G11G16G 6
   9896594.795     7712163.399    20337695.599       -3233.519       -2519.625
 -10152994.945    -7850147.550    23625100.734         600.388         467.835
     84835.930      106119.686    23706724.159       -1990.646       -1551.152
    625452.041      508831.926    24354925.703       -1243.767        -969.166
  -5537568.021    -4157164.884    24504038.917        1570.804        1224.004
 90 11  1  9 21 15.1380000  0  5G18G 2G11G16G 6
   9945486.126     7750260.320    20348403.170       -3240.366       -2524.960
 -10162018.717    -7857178.460    23624780.294         594.504         463.249
    114977.908      129607.184    23713861.943       -2000.557       -1558.875
    644301.071      523519.810    24359911.318       -1252.160        -975.711
  -5561287.135    -4175647.634    24500926.287        1569.990        1223.370
 90 11  1  9 21 30.2420000  0  5G18G 2G11G16G 6
   9994472.553     7788431.379    20359121.667       -3246.272       -2529.562
 -10170961.282    -7864147.272    23624481.199         589.548         459.388
    145262.357      153205.065    23721022.647       -2009.576       -1565.905
    663269.499      538299.901    24364924.909       -1259.573        -981.485
  -5585001.326    -4194126.492    24497814.502        1570.069        1223.431
 90 11  1  9 21 45.0900000  0  5G18G 2G11G16G 6
  10042728.704     7826033.823    20369683.600       -3253.761       -2535.397
 -10179666.045    -7870929.533    23624203.590         582.970         454.263
    175178.790      176516.490    23728094.256       -2020.107       -1574.108
    682038.645      552925.661    24369873.392       -1268.592        -988.513
  -5608300.988    -4212281.940    24494755.225        1568.420        1222.145
 90 11  1  9 22  0.1940000  0  5G18G 2G11G16G 6
  10091924.962     7864368.238    20380451.918       -3260.224       -2540.434
 -10188427.016    -7877756.794    23623940.955         577.443         449.956
    205763.904      200349.246    23735321.543       -2029.650       -1581.545
    701261.987      567904.819    24374935.465       -1276.598        -994.759
  -5631984.740    -4230736.840    24491656.895        1567.923        1221.758
 90 11  1  9 22 15.0420000  0  5G18G 2G11G16G 6
  10140379.586     7902125.403    20391053.042       -3266.668       -2545.455
 -10196960.387    -7884406.250    23623698.215         571.917         445.649
    235970.101      223886.641    23742448.474       -2039.106       -1588.915
    720275.572      582720.389    24379936.357       -1284.548       -1000.950
  -5655261.735    -4248874.407    24488608.441        1567.338        1221.302
 90 11  1  9 22 30.1460000  0  5G18G 2G11G16G 6
  10189771.439     7940612.737    20401858.786       -3273.293       -2550.616
 -10205553.009    -7891101.624    23623469.227         566.176         441.176
    266844.764      247944.447    23749731.799       -2048.832       -1596.494
    739740.162      597887.865    24385048.329       -1292.750       -1007.341
  -5678926.701    -4267315.184    24485510.946        1566.620        1220.739
 90 11  1  9 22 45.2500000  0  5G18G 2G11G16G 6
  10239267.049     7979179.887    20412683.914       -3280.414       -2556.166
 -10214057.129    -7897727.921    23623260.305         559.968         436.338
    297868.551      272118.841    23757042.220       -2059.032       -1604.442
    759331.717      613153.709    24390182.801       -1301.332       -1014.031
  -5702579.301    -4285745.128    24482418.278        1565.391        1219.786
 90 11  1  9 23  0.0980000  0  5G18G 2G11G16G 6
  10288018.752     8017168.966    20423348.351       -3286.478       -2560.891
 -10222333.149    -7904176.594    23623072.584         554.747         432.269
    328508.650      295994.516    23764259.524       -2068.158       -1611.551
    778710.293      628254.097    24395256.965       -1308.911       -1019.931
  -5725819.551    -4303855.047    24479382.573        1565.104        1219.561
 90 11  1  9 23 15.2020000  0  5G18G 2G11G16G 6
  10337706.853     8055886.782    20434211.911       -3292.700       -2565.739
 -10230669.041    -7910672.942    23622895.660         549.389         428.094
    359818.485      320391.646    23771629.910       -2077.478       -1618.814
    798540.827      643706.598    24400440.084       -1316.701       -1026.003
  -5749454.562    -4322271.580    24476296.393        1564.747        1219.283
 90 11  1  9 23 30.0500000  0  5G18G 2G11G16G 6
  10386647.119     8094021.523    20444910.551       -3299.265       -2570.855
 -10238782.808    -7916994.660    23622737.914         543.657         423.629
    390738.057      344484.497    23778901.531       -2087.105       -1626.316
    818153.159      658988.236    24405558.627       -1324.773       -1032.289
  -5772679.825    -4340369.389    24473263.266        1563.886        1218.610
 90 11  1  9 23 45.1540000  0  5G18G 2G11G16G 6
  10436525.112     8132887.087    20455815.195       -3305.238       -2575.510
 -10246954.657    -7923362.896    23622595.178         538.520         419.625
    422330.055      369102.019    23786323.380       -2096.195       -1633.399
    838219.389      674624.328    24410792.125       -1332.302       -1038.156
  -5796300.054    -4358774.684    24470179.782        1563.763        1218.516
 90 11  1  9 24  0.2580000  0  5G18G 2G11G16G 6
  10486498.421     8171827.239    20466738.842       -3311.971       -2580.757
 -10255043.581    -7929666.066    23622467.707         532.590         415.004
    454066.000      393830.851    23793778.973       -2106.051       -1641.079
    858405.169      690353.836    24416043.278       -1340.598       -1044.616
  -5819910.923    -4377173.206    24467099.325        1562.793        1217.761
 90 11  1  9 24 15.1060000  0  5G18G 2G11G16G 6
  10535729.660     8210189.458    20477498.969       -3318.874       -2586.135
 -10262903.208    -7935789.554    23622363.919         526.481         410.244
    485414.932      418258.559    23801132.450       -2116.009       -1648.836
    878376.664      705916.128    24421233.983       -1349.067       -1051.222
  -5843102.800    -4395244.209    24464077.569        1561.536        1216.782
 90 11  1  9 24 30.2100000  0  5G18G 2G11G16G 6
  10585901.721     8249284.042    20488461.573       -3325.433       -2591.246
 -10270817.028    -7941956.394    23622273.801         520.696         405.737
    517442.797      443215.169    23808645.101       -2125.707       -1656.395
    898808.584      721836.819    24426540.427       -1357.152       -1057.515
  -5866687.442    -4413622.577    24461005.393        1560.726        1216.149
 90 11  1  9 24 45.0580000  0  5G18G 2G11G16G 6
  10635320.563     8287792.436    20499260.701       -3331.300       -2595.817
 -10278511.151    -7947951.638    23622204.937         515.590         401.758
    549070.250      467860.363    23816054.566       -2134.646       -1663.360
    919013.423      737581.263    24431779.969       -1364.566       -1063.302
  -5889860.201    -4431679.184    24457990.613        1560.525        1215.992
 90 11  1  9 25  0.1620000  0  5G18G 2G11G16G 6
  10685696.594     8327046.416    20510267.838       -3338.319       -2601.288
 -10286243.791    -7953977.554    23622152.998         509.334         396.883
    581395.683      493048.793    23823626.010       -2144.798       -1671.272
    939695.462      753696.942    24437133.734       -1373.135       -1069.971
  -5913413.893    -4450032.673    24454924.969        1559.207        1214.967
 90 11  1  9 25 15.0100000  0  5G18G 2G11G16G 6
  10735307.381     8365703.729    20521104.355       -3344.942       -2606.449
 -10293768.883    -7959841.392    23622117.979         503.449         392.297
    613308.118      517915.302    23831098.954       -2154.481       -1678.817
    960138.655      769626.512    24442419.440       -1381.271       -1076.311
  -5936563.357    -4468071.190    24451918.526        1558.189        1214.172
 90 11  1  9 25 30.1140000  0  5G18G 2G11G16G 6
  10785859.949     8405095.680    20532145.062       -3348.619       -2609.314
 -10301348.065    -7965746.672    23622095.412         500.465         389.971
    645904.234      543314.807    23838718.923       -2161.328       -1684.152
    981044.203      785916.373    24447820.342       -1386.584       -1080.459
  -5960110.666    -4486419.284    24448859.148        1560.139        1215.693
 90 11  1  9 25 45.2180000  0  5G18G 2G11G16G 6
  10836480.789     8444540.601    20543191.439       -3355.317       -2614.532
 -10308868.339    -7971607.127    23622080.568         494.485         385.312
    678615.663      568804.828    23846359.109       -2171.157       -1691.810
   1002042.361      802278.944    24453231.521       -1394.858       -1086.902
  -5983673.313    -4504780.362    24445788.595        1559.123        1214.900
 90 11  1  9 26  0.0660000  0  5G18G 2G11G16G 6
  10886348.087     8483398.035    20554076.792       -3361.542       -2619.383
 -10316168.322    -7977295.236    23622087.776         488.968         381.014
    710923.763      593979.215    23853902.525       -2180.441       -1699.046
   1022811.516      818462.860    24458580.445       -1402.596       -1092.931
  -6006817.081    -4522813.994    24442780.412        1558.433        1214.362
 90 11  1  9 26 15.1700000  0  5G18G 2G11G16G 6
  10937159.907     8522991.273    20565164.265       -3367.083       -2623.701
 -10323521.194    -7983024.583    23622105.580         484.092         377.213
    743918.829      619690.274    23861604.595       -2189.152       -1705.833
   1044046.645      835009.181    24464039.575       -1409.687       -1098.464
  -6030359.452    -4541158.880    24439719.616        1558.479        1214.397
 90 11  1  9 26 30.0180000  0  5G18G 2G11G16G 6
  10987192.464     8561977.827    20576078.222       -3372.822       -2628.173
 -10330674.703    -7988599.047    23622137.224         478.997         373.244
    776484.939      645066.529    23869191.875       -2198.010       -1712.734
   1065028.313      851358.349    24469422.150       -1417.011       -1104.162
  -6053502.730    -4559192.311    24436709.249        1558.224        1214.202
 90 11  1  9 26 45.1220000  0  5G18G 2G11G16G 6
  11038176.012     8601705.462    20587199.126       -3377.751       -2632.013
 -10337874.041    -7994209.027    23622184.516         474.734         369.922
    809747.804      670985.316    23876940.094       -2206.079       -1719.021
   1086483.193      868076.603    24474927.724       -1423.475       -1109.207
  -6077039.246    -4577532.526    24433648.550        1558.856        1214.694
 90 11  1  9 27  0.2260000  0  5G18G 2G11G16G 6
  11089244.046     8641498.094    20598334.551       -3384.026       -2636.903
 -10344999.415    -7999761.194    23622246.963         469.099         365.532
    843142.589      697006.962    23884708.135       -2215.490       -1726.356
   1108046.034      884878.683    24480444.040       -1431.377       -1115.360
  -6100575.997    -4595872.861    24430586.489        1558.138        1214.132
 90 11  1  9 27 15.0740000  0  5G18G 2G11G16G 6
  11139544.717     8680693.681    20609302.281       -3391.124       -2642.434
 -10351913.825    -8005148.585    23622326.567         462.590         360.459
    876117.250      722701.482    23892382.847       -2225.714       -1734.321
   1129366.236      901491.801    24485898.090       -1439.999       -1122.078
  -6123695.589    -4613888.716    24427583.078        1556.429        1212.802
 90 11  1  9 27 30.1780000  0  5G18G 2G11G16G 6
  11190801.884     8720636.438    20320684.373       -3396.385       -2646.533
 -10358864.667    -8010565.464    23622424.113         457.930         356.828
    909798.015      748946.393    23900208.799       -2234.145       -1740.893
   1151168.505      918480.889    24491471.040       -1446.920       -1127.478
  -6147205.150    -4632207.845    24424529.251        1556.669        1212.988
 90 11  1  9 27 45.0260000  0  5G18G 2G11G16G 6
  11241281.461     8759971.122    20331686.014       -3402.369       -2651.195
 -10365618.487    -8015827.747    23622535.229         452.516         352.609
    943044.168      774852.413    23907935.892       -2243.262       -1747.998
   1172713.661      935269.386    24496963.140       -1454.459       -1133.347
  -6170308.182    -4650210.037    24421528.709        1556.058        1212.512
 90 11  1  9 28  0.1300000  0  5G18G 2G11G16G 6
  11292718.757     8800052.573    20342896.366       -3408.739       -2656.161
 -10372409.402    -8021119.538    23622666.575         446.727         348.097
    976998.920      801310.260    23915816.176       -2252.787       -1755.418
   1194742.496      952434.428    24502577.294       -1462.389       -1139.524
  -6193804.269    -4668518.463    24418480.130        1555.130        1211.790
 90 11  1  9 28 15.2340000  0  5G18G 2G11G16G 6
  11344258.276     8840212.895    20354128.783       -3415.857       -2661.706
 -10379107.429    -8026338.485    23622814.338         440.188         343.003
   1011102.679      827885.125    23923731.969       -2263.074       -1763.435
   1216896.663      969697.283    24508218.050       -1471.128       -1146.336
  -6217280.447    -4686811.607    24415436.403        1553.453        1210.485
 90 11  1  9 28 30.0820000  0  5G18G 2G11G16G 6
  11395022.830     8879769.459    20365191.182       -3422.022       -2666.510
 -10385602.148    -8031399.061    23622980.276         434.557         338.615
   1044773.487      854121.708    23931540.791       -2272.367       -1770.676
   1238796.999      986763.054    24513784.984       -1478.848       -1152.344
  -6240339.785    -4704780.287    24412451.876        1552.612        1209.829
 90 11  1  9 28 45.1860000  0  5G18G 2G11G16G 6
  11446760.430     8920084.686    20376463.920       -3429.271       -2672.159
 -10392117.513    -8036476.644    23623171.240         427.848         333.387
   1079170.922      880924.711    23939516.170       -2282.784       -1778.792
   1261197.868     1004217.806    24519478.462       -1487.713       -1159.252
  -6263779.486    -4723044.935    24409420.134        1550.735        1208.364
 90 11  1  9 29  0.0340000  0  5G18G 2G11G16G 6
  11497704.571     8959781.436    20387563.082       -3433.794       -2675.682
 -10398447.929    -8041409.403    23623371.142         423.809         330.240
   1113115.256      907374.666    23947378.692       -2290.462       -1784.775
   1283324.895     1021459.795    24525094.968       -1493.844       -1164.035
  -6286818.259    -4740996.890    24406441.847        1551.470        1208.937
 90 11  1  9 29 15.1380000  0  5G18G 2G11G16G 6
  11549607.165     9000224.805    20398867.402       -3439.191       -2679.889
 -10404814.540    -8046370.410    23623586.241         418.915         326.427
   1147772.827      934380.750    23955405.246       -2299.034       -1791.455
   1305939.372     1039080.950    24530825.401       -1500.830       -1169.468
  -6310253.605    -4759258.243    24403412.696        1551.429        1208.906
 90 11  1  9 29 30.2420000  0  5G18G 2G11G16G 6
  11601590.973     9040731.015    20410189.472       -3444.182       -2683.778
 -10411108.133    -8051274.409    23623816.598         414.434         322.935
   1182556.417      961487.054    23663658.001       -2307.191       -1797.811
   1328657.303     1056783.482    24536577.414       -1507.398       -1174.595
  -6333688.754    -4777519.744    24400379.393        1551.746        1209.153
 90 11  1  9 29 45.0900000  0  5G18G 2G11G16G 6
  11652778.703     9080617.706    20421332.945       -3451.145       -2689.202
 -10417216.675    -8056034.290    23624058.788         407.937         317.873
   1216885.798      988237.056    23671596.950       -2317.286       -1805.678
   1351098.996     1074271.117    24542252.104       -1515.953       -1181.264
  -6356719.278    -4795465.340    24397397.570        1550.006        1207.796
 90 11  1  9 30  0.1940000  0  5G18G 2G11G16G 6
  11704950.134     9121270.385    20432689.110       -3457.057       -2693.811
 -10423336.415    -8060802.743    23624324.609         402.485         313.625
   1251955.151     1015564.059    23679698.640       -2326.396       -1812.775
   1374053.565     1092157.521    24548052.218       -1523.483       -1187.134
  -6380125.602    -4813703.964    24394375.471        1549.374        1207.303
 90 11  1  9 30 15.0420000  0  5G18G 2G11G16G 6
  11756327.290     9161304.740    20443876.708       -3462.817       -2698.299
 -10429268.618    -8065425.076    23624605.072         397.146         309.464
   1286568.192     1042534.871    23687692.441       -2335.299       -1819.714
   1396733.051     1109830.043    24553773.127       -1530.816       -1192.850
  -6403121.886    -4831623.112    24391404.022        1548.786        1206.846
 90 11  1  9 30 30.1460000  0  5G18G 2G11G16G 6
  11808687.788     9202105.010    20455275.346       -3470.003       -2703.898
 -10435212.817    -8070057.092    23624907.634         390.403         304.209
   1321923.007     1070084.105    23695857.564       -2345.684       -1827.806
   1419925.411                    24559623.661       -1539.616
  -6426496.516    -4849837.115    24388394.597        1546.829        1205.323
 90 11  1  9 30 45.2500000  0  5G18G 2G11G16G 6
  11861130.834     9242970.066    20466690.533       -3475.074       -2707.850
 -10441079.310    -8074628.858    23625227.042         385.737         300.574
   1357408.772     1097735.242    23704045.938       -2353.960       -1834.254
   1443224.181                    24565490.693       -1546.332
  -6449866.479    -4868047.379    24385381.997        1546.945        1205.411
 90 11  1  9 31  0.0980000  0  5G18G 2G11G16G 6
  11912777.531     9283213.772    20477933.772       -3480.684       -2712.220
 -10446762.108    -8079056.246    23625559.641         380.519         296.507
   1392432.219     1125025.839    23712119.875       -2362.693       -1841.061
   1466242.480                    24271494.367       -1553.483
  -6472824.698    -4885937.058    24382425.695        1546.444        1205.022
 90 11  1  9 31 15.2020000  0  5G18G 2G11G16G 6
  11965387.296     9324208.592    20489377.615       -3486.491       -2716.746
 -10452474.581    -8083507.698    23625905.837         375.106         292.290
   1428180.086     1152881.342    23720358.235       -2371.692       -1848.071
   1489756.611       74569.965    24277401.803       -1560.948       -1216.321
  -6496183.805    -4904139.279    24379415.008        1545.811        1204.527
 90 11  1  9 31 30.0500000  0  5G18G 2G11G16G 6
  12017191.695     9364575.307    20500646.310       -3491.737       -2720.833
 -10458009.781    -8087820.823    23626264.822         370.182         288.453
   1463455.652     1180368.777    23728482.205       -2380.114       -1854.633
   1512982.855       92667.735    24283230.429       -1567.792       -1221.665
  -6519136.185    -4922024.191    24376460.851        1545.592        1204.359
 90 11  1  9 31 45.1540000  0  5G18G 2G11G16G 6
  12069975.603     9405705.905    20512126.823       -3497.816       -2725.571
 -10463559.154    -8092144.901    23626645.460         364.441         283.980
   1499473.461     1208434.787    23736771.240       -2389.435       -1861.898
   1536719.705      111163.714    24289185.107       -1575.492       -1227.653
  -6542475.196    -4940209.930    24373453.390        1544.606        1203.588
 90 11  1  9 32  0.2580000  0  5G18G 2G11G16G 6
  12122843.835     9446901.394    20523624.750       -3503.242       -2729.799
 -10469029.372    -8096407.519    23627043.062         359.354         280.016
   1535625.113     1236604.177    23745089.701       -2398.072       -1868.626
   1560565.269      129744.720    24295163.788       -1582.555       -1233.159
  -6565808.141    -4958390.495    24670246.197        1544.278        1203.334
 90 11  1  9 32 15.1060000  0  5G18G 2G11G16G 6
  12174912.524     9487474.541    20534947.750       -3509.670       -2734.806
 -10474315.126    -8100525.964    23627452.368         353.254         275.262
   1571307.279     1264408.834    23753295.915       -2407.643       -1876.085
   1584127.165      148104.969    24301061.123       -1590.635       -1239.459
  -6588721.641    -4976245.779    24667299.734        1542.832        1202.207
 90 11  1  9 32 30.2100000  0  5G18G 2G11G16G 6
  12227962.084     9528811.913    20546485.746       -3515.471       -2739.328
 -10479612.686    -8104654.510    23627884.605         347.780         270.997
   1607736.267     1292795.250    23761670.923       -2416.645       -1883.099
   1608203.189      166865.465    24307083.213       -1597.978       -1245.180
  -6612023.917    -4994402.488    24664305.850        1542.105        1201.640
 90 11  1  9 32 45.0580000  0  5G18G 2G11G16G 6
  12280194.385     9569512.061    20557841.260       -3520.151       -2742.975
 -10484744.718    -8108653.178    23628324.280         343.388         267.575
   1643676.847     1320800.519    23769926.067       -2424.486       -1889.208
   1631977.073      185390.410    24313025.422       -1604.257       -1250.074
  -6634922.566    -5012246.254    24661364.770        1542.360        1201.837
 90 11  1  9 33  0.1620000  0  5G18G 2G11G16G 6
  12333406.789     9610976.054    20569406.953       -3525.806       -2747.380
 -10489889.057    -8112662.349    23628785.051         337.995         263.374
   1680364.336     1349388.656    23778349.211       -2433.373       -1896.134
   1656264.561      204315.140    24319087.048       -1611.572       -1255.772
  -6658212.942    -5030393.922    24658374.883        1541.695        1201.323
 90 11  1  9 33 15.0100000  0  5G18G 2G11G16G 6
  12385798.312     9651800.161    20580794.551       -3531.723       -2751.990
 -10494870.170    -8116543.257    23629254.512         332.324         258.954
   1716558.997     1377591.846    23786652.028       -2442.479       -1903.229
   1680244.940      223001.563    24325066.990       -1619.098       -1261.636
  -6681099.525    -5048228.430    24655435.906        1540.632        1200.493
 90 11  1  9 33 30.1140000  0  5G18G 2G11G16G 6
  12439186.446     9693401.222    20592400.727       -3537.432       -2756.439
 -10499846.308    -8120420.941    23629750.863         326.865         254.700
   1753519.637     1406391.786    23795129.231       -2451.407       -1910.188
   1704757.519      242101.976    24331175.199       -1626.442       -1267.361
  -6704362.695    -5066354.837    24652450.617        1539.887        1199.912
 90 11  1  9 33 45.2180000  0  5G18G 2G11G16G 6
  12492654.403     9735065.106    20604016.500       -3542.646       -2760.502
 -10504745.854    -8124238.945    23630262.512         321.897         250.829
   1790608.420     1435292.879    23803630.742       -2459.823       -1916.745
   1729374.118      261284.514    24337302.841       -1633.303       -1272.703
  -6727619.287    -5084477.200    24649473.066        1539.618        1199.703
 90 11  1  9 34  0.0660000  0  5G18G 2G11G16G 6
  12545293.301     9776082.227    20615454.357       -3548.102       -2764.753
 -10509489.420    -8127935.061    23630780.434         316.642         246.733
   1827193.432     1463800.404    23812010.408       -2468.472       -1923.483
   1753675.663      280219.835    24343348.835       -1640.370       -1278.210
  -6750477.011    -5102289.129    24646541.617        1538.991        1199.213
 90 11  1  9 34 15.1700000  0  5G18G 2G11G16G 6
  12598928.282     9817875.315    20627109.505       -3553.789       -2769.187
 -10514229.965    -8131628.492    23631323.989         311.172         242.471
   1864545.653     1492905.932    23820566.513       -2477.376       -1930.423
   1778507.233      299569.950    24349514.360       -1647.680       -1283.896
  -6773715.685    -5120396.445    24643564.071        1538.180        1198.580
 90 11  1  9 34 30.0180000  0  5G18G 2G11G16G 6
  12651744.313     9859030.874    20638577.641       -3559.746       -2773.829
 -10518801.269    -8135191.417    23631876.255         305.385         237.962
   1901403.086     1521625.683    23829001.689       -2486.527       -1937.552
   1803033.346      318680.856    24355607.508       -1655.236       -1289.798
  -6796540.785    -5138181.954    24640644.657        1537.003        1197.664
 90 11  1  9 34 45.1220000  0  5G18G 2G11G16G 6
  12705556.025     9900961.899    20650267.544       -3565.393       -2778.227
 -10523369.952    -8138750.905    23632456.946         299.916         233.701
   1939029.359     1550945.543    23837607.852       -2495.449       -1944.506
   1828092.040      338207.552    24361826.769       -1662.545       -1295.499
  -6819746.331    -5156264.784    24637679.557        1536.177        1197.021
 90 11  1  9 35  0.2260000  0  5G18G 2G11G16G 6
  12759443.858     9942954.795    20362177.699       -3570.221       -2781.989
 -10527862.167    -8142251.591    23633049.714         295.240         230.057
   1976783.802     1580364.242    23846244.368       -2503.471       -1950.755
   1853255.134      357814.422    24368060.588       -1668.998       -1300.510
  -6842945.957    -5174342.368    24634712.365        1536.168        1197.014
 90 11  1  9 35 15.0740000  0  5G18G 2G11G16G 6
  12812493.588     9984292.296    20373698.986       -3575.197       -2785.866
 -10532207.399    -8145637.468    23633647.185         290.402         226.287
   2014018.720     1609377.900    23854756.384       -2511.634       -1957.117
   1878087.498      377164.601    24374211.464       -1675.609       -1305.674
  -6865750.314    -5192112.139    24631797.274        1535.889        1196.796
 90 11  1  9 35 30.1780000  0  5G18G 2G11G16G 6
  12866533.544    10026401.612    20385432.029       -3580.958       -2790.356
 -10536554.485    -8149024.791    23634268.176         284.754         221.886
   2052019.406     1638988.909    23863433.635       -2520.632       -1964.127
   1903449.019      396926.627    24380483.436       -1683.002       -1311.433
  -6888944.144    -5210185.221    24628830.500        1534.889        1196.016
 90 11  1  9 35 45.0260000  0  5G18G 2G11G16G 6
  12919738.635    10067859.675    20396978.891       -3585.593       -2793.968
 -10540748.349    -8152293.070    23634893.774         280.221         218.354
   2089504.258     1668197.648    23871993.955       -2528.471       -1970.237
   1928484.635      416434.916    24386674.892       -1689.284       -1316.316
  -6911734.550    -5227943.422    24625918.305        1534.921        1196.042
 90 11  1  9 36  0.1300000  0  5G18G 2G11G16G 6
  12973940.619    10110094.708    20408742.613       -3592.149       -2799.078
 -10544936.220    -8155556.231    23635546.507         273.745         213.308
   2127763.342     1698010.357    23880718.199       -2538.274       -1977.878
   1954057.740      436361.789    24392989.444       -1697.521       -1322.744
  -6934907.508    -5246000.936    24622956.233        1533.044        1194.578
 90 11  1  9 36 15.2340000  0  5G18G 2G11G16G 6
  13028235.358    10152402.476    20420527.582       -3597.693       -2803.397
 -10549032.975    -8158748.181    23636217.842         268.285         209.053
   2166165.148     1727933.632    23889479.627       -2547.062       -1984.725
   1979747.313      456380.057    24399333.497       -1704.695       -1328.341
  -6958058.987    -5264041.051    24620004.979        1532.202        1193.923
 90 11  1  9 36 30.0820000  0  5G18G 2G11G16G 6
  13081692.765    10194057.011    20432127.608       -3602.619       -2807.236
 -10552978.965    -8161823.278    23636897.708         263.409         205.254
   2204044.740     1757450.303    23898118.465       -2555.183       -1991.051
   2005108.573      476141.892    24405586.822       -1711.216       -1333.410
  -6980805.145    -5281765.471    24617104.516        1531.837        1193.639
 90 11  1  9 36 45.1860000  0  5G18G 2G11G16G 6
  13136157.844    10236497.747    20443948.151       -3608.930       -2812.153
 -10556906.652    -8164883.586    23637606.281         257.177         200.398
   2242713.887     1787582.213    23906935.386       -2564.703       -1998.472
   2031018.623      496331.631    24411973.548       -1719.183       -1339.623
  -7003926.001    -5299781.617    24614160.621        1530.209        1192.369
 90 11  1  9 37  0.0340000  0  5G18G 2G11G16G 6
  13189784.554    10278284.940    20455585.497       -3614.096       -2816.178
 -10560684.487    -8167826.968    23638320.770         252.052         196.403
   2280860.036     1817306.589    23915623.372       -2573.070       -2004.990
   2056598.258      516263.773    24418273.283       -1725.956       -1344.909
  -7026639.062    -5317479.758    24611272.870        1529.569        1191.871
 90 11  1  9 37 15.1380000  0  5G18G 2G11G16G 6
  13244416.668    10320855.208    20467443.552       -3619.003       -2820.001
 -10564447.199    -8170758.865    23639063.698         247.158         192.590
   2319793.036     1847643.803    23924494.435       -2581.239       -2011.354
   2082724.832                    24424701.208       -1732.528
  -7049730.936    -5335473.970    24608335.719        1529.249        1191.625
 90 11  1  9 37 30.2420000  0  5G18G 2G11G16G 6
  13299122.036    10363482.421    20479309.630       -3624.644       -2824.397
 -10568135.926    -8173633.506    23639819.165         241.520         188.197
   2358848.376     1878076.446    23933382.735       -2590.128       -2018.281
   2108949.258                    24431151.836       -1739.783
  -7072819.902    -5353465.044    24605402.514        1528.175        1190.787
 90 11  1  9 37 45.0900000  0  5G18G 2G11G16G 6
  13352981.311    10405450.625    20490994.824       -3630.183       -2828.713
 -10571682.079    -8176396.578    23640579.214         235.975         183.875
   2397370.957     1908093.630    23942148.705       -2598.848       -2025.075
   2134834.450                    24437513.119       -1746.996
  -7095503.101    -5371139.852    24602517.379        1527.114        1189.958
 90 11  1  9 38  0.1940000  0  5G18G 2G11G16G 6
  13407847.560    10448203.158    20502896.767       -3635.361       -2832.748
 -10575209.381    -8179145.483    23641368.748         230.760         179.812
   2436684.948     1938727.344    23951086.722       -2607.297       -2031.659
   2161268.718                    24444002.921       -1753.834
  -7118566.322    -5389111.650    24599590.161        1526.423        1189.420
 90 11  1  9 38 15.0420000  0  5G18G 2G11G16G 6
  13461864.311    10490293.912    20514608.849       -3640.411       -2836.684
 -10578597.768    -8181785.507    23642159.873         225.693         175.864
   2475459.737     1968941.967    23959905.147       -2615.531       -2038.075
   2187360.320       69862.445    24450406.874       -1760.480       -1371.794
  -7141224.768    -5406767.941    24596715.038        1525.810        1188.941
 90 11  1  9 38 30.1460000  0  5G18G 2G11G16G 6
  13516888.657    10533170.537    20526542.386       -3645.706       -2840.810
 -10581965.631    -8184409.990    23642981.236         220.317         171.676
   2515029.784     1999775.694    23968900.338       -2624.105       -2044.757
   2214003.246       90623.489    24456939.834       -1767.452       -1377.236
  -7164264.832    -5424720.727    24593793.866        1524.953        1188.276
 90 11  1  9 38 45.2500000  0  4G18G 2G11G 6
  13571993.320    10576109.082    20538491.914       -3650.687       -2844.690
 -10585252.703    -8186971.639    23643819.437         215.261         167.735
   2554728.914     2030709.800    23977914.562       -2632.351       -2051.181
  -7187290.882    -5442663.720    24590875.568        1524.410        1187.853
 90 11  1  9 39  0.0980000  0  4G18G 2G11G 6
  13626232.778    10618373.120    20550253.338       -3655.066       -2848.102
 -10588415.054    -8189434.916    23644655.410         210.771         164.236
   2593871.168     2061210.229    23986800.911       -2639.945       -2057.099
  -7209923.740    -5460299.333    24588007.853        1524.341        1187.798
 90 11  1  9 39 15.2020000  0  4G18G 2G11G 6
  13681481.869    10661424.407    20562228.019       -3661.010       -2852.736
 -10591555.054    -8191881.916    23645520.991         204.744         159.542
   2633812.134     2092333.340    23995863.467       -2649.131       -2064.257
  -7232938.328    -5478232.773    24585091.234        1522.813        1186.607
 90 11  1  9 39 30.0500000  0  4G18G 2G11G 6
  13735874.848    10703808.314    20574020.044       -3665.330       -2856.101
 -10594559.660    -8194223.505    23646388.056         200.282         156.064
   2673203.851     2123028.185    24004798.212       -2656.653       -2070.118
  -7255547.123    -5495849.927    24582226.959        1522.776        1186.577
 90 11  1  9 39 45.1540000  0  4G18G 2G11G 6
  13791273.920    10746976.362    20586025.950       -3669.980       -2859.725
 -10597546.359    -8196550.543    23647285.454         195.511         152.346
   2713393.092     2154343.713    24013908.429       -2664.545       -2076.268
  -7278542.203    -5513768.356    24579314.760        1522.478        1186.345
 90 11  1  9 40  0.2580000  0  4G18G 2G11G 6
  13846741.322    10790197.124    20598043.360       -3675.033       -2863.664
 -10600462.042    -8198822.708    23648191.334         190.299         148.284
   2753696.543     2185751.273    23723252.852       -2672.859       -2082.748
  -7301534.603    -5531684.343    24576403.146        1521.729        1185.761
 90 11  1  9 40 15.1060000  0  4G18G 2G11G 6
  13901351.291    10832750.474    20609874.133       -3680.580       -2867.984
 -10603243.470    -8200990.052    23649105.114         184.578         143.827
   2793449.672     2216727.804    23732258.809       -2681.627       -2089.579
  -7324117.679    -5549281.711    24573544.184        1520.400        1184.727
 90 11  1  9 40 30.2100000  0  4G18G 2G11G 6
  13956979.887    10876097.594    20621925.595       -3685.370       -2871.714
 -10605993.003    -8203132.124    23650046.883         179.603         139.950
   2834015.083     2248337.251    23741439.997       -2689.679       -2095.854
  -7347076.851    -5567171.603    24570643.790        1519.862        1184.308
 90 11  1  9 40 45.0580000  0  4G18G 2G11G 6
  14011738.483    10918766.861    20633790.990       -3690.536       -2875.742
 -10608619.858    -8205179.039    23650990.504         174.249         135.778
   2874013.563     2279504.893    23750495.408       -2698.066       -2102.389
  -7369635.764    -5584750.696    24567792.370        1518.866        1183.532
 90 11  1  9 41  0.1620000  0  4G18G 2G11G 6
  14067518.023    10962230.992    20645871.802       -3695.225       -2879.395
 -10611212.851    -8207199.559    23651964.219         169.354         131.964
   2914827.868     2311307.994    23759732.454       -2706.031       -2108.595
  -7392571.754    -5602622.333    24564897.771        1518.388        1183.158
 90 11  1  9 41 15.0100000  0  4G18G 2G11G 6
  14122419.855    11005011.793    20657760.436       -3700.116       -2883.207
 -10613689.960    -8209130.179    23652935.778         164.218         127.962
   2955066.324     2342662.354    23768828.675       -2714.122       -2114.901
  -7415111.341    -5620186.068    24562049.671        1517.610        1182.553
 90 11  1  9 41 30.1140000  0  4G18G 2G11G 6
  14178341.228    11048586.580    20669872.917       -3704.708       -2886.785
 -10616134.227    -8211034.715    23653938.527         159.385         124.196
   2996118.889     2374651.916    23778109.159       -2721.978       -2121.022
  -7438030.192    -5638044.903    24559158.403        1517.169        1182.210
 90 11  1  9 41 45.2180000  0  4G18G 2G11G 6
  14234343.190    11092223.979    20681996.999       -3710.881       -2891.593
 -10618494.271    -8212873.652    23654960.292         152.967         119.195
   3037301.732     2406742.524    23787416.995       -2731.430       -2128.385
  -7460931.823    -5655890.283    24556266.836        1515.137        1180.627
 90 11  1  9 42  0.0660000  0  4G18G 2G11G 6
  14289471.388    11135181.550    20693937.176       -3715.150       -2894.922
 -10620733.881    -8214619.260    23655978.746         148.412         115.646
   3077911.727     2438385.975    23796591.532       -2738.910       -2134.219
  -7483429.472    -5673420.554    24553432.533        1514.905        1180.444
 90 11  1  9 42 15.1700000  0  4G18G 2G11G 6
  14345618.780    11178935.566    20406299.664       -3720.386       -2899.002
 -10622936.244    -8216335.230    23657032.734         142.886         111.339
   3119341.762     2470669.461    23805946.526       -2747.425       -2140.851
  -7506303.916    -5691244.971    24550554.005        1513.739        1179.537
 90 11  1  9 42 30.0180000  0  4G18G 2G11G 6
  14400887.826    11222001.709    20418263.268       -3724.619       -2902.301
 -10625027.609    -8217964.713    23658081.827         138.349         107.804
   3160188.600     2502497.369    23815166.401       -2754.883       -2146.660
  -7528781.166    -5708760.021    24547722.270        1513.516        1179.361
 90 11  1  9 42 45.1220000  0  4G18G 2G11G 6
  14457173.050    11265860.408    20430445.371       -3728.652       -2905.442
 -10627085.524    -8219568.695    23659160.735         134.020         104.431
   3201851.157     2534962.579    23824571.097       -2762.165       -2152.335
  -7551643.285    -5726574.429    24544843.726        1513.525        1179.371
 90 11  1  9 43  0.2260000  0  4G18G 2G11G 6
  14513528.607    11309773.709    20442641.078       -3733.303       -2909.065
 -10629069.236    -8221114.397    23660255.443         129.016         100.531
   3243633.676     2567520.220    23833992.583       -2770.080       -2158.503
  -7574495.362    -5744381.783    24541966.498        1512.856        1178.848
 90 11  1  9 43 15.0740000  0  4G18G 2G11G 6
  14568998.910    11352997.082    20454645.163       -3739.213       -2913.672
 -10630945.147    -8222575.408    23661346.396         122.759          95.657
   3284826.426     2599618.053    23843276.190       -2779.231       -2165.635
  -7596949.898    -5761878.191    24539140.471        1510.852        1177.285
 90 11  1  9 43 30.1780000  0  4G18G 2G11G 6
  14625517.223    11397037.480    20466875.116       -3744.851       -2918.065
 -10632755.059    -8223985.606    23662478.527         116.735          90.962
   3326869.388     2632378.794    23852752.261       -2788.156       -2172.587
  -7619757.601    -5779650.669    24536277.232        1509.146        1175.956
 90 11  1  9 43 45.0260000  0  4G18G 2G11G 6
  14681155.031    11440391.513    20478917.859       -3748.809       -2921.150
 -10634451.684    -8225307.989    23663608.179         112.411          87.592
   3368325.356     2664682.444    23862097.019       -2795.302       -2178.159
  -7642160.247    -5797107.662    24533467.769        1509.073        1175.901
 90 11  1  9 44  0.1300000  0  4G18G 2G11G 6
  14737809.727    11484537.392    20491178.537       -3754.213       -2925.360
 -10636113.470    -8226603.221    23664768.410         106.594          83.059
   3410603.583     2697626.061    23871615.164       -2804.035       -2184.963
  -7664950.899    -5814865.782    24530607.540        1507.527        1174.696
 90 11  1  9 44 15.2340000  0  4G18G 2G11G 6
  14794536.649    11528740.704    20503450.597       -3757.674       -2928.057
 -10637697.115    -8227837.236    23665946.784         102.745          80.062
   3453003.913     2730665.148    23881162.515       -2810.704       -2190.159
  -7687725.668    -5832612.910    24527751.799        1507.958        1175.033
 90 11  1  9 44 30.0820000  0  4G18G 2G11G 6
  14850370.461    11572247.461    20515529.459       -3763.219       -2932.378
 -10639179.912    -8228991.940    23667117.326          96.761          75.397
   3494801.185     2763234.251    23890570.933       -2819.513       -2197.020
  -7710104.008    -5850050.491    24524946.552        1506.194        1173.657
 90 11  1  9 44 45.1860000  0  4G18G 2G11G 6
  14907241.222    11616561.998    20527830.237       -3767.514       -2935.725
 -10640606.914    -8230104.606    23668324.695          92.018          71.702
   3537442.641     2796461.520    23900165.554       -2827.059       -2202.903
  -7732851.112    -5867775.724    24522097.679        1505.711        1173.282
 90 11  1  9 45  0.0340000  0  4G18G 2G11G 6
  14963220.645    11660182.225    20539937.132       -3772.098       -2939.297
 -10641930.499    -8231136.162    23669529.940          86.982          67.779
   3579481.944     2829219.298    23909621.116       -2834.891       -2209.005
  -7755196.435    -5885187.359    24519304.009        1504.842        1172.602
 90 11  1  9 45 15.1380000  0  4G18G 2G11G 6
  15020227.384    11704602.980    20552268.879       -3776.686       -2942.872
 -10643207.553    -8232130.832    23670765.979          81.908          63.824
   3622358.138     2862629.620    23919259.710       -2842.770       -2215.144
  -7777921.181    -5902894.972    24516457.390        1503.991        1171.941
 90 11  1  9 45 30.2420000  0  4G18G 2G11G 6
  15077311.454    11749083.704    20564612.675       -3781.930       -2946.958
 -10644400.931    -8233060.836    23672025.254          76.163          59.347
   3665360.265     2896137.739    23928929.129       -2851.281       -2221.777
  -7800625.334    -5920586.744    24513622.380        1502.500        1170.780
 90 11  1  9 45 45.0900000  0  4G18G 2G11G 6
  15133493.455    11792861.951    20576758.078       -3786.158       -2950.251
 -10645501.100    -8233917.479    23673271.898          71.452          55.678
   3707748.178     2929166.525    23938453.233       -2858.703       -2227.560
  -7822934.422    -5937969.812    24510833.754        1501.926        1170.333
 90 11  1  9 46  0.1940000  0  4G18G 2G11G 6
  15190712.547    11837447.849    20589133.884       -3790.589       -2953.705
 -10646543.138    -8234730.187    23674558.064          66.496          51.814
   3750983.506     2962856.705    23948165.897       -2866.444       -2233.591
  -7845614.545    -5955642.872    24508002.662        1501.159        1169.734
 90 11  1  9 46 15.0420000  0  4G18G 2G11G 6
  15247030.274    11881331.798    20601311.254       -3795.614       -2957.622
 -10647491.842    -8235469.129    23675837.604          60.945          47.489
   3793603.355     2996066.792    23957733.531       -2874.663       -2239.996
  -7867895.405    -5973004.408    24505222.742        1499.751        1168.636
 90 11  1  9 46 30.1460000  0  4G18G 2G11G 6
  15304389.488    11926027.482    20613714.134       -3799.409       -2960.577
 -10648377.290    -8236159.736    23677154.532          56.575          44.084
   3837077.383     3029942.897    23967496.285       -2881.778       -2245.541
  -7890544.168    -5990653.653    24502399.183        1499.562        1168.488
 90 11  1  9 46 45.2500000  0  4G18G 2G11G 6
  15361812.194    11970772.489    20626128.333       -3804.498       -2964.543
 -10649191.179    -8236793.720    23678487.396          50.927          39.683
   3880664.885     3063907.008    23977276.323       -2890.115       -2252.036
  -7913184.375    -6008294.945    24499575.819        1498.079        1167.334
 90 11  1  9 47  0.0980000  0  4G18G 2G11G 6
  15418316.222    12014801.558    20638335.839       -3807.367       -2966.779
 -10649928.810    -8237368.282    23679805.041          47.488          37.005
   3923615.977     3097375.115    23986907.537       -2896.200       -2256.777
  -7935439.192    -6025636.423    24496800.957        1498.718        1167.833
 90 11  1  9 47 15.2020000  0  4G18G 2G11G 6
  15475862.690    12059642.375    20650773.708       -3812.596       -2970.854
 -10650601.913    -8237892.698    23681163.996          41.670          32.470
   3967424.608     3131511.998    23996727.590       -2904.716       -2263.414
  -7958062.960    -6043265.465    24493980.884        1497.052        1166.534
 90 11  1  9 47 30.0500000  0  4G18G 2G11G 6
  15532501.049    12103776.334    20663009.732       -3816.416       -2973.830
 -10651186.706    -8238348.722    23682513.274          37.233          29.014
   4010607.436     3165160.669    24006407.752       -2911.743       -2268.893
  -7980288.068    -6060583.624    24491215.305        1496.692        1166.254
 90 11  1  9 47 45.1540000  0  4G18G 2G11G 6
  15590177.627    12148718.839    20675475.639       -3820.559       -2977.059
 -10651711.769    -8238757.172    23683901.708          32.466          25.299
   4054644.343     3199475.097    24016272.371       -2919.171       -2274.679
  -8002887.486    -6078193.187    24488398.069        1496.050        1165.754
 90 11  1  9 48  0.2580000  0  4G18G 2G11G 6
  15647914.764    12193709.056    20687946.679       -3825.216       -2980.686
 -10652165.504    -8239110.995    23685298.891          27.128          21.139
   4098792.467     3233875.402    24026161.359       -2927.142       -2280.888
  -8025477.909    -6095796.492    24485587.468        1494.816        1164.792
 90 11  1  9 48 15.1060000  0  4G18G 2G11G 6
  15704749.221    12237995.235    20700227.458       -3830.433       -2984.751
 -10652525.893    -8239392.113    23686697.520          21.273          16.576
   4142315.032     3267789.796    24035905.960       -2935.547       -2287.439
  -8047660.557    -6113081.642    24482829.797        1492.986        1163.364
 90 11  1  9 48 30.2100000  0  4G18G 2G11G 6
  15762632.725    12283098.754    20712733.511       -3834.391       -2987.835
 -10652813.551    -8239616.167    23688129.563          16.635          12.961
   4186707.616     3302380.723    24045847.091       -2942.784       -2293.079
  -8070208.452    -6130651.045    24480027.691        1492.435        1162.936
 90 11  1  9 48 45.0580000  0  4G18G 2G11G 6
  15819593.930    12327484.441    20725037.245       -3838.645       -2991.150
 -10653027.162    -8239782.581    23689555.182          11.685           9.105
   4230454.786     3336469.406    24055636.192       -2950.284       -2298.922
  -8092363.800    -6147915.366    24477278.132        1491.487        1162.197
 90 11  1  9 49  0.1620000  0  4G18G 2G11G 6
  15877614.772    12372694.971    20737570.651       -3843.719       -2995.104
 -10653157.468                    23691021.615           5.895
   4275081.191     3371243.427    24065622.480       -2958.623       -2305.422
  -8114875.397    -6165457.229    24474486.574        1489.763        1160.854
 90 11  1  9 49 15.0100000  0  4G18G 2G11G 6
  15934721.629    12417197.042    20450115.262       -3849.090       -2999.289
 -10653199.628                    23692485.239          -0.165
   4319074.783     3405523.828    24075461.782       -2967.190       -2312.097
  -8136981.918    -6182681.340    24771543.932        1487.687        1159.235
 90 11  1  9 49 30.1140000  0  4G18G 2G11G 6
  15992884.746    12462518.356    20462683.419       -3852.623       -3002.043
 -10653165.327                    23693987.200          -4.449
   4363938.537     3440485.395    23785704.553       -2974.015       -2317.415
  -8159450.287    -6200189.473    24768765.173        1487.424        1159.033
 90 11  1  9 49 45.2180000  0  4G18G 2G11G 6
  16051111.987    12507890.296    20475257.101       -3857.497       -3005.842
 -10653055.151                    23695508.200         -10.103
   4408920.330     3475535.716    23795759.546       -2982.161       -2323.760
  -8181903.830    -6217685.887    24765990.018        1485.814        1157.778
 90 11  1  9 50  0.0660000  0  4G18G 2G11G 6
  16108407.923    12552536.869    20487636.081       -3860.709       -3008.343
 -10652879.572                    23697017.208         -14.073
   4453243.498     3510073.327    23805670.985       -2988.617       -2328.792
  -8203968.480    -6234879.126    24763263.926        1485.794        1157.760
 90 11  1  9 50 15.1700000  0  4G18G 2G11G 6
  16166754.852    12598001.291    20500237.316       -3865.145       -3011.800
 -10652626.956                    23698560.470         -19.310
   4498442.783     3545293.454    23815770.151       -2996.350       -2334.816
  -8226399.942    -6252357.909    24760495.322        1484.526        1156.775
 90 11  1  9 50 30.0180000  0  4G18G 2G11G 6
  16224172.038    12642742.123    20512636.454       -3868.812       -3014.656
 -10652307.121    -8239221.142    23700095.498         -23.791         -18.539
   4542984.487     3580000.972    23825719.001       -3003.252       -2340.197
  -8248438.061    -6269530.440    24757774.422        1484.002        1156.365
 90 11  1  9 50 45.1220000  0  4G18G 2G11G 6
  16282627.227    12688291.849    20525258.778       -3871.812       -3016.997
 -10651921.066    -8238920.319    23701667.808         -27.580         -21.491
   4588390.183     3615382.246    23835852.394       -3009.477       -2345.044
  -8270856.093    -6286999.129    24755005.793        1484.192        1156.513
 90 11  1  9 51  0.2260000  0  4G18G 2G11G 6
  16341143.573    12733888.746    20537890.608       -3877.595       -3021.503
 -10651461.885    -8238562.853    23703248.580         -34.193         -26.645
   4633907.483     3650849.704    23846014.741       -3018.558       -2352.123
  -8293260.251    -6304457.080    24752237.128        1481.503        1154.415
 90 11  1  9 51 15.0740000  0  4G18G 2G11G 6
  16398747.636    12778774.644    20550326.274       -3882.288       -3025.159
 -10650918.888    -8238139.338    23704828.984         -39.728         -30.958
   4678779.753     3685815.766    23856028.160       -3026.473       -2358.288
  -8315250.068    -6321592.365    24749530.171        1479.855        1153.134
 90 11  1  9 51 30.1780000  0  4G18G 2G11G 6
  16457430.183    12824501.408    20563000.684       -3887.688       -3029.367
 -10650268.058    -8237631.908    23706457.424         -46.011         -35.853
   4724561.517     3721489.028    23866244.948       -3035.182       -2365.077
  -8337581.525    -6338993.006    24746787.435        1477.519        1151.312
 90 11  1  9 51 45.0260000  0  4G18G 2G11G 6
  16515179.664    12869500.869    20575471.915       -3891.154       -3032.068
 -10649553.115    -8237075.165    23708077.825         -50.332         -39.220
   4769676.156     3756644.014    23876309.959       -3041.846       -2370.268
  -8359516.435    -6356084.864    24744095.510        1477.047        1150.945
 90 11  1  9 52  0.1300000  0  4G18G 2G11G 6
  16573976.019    12915315.868    20588166.988       -3894.438       -3034.627
 -10648761.569    -8236458.793    23709733.364         -54.523         -42.487
   4815668.810     3792482.294    23886571.446       -3048.413       -2375.385
  -8381824.216    -6373468.185    24741356.266        1476.767        1150.729
 90 11  1  9 52 15.2340000  0  4G18G 2G11G 6
  16632824.270    12961171.870    20600871.593       -3898.394       -3037.708
 -10647904.912    -8235790.688    23711404.951         -59.389         -46.278
   4861763.976     3828399.918    23896847.082       -3055.610       -2380.996
  -8404125.496    -6390845.461    24738618.422        1475.793        1149.969
 90 11  1  9 52 30.0820000  0  4G18G 2G11G 6
  16690748.305    13006306.662    20613375.252       -3903.252       -3041.496
 -10646975.840    -8235067.108    23713061.806         -65.165         -50.778
   4907197.070     3863802.333    23906979.518       -3063.671       -2387.276
  -8426019.170    -6407906.021    24735936.095        1473.840        1148.447
 90 11  1  9 52 45.1860000  0  4G18G 2G11G 6
  16749737.897    13052272.683    20626114.082       -3907.395       -3044.724
 -10645949.773    -8234267.318    23714771.224         -70.284         -54.767
   4953530.401     3899906.567    23917309.707       -3071.117       -2393.080
  -8448267.138    -6425242.202    24733214.253        1472.601        1147.480
 90 11  1  9 53  0.0340000  0  4G18G 2G11G 6
  16807780.636    13097500.695    20638641.645       -3911.072       -3047.589
 -10644873.339    -8233428.869    23716458.878         -74.887         -58.354
   4999179.385     3935477.255    23927482.638       -3078.005       -2398.447
  -8470128.645    -6442276.696    24730538.178        1471.778        1146.838
 90 11  1  9 53 15.1380000  0  4G18G 2G11G 6
  16866886.295    13143556.762    20651400.341       -3915.461       -3051.007
 -10643702.382    -8232516.454    23718194.823         -80.271         -62.549
   5045726.983     3971747.940    23937851.539       -3085.656       -2404.407
  -8492347.567    -6459590.139    24727822.441        1470.251        1145.650
 90 11  1  9 53 30.2420000  0  4G18G 2G11G 6
  16926058.689    13189665.599    20664176.991       -3919.823       -3054.406
 -10642449.059    -8231539.697    23719947.956         -85.612         -66.711
   5092391.902     4008109.646    23948245.087       -3093.268       -2410.338
  -8514542.394    -6476884.352    24725114.465        1468.766        1144.493
 90 11  1  9 53 45.0900000  0  4G18G 2G11G 6
  16984283.681    13235035.435    20676746.067       -3923.784       -3057.494
 -10641147.476    -8230525.708    23721684.232         -90.542         -70.553
   5138367.469     4043935.123    23958481.697       -3100.463       -2415.947
  -8536347.595    -6493876.117    24722451.862        1467.563        1143.553
 90 11  1  9 54  0.1940000  0  4G18G 2G11G 6
  17043584.757    13281244.014    20689548.838       -3928.055       -3060.822
 -10639736.615    -8229426.068    23723470.096         -95.868         -74.703
   5185257.768     4080472.628    23968920.182       -3108.028       -2421.841
  -8558498.085    -6511136.275    24719753.182        1466.023        1142.356
 90 11  1  9 54 15.0420000  0  4G18G 2G11G 6
  17101941.407    13326716.279    20702149.662       -3932.117       -3063.987
 -10638272.831    -8228285.448    23725244.146        -100.948         -78.661
   5231462.017     4116475.952    23979208.111       -3115.312       -2427.515
  -8580253.813    -6528088.745    24717107.842        1464.661        1141.293
 90 11  1  9 54 30.1460000  0  4G18G 2G11G 6
  17161363.991    13373019.585    20714978.958       -3936.129       -3067.112
 -10636708.377    -8227066.413    23727061.927        -106.028         -82.620
   5278571.741     4153184.816    23989693.050       -3122.559       -2433.161
  -8602365.000    -6545318.121    24714422.294        1463.382        1140.297
 90 11  1  9 54 45.2500000  0  4G18G 2G11G 6
  17220847.341    13419369.718    20727816.246       -3940.669       -3070.651
 -10635067.176    -8225788.124    23728894.455        -111.619         -86.977
   5325791.030     4189978.998    24000199.813       -3130.362       -2439.241
  -8624457.285    -6562532.421    24711738.938        1461.539        1138.862
 90 11  1  9 55  0.0980000  0  4G18G 2G11G 6
  17279386.182    13464984.575    20740453.608       -3944.604       -3073.717
 -10633374.889    -8224468.438    23730716.208        -116.627         -90.879
   5372322.821     4226236.868    24010551.310       -3137.506       -2444.808
  -8646149.384    -6579436.015    24709108.346        1460.212        1137.827
 90 11  1  9 55 15.2020000  0  4G18G 2G11G 6
  17338990.674    13511429.188    20753319.897       -3948.320       -3076.612
 -10631580.045    -8223070.155    23732581.198        -121.463         -94.646
   5419761.297     4263202.265    24021102.887       -3144.531       -2450.282
  -8668199.459    -6596617.704    24706438.463        1459.107        1136.966
 90 11  1  9 55 30.0500000  0  4G18G 2G11G 6
  17397638.293    13557129.018    20765980.939       -3951.915       -3079.414
 -10629744.807    -8221640.237    23734430.657        -126.163         -98.309
   5466498.025     4299620.841    24031496.788       -3151.294       -2455.551
  -8689859.644    -6613496.000    24703815.484        1458.094        1136.177
 90 11  1  9 55 45.1540000  0  4G18G 2G11G 6
  17457347.095    13603655.209    20778870.484       -3955.068       -3081.871
 -10627811.634    -8220133.619    23736322.959        -130.433        -101.636
   5514138.980     4336743.422    24042086.862       -3157.714       -2460.554
  -8711883.510    -6630657.217    24701148.518        1457.515        1135.724
 90 11  1  9 56  0.2580000  0  4G18G 2G11G 6
  17517113.374    13650229.023    20491974.266       -3958.899       -3084.858
 -10625800.578    -8218566.549    23738231.465        -135.432        -105.532
   5561890.471     4373951.571    24052697.135       -3164.795       -2466.074
  -8733885.241    -6647801.076    24698486.970        1456.234        1134.728
 90 11  1  9 56 15.1060000  0  4G18G 2G11G 6
  17575922.017    13696053.746    20504667.207       -3962.764       -3087.867
 -10623754.639    -8216972.516    23740122.538        -140.446        -109.439
   5608930.870     4410606.939    24063148.208       -3171.846       -2471.570
  -8755499.040    -6664643.064    24695873.907        1454.836        1133.638
 90 11  1  9 56 30.2100000  0  4G18G 2G11G 6
  17635807.357    13742717.940    20517593.859       -3966.591       -3090.851
 -10621592.127    -8215287.267    23742059.995        -145.462        -113.347
   5656896.116     4447981.884    24073809.966       -3178.968       -2477.118
  -8777459.002    -6681755.194    24693226.600        1453.471        1132.575
 90 11  1  9 56 45.0580000  0  4G18G 2G11G 6
  17694729.491    13788630.630    20530307.884       -3969.666       -3093.244
 -10619398.506    -8213577.829    23743981.846        -149.672        -116.628
   5704146.118     4484800.452    24084302.207       -3185.217       -2481.989
  -8799032.467    -6698566.111    24690624.447        1452.837        1132.081
 90 11  1  9 57  0.1620000  0  4G18G 2G11G 6
  17754717.440    13835374.241    20543249.200       -3973.728       -3096.410
 -10617098.165    -8211785.636    23745948.443        -154.994        -120.775
   5752311.006     4522331.313    24094997.864       -3192.566       -2487.713
  -8820964.966    -6715655.467    24687980.384        1451.165        1130.779
 90 11  1  9 57 15.0100000  0  4G18G 2G11G 6
  17813741.819    13881367.643    20555988.060       -3976.845       -3098.839
 -10614765.409    -8209967.983    23747896.079        -159.315        -124.142
   5799760.106     4559305.058    24105531.570       -3198.886       -2492.638
  -8842506.770    -6732441.755    24685386.170        1450.431        1130.205
 90 11  1  9 57 30.1140000  0  4G18G 2G11G 6
  17873838.849    13928195.908    20568958.387       -3980.449       -3101.651
 -10612319.677    -8208061.736    23749893.760        -164.160        -127.917
   5848131.396     4596996.267    24116265.871       -3205.721       -2497.965
  -8864401.241    -6749502.434    24682748.910        1449.175        1129.227
 90 11  1  9 57 45.2180000  0  4G18G 2G11G 6
  17933978.117    13975057.869    20581929.606       -3983.844       -3104.294
 -10609811.985    -8206107.904    23751900.731        -168.812        -131.542
   5896593.999     4634759.615    24127022.660       -3212.369       -2503.145
  -8886288.645    -6766557.370    24680112.124        1448.115        1128.401
 90 11  1  9 58  0.0660000  0  4G18G 2G11G 6
  17993160.977    14021174.365    20594696.871       -3987.532       -3107.166
 -10607264.695    -8204123.600    23753890.062        -173.747        -135.388
   5944342.568     4671968.571    23837817.381       -3219.278       -2508.529
  -8907776.054    -6783301.213    24677531.768        1446.697        1127.296
 90 11  1  9 58 15.1700000  0  4G18G 2G11G 6
  18053416.334    14068126.128    20607694.242       -3991.887       -3110.562
 -10604603.497    -8202049.935    23755930.477        -179.404        -139.795
   5993018.222     4709897.614    23848613.621       -3226.878       -2514.451
  -8929617.376    -6800319.899    24674906.965        1444.629        1125.685
 90 11  1  9 58 30.0180000  0  4G18G 2G11G 6
  18112705.175    14114325.312    20620486.498       -3995.186       -3113.133
 -10601913.161    -8199953.188    23757951.122        -183.976        -143.358
   6040971.548     4747263.999    23859246.017       -3233.361       -2519.502
  -8951065.781    -6817033.460    24672332.151        1443.513        1124.814
 90 11  1  9 58 45.1220000  0  4G18G 2G11G 6
  18173068.182    14161361.670    20633506.116       -3998.465       -3115.684
 -10599103.757    -8197764.202    23760021.324        -188.607        -146.968
   6089853.460     4785353.308    23870084.863       -3239.891       -2524.592
  -8972865.695    -6834020.141    24669719.993        1442.459        1123.993
 90 11  1  9 59  0.2260000  0  4G18G 2G11G 6
  18233491.793    14208444.431    20646541.379       -4002.958       -3119.189
 -10596215.441    -8195513.391    23762107.201        -194.430        -151.504
   6138843.072     4823526.944    23880943.001       -3247.622       -2530.613
  -8994638.519    -6850986.239    24667112.723        1440.146        1122.190
 90 11  1  9 59 15.0740000  0  4G18G 2G11G 6
  18292945.102    14254771.570    20659370.024       -4005.528       -3121.191
 -10593301.472    -8193242.609    23764174.450        -198.347        -154.556
   6187105.618     4861133.500    23891641.389       -3253.393       -2535.111
  -9016021.047    -6867647.484    24664558.106        1439.679        1121.829
 90 11  1  9 59 30.1780000  0  4G18G 2G11G 6
  18353471.291    14301934.317    20672426.444       -4009.130       -3123.997
 -10590268.950    -8190879.220    23766289.044        -203.321        -158.432
   6236295.604     4899463.906    23902543.924       -3260.252       -2540.457
  -9037754.944    -6884583.362    24661958.541        1438.206        1120.680
 90 11  1  9 59 45.0270000  0  4G18G 2G11G 6
  18413028.691    14348342.865    20385479.832       -4012.958       -3126.980
 -10587213.681    -8188498.976    23468591.802        -208.511        -162.476
   6284756.892     4937225.679    23613485.054       -3267.262       -2545.915
  -9059100.441    -6901216.215    24359619.085        1436.437        1119.301
 90 11  1 10  0  0.1310000  0  4G18G 2G11G 6
  18473663.065    14395590.825    20398560.514       -4015.836       -3129.221
 -10584030.474    -8186019.071    23470739.146        -212.777        -165.800
   6334153.237     4975716.131    23624426.407       -3273.386       -2550.689
  -9080788.738    -6918116.188    24357034.557        1435.620        1118.666
 90 11  1 10  0 15.2350000  0  4G18G 2G11G 6
  18534349.538    14442878.350    20411650.459       -4020.245       -3132.659
 -10580775.459    -8183482.335    23472900.014        -218.608        -170.344
   6383649.572     5014284.405    23635387.249       -3281.051       -2556.664
  -9102457.916    -6935000.957    24354454.010        1433.254        1116.821
 90 11  1 10  0 30.0830000  0  4G18G 2G11G 6
  18594063.203    14489408.224    20424531.121       -4023.948       -3135.544
 -10577498.048    -8180928.710    23475041.814        -223.731        -174.337
   6432411.281     5052280.810    23646185.869       -3287.939       -2562.027
  -9123731.154    -6951577.938    24351921.286        1431.481        1115.439
 90 11  1 10  0 45.1870000  0  4G18G 2G11G 6
  18654864.553    14536785.666    20437648.038       -4026.775       -3137.748
 -10574084.983    -8178268.412    23477239.031        -227.999        -177.662
   6482120.033     5091015.089    23657189.395       -3293.974       -2566.733
  -9145344.815    -6968419.276    24349357.140        1430.646        1114.790
 90 11  1 10  1  0.0350000  0  4G18G 2G11G 6
  18714675.061    14583391.606    20450549.957       -4029.421       -3139.809
 -10570667.255    -8175605.640    23479409.750        -232.098        -180.855
   6531074.452     5129161.262    23668027.056       -3299.833       -2571.297
  -9166579.883    -6984965.848    24346834.190        1429.910        1114.216
 90 11  1 10  1 15.1390000  0  4G18G 2G11G 6
  18775559.956    14630833.799    20463682.589       -4032.516       -3142.219
 -10567126.677    -8172846.533    23481627.268        -236.670        -184.418
   6580963.529     5168035.809    23679064.877       -3306.146       -2576.215
  -9188167.223    -7001787.467    24344273.132        1428.729        1113.295
 90 11  1 10  1 30.2430000  0  4G18G 2G11G 6
  18836491.214    14678313.052    20476820.799       -4036.097       -3145.010
 -10563515.857    -8170033.407    23483863.358        -241.754        -188.380
   6630948.467     5206984.870    23690117.735       -3312.967       -2581.532
  -9209736.316    -7018594.584    24341715.487        1427.009        1111.956
 90 11  1 10  1 45.0910000  0  4G18G 2G11G 6
  18896443.092    14725029.003    20489752.768       -4039.043       -3147.307
 -10559891.880    -8167208.862    23486072.452        -246.199        -191.844
   6680187.206     5245352.384    23701013.130       -3319.110       -2586.317
  -9230914.162    -7035097.141    24339205.191        1425.868        1111.064
 90 11  1 10  2  0.1950000  0  4G18G 2G11G 6
  18957470.501    14772582.186    20502912.247       -4041.782       -3149.441
 -10556139.983    -8164285.948    23488335.154        -250.476        -195.176
   6730363.994     5284451.829    23712106.554       -3325.067       -2590.966
  -9252442.739    -7051872.494    24336656.659        1424.943        1110.346
 90 11  1 10  2 15.0430000  0  4G18G 2G11G 6
  19017526.368    14819378.919    20515868.084       -4046.433       -3153.063
 -10552366.474    -8161345.541    23490577.351        -256.649        -199.986
   6779801.536     5322974.297    23723044.092       -3332.908       -2597.072
  -9273570.098    -7068335.781    24334162.244        1422.045        1108.089
 90 11  1 10  2 30.1470000  0  4G18G 2G11G 6
  19078654.453    14867014.013    20229255.323       -4048.304       -3154.522
 -10548464.190    -8158304.499    23492871.434        -260.049        -202.636
   6830180.820     5362230.645    23734182.024       -3337.980       -2601.023
  -9295047.480    -7085071.256    24331625.419        1421.942        1108.007
 90 11  1 10  2 45.2510000  0  4G18G 2G11G 6
  19139827.371    14914681.348    20242449.199       -4052.652       -3157.909
 -10544496.916    -8155213.451    23495176.635        -265.976        -207.254
   6880650.126     5401556.472    23745336.324       -3345.545       -2606.915
  -9316510.646    -7101795.441    24329091.273        1419.312        1105.957
 90 11  1 10  3  0.0990000  0  4G18G 2G11G 6
  19200025.356    14961588.477    20255431.553       -4055.136       -3159.844
 -10540512.594    -8152108.578    23497462.571        -270.054        -210.431
   6930372.283     5440301.338    23756322.494       -3351.227       -2611.345
  -9337572.824    -7118207.775    24326611.238        1418.459        1105.293
 90 11  1 10  3 15.2030000  0  4G18G 2G11G 6
  19261302.123    15009337.077    20268644.384       -4058.728       -3162.646
 -10536392.569    -8148898.546    23499801.874        -275.264        -214.492
   6981041.798     5479784.091    23767521.286       -3358.041       -2616.659
  -9358981.422    -7134890.138    24324091.460        1416.554        1103.807
 90 11  1 10  3 30.0510000  0  4G18G 2G11G 6
  19321581.621    15056307.626    20281643.545       -4061.458       -3164.773
 -10532278.741    -8145692.754    23502110.174        -279.586        -217.859
   7030940.243     5518666.255    23778546.021       -3363.935       -2621.244
  -9380011.712    -7151276.622    24321616.515        1415.401        1102.910
 90 11  1 10  3 45.1550000  0  4G18G 2G11G 6
  19382941.846    15104120.343    20294873.814       -4063.813       -3166.608
 -10528028.881    -8142380.714    23504472.676        -283.569        -220.963
   7081789.121     5558287.955    23789771.474       -3369.510       -2625.591
  -9401386.342    -7167932.824    24319104.776        1414.667        1102.338
 90 11  1 10  4  0.2590000  0  4G18G 2G11G 6
  19444346.370    15151967.939    20308116.584       -4067.069       -3169.144
 -10523708.267    -8139014.262    23506849.550        -288.481        -224.791
   7132731.139     5597982.985    23801018.644       -3375.960       -2630.616
  -9422740.628    -7184572.531    24316595.508        1412.972        1101.016
 90 11  1 10  4 15.1070000  0  4G18G 2G11G 6
  19504753.327    15199038.537    20321136.119       -4070.210       -3171.590
 -10519393.926    -8135652.096    23509200.371        -293.283        -228.532
   7182900.151     5637075.847    23812094.787       -3382.286       -2635.547
  -9443712.726    -7200914.259    24314131.346        1411.341        1099.746
 90 11  1 10  4 30.2110000  0  4G18G 2G11G 6
  19566261.886    15246966.943    20334400.303       -4073.225       -3173.941
 -10514919.541    -8132165.831    23511610.364        -297.999        -232.208
   7234042.101     5676926.548    23823388.499       -3388.530       -2640.413
  -9465009.622    -7217509.034    24311639.190        1409.798        1098.543
 90 11  1 10  4 45.0590000  0  4G18G 2G11G 6
  19626766.169    15294112.952    20347448.252       -4076.187       -3176.250
 -10510457.782    -8128688.747    23513991.295        -302.635        -235.819
   7284402.979     5716169.011    23834503.088       -3394.623       -2645.161
  -9485928.594    -7233809.559    24309188.457        1408.297        1097.373
 90 11  1 10  5  0.1630000  0  4G18G 2G11G 6
  19688358.604    15342106.983    20360726.701       -4079.732       -3179.010
 -10505847.142    -8125097.105    23516428.312        -307.904        -239.926
   7335725.219     5756160.667    23845829.993       -3401.378       -2650.422
  -9507184.496    -7250372.714    24306704.427        1406.191        1095.733
 90 11  1 10  5 15.0110000  0  4G18G 2G11G 6
  19748951.763    15389322.609    20373794.501       -4082.314       -3181.024
 -10501246.263    -8121511.524    23518838.298        -312.187        -243.263
   7386269.898     5795545.524    23856979.531       -3407.124       -2654.906
  -9528056.084    -7266636.480    24304266.363        1404.991        1094.798
 90 11  1 10  5 30.1150000  0  4G18G 2G11G 6
  19810628.488    15437382.223    20387089.634       -4084.937       -3183.064
 -10496500.348    -8117813.232    23521300.630        -316.566        -246.675
   7437772.644     5835677.634    23868341.078       -3412.960       -2659.449
  -9549270.148    -7283166.834    24301790.978        1403.749        1093.830
 90 11  1 10  5 45.2190000  0  4G18G 2G11G 6
  19872351.242    15485477.024    20400394.301       -4088.698       -3185.999
 -10491682.087    -8114059.234    23523780.159        -322.094        -250.982
   7489366.129     5875882.581    23579929.693       -3419.924       -2664.878
  -9570459.878    -7299678.242    24299317.864        1401.328        1091.945
 90 11  1 10  6  0.0670000  0  4G18G 2G11G 6
  19933075.662    15532794.807    20413485.056       -4090.867       -3187.688
 -10486871.109    -8110310.591    23526231.915        -326.005        -254.031
   7540184.471     5915481.134    23591138.449       -3425.250       -2669.026
  -9591260.611    -7315886.659    24296897.126        1400.455        1091.264
 90 11  1 10  6 15.1710000  0  4G18G 2G11G 6
  19994887.122    15580959.642    20426810.811       -4093.690       -3189.887
 -10481910.345    -8106444.837    23528739.580        -330.642        -257.643
   7591966.609     5955831.161    23602555.585       -3431.286       -2673.726
  -9612398.961    -7332358.565    24294439.962        1398.887        1090.041
 90 11  1 10  6 30.0190000  0  4G18G 2G11G 6
  20055688.249    15628337.104    20439925.355       -4095.866       -3191.582
 -10476970.680    -8102595.400    23531218.395        -334.588        -260.719
   7642955.587     5995562.657    23613795.618       -3436.592       -2677.863
  -9633162.023    -7348536.791    24292026.333        1397.949        1089.311
 90 11  1 10  6 45.1230000  0  4G18G 2G11G 6
  20117567.935    15676555.359    20453260.353       -4097.788       -3193.080
 -10471887.265    -8098634.220    23533747.540        -338.314        -263.622
   7694902.197     6036040.593    23625240.741       -3441.684       -2681.831
  -9654269.252    -7364984.264    24289573.201        1397.277        1088.787
 90 11  1 10  7  0.2270000  0  4G18G 2G11G 6
  20179488.211    15724804.344    20466605.673       -4101.339       -3195.849
 -10466736.304    -8094620.221    23536290.103        -343.779        -267.880
   7746937.194     6076586.721    23636704.277       -3448.492       -2687.134
  -9675356.101    -7381415.271    24287120.769        1394.868        1086.911
 90 11  1 10  7 15.0750000  0  4G18G 2G11G 6
  20240396.676    15772265.118    20479726.927       -4104.022       -3197.940
 -10461606.942    -8090623.684    23538801.655        -348.279        -271.386
   7798174.661     6116512.127    23647995.517       -3454.304       -2691.666
  -9696064.087    -7397551.471    24284717.261        1393.323        1085.706
 90 11  1 10  7 30.1790000  0  4G18G 2G11G 6
  20302391.804    15820573.433    20493094.514       -4105.891       -3199.392
 -10456323.715    -8086506.758    23541371.899        -352.029        -274.309
   7850381.364     6157192.577    23659491.362       -3459.360       -2695.605
  -9717109.933    -7413949.963    24582068.032        1392.563        1085.115
 90 11  1 10  7 45.0270000  0  4G18G 2G11G 6
  20363375.758    15868093.240    20506237.194       -4107.755       -3200.847
 -10451063.266    -8082408.019    23543910.517        -355.725        -277.188
   7901788.210     6197249.951    23670814.029       -3464.328       -2699.479
  -9737775.302    -7430052.946    24579674.744        1391.798        1084.518
 90 11  1 10  8  0.1310000  0  4G18G 2G11G 6
  20425446.103    15916459.060    20519613.222       -4111.195       -3203.531
 -10445650.258    -8078189.890    23546504.014        -361.107        -281.383
   7954164.317     6238062.084    23682339.522       -3470.977       -2704.659
  -9758778.062    -7446418.989    24577241.069        1389.375        1082.629
 90 11  1 10  8 15.2350000  0  4G18G 2G11G 6
  20487547.800    15964849.737    20532992.666       -4112.540       -3204.575
 -10440175.507    -8073923.896    23549108.782        -364.367        -283.922
   8006619.486     6278936.443    23693890.300       -3475.516       -2708.195
  -9779765.708    -7462773.002    24574812.004        1389.063        1082.386
 90 11  1 10  8 30.0830000  0  4G18G 2G11G 6
  20548625.637    16012443.229    20546149.026       -4114.791       -3206.333
 -10434736.341    -8069685.615    23551679.600        -368.518        -287.157
   8058263.392     6319177.874    23705253.115       -3480.877       -2712.374
  -9800382.313    -7478838.105    24572423.019        1387.796        1081.399
 90 11  1 10  8 45.1870000  0  4G18G 2G11G 6
  20610806.409    16060895.860    20559545.097       -4118.415       -3209.154
 -10429124.049    -8065312.421    23554311.782        -374.102        -291.508
   8110893.414     6360188.857    23716830.950       -3487.685       -2717.675
  -9821320.293    -7495152.964    24570002.103        1385.139        1079.329
 90 11  1 10  9  0.0350000  0  4G18G 2G11G 6
  20671965.597    16108554.627    20272933.452       -4120.527       -3210.800
 -10423542.592    -8060963.395    23556912.539        -378.147        -294.661
   8162714.035     6400568.449    23728230.486       -3492.943       -2721.773
  -9841881.258    -7511174.544    24567628.929        1383.931        1078.388
 90 11  1 10  9 15.1390000  0  4G18G 2G11G 6
  20734215.962    16157061.246    20286344.147       -4122.712       -3212.501
 -10417802.818    -8056490.615    23559570.623        -382.294        -297.892
   8215509.273     6441707.186    23739840.240       -3498.272       -2725.928
  -9862776.986    -7527457.338    24565215.385        1382.680        1077.413
 90 11  1 10  9 30.2430000  0  4G18G 2G11G 6
  20796515.642    16205606.757    20299762.898       -4126.531       -3215.478
 -10411983.446    -8051955.979    23562244.392        -388.124        -302.435
   8268401.044     6482921.776    23751473.637       -3505.260       -2731.371
  -9883637.587    -7543711.625    24562814.778        1379.702        1075.093
 90 11  1 10  9 45.0910000  0  4G18G 2G11G 6
  20857793.009    16253355.301    20312966.946       -4127.558       -3216.279
 -10406198.207    -8047448.482    23564886.117        -391.161        -304.801
   8320477.953     6523500.771    23762921.844       -3509.434       -2734.620
  -9904122.223    -7559674.039    24560457.147        1379.476        1074.916
 90 11  1 10 10  0.1950000  0  4G18G 2G11G 6
  20920154.939    16301949.132    20326398.127       -4130.272       -3218.392
 -10400256.117    -8042817.862    23567583.932        -395.911        -308.502
   8373527.357     6564838.030    23774591.074       -3515.310       -2739.202
  -9924943.832    -7575898.893    24558062.831        1377.528        1073.398
 90 11  1 10 10 15.0430000  0  4G18G 2G11G 6
  20981503.427    16349752.365    20339613.204       -4133.144       -3220.629
 -10394341.869    -8038208.771    23570250.682        -400.797        -312.309
   8425768.166     6605544.767    23786067.697       -3521.306       -2743.874
  -9945382.378    -7591824.759    24555716.219        1375.427        1071.761
 90 11  1 10 10 30.1470000  0  4G18G 2G11G 6
  21043937.708    16398402.967    20353064.926       -4135.107       -3222.160
 -10388264.672    -8033473.754    23572976.096        -404.812        -315.438
   8478984.445     6647012.429    23797763.924       -3526.425       -2747.862
  -9966154.855    -7608011.360    24553328.552        1374.215        1070.817
 90 11  1 10 10 45.2510000  0  4G18G 2G11G 6
  21106422.839    16447091.858    20366524.096       -4137.589       -3224.096
 -10382106.859    -8028675.514    23575719.194        -409.388        -319.004
   8532300.415     6688556.593    23809481.390       -3532.104       -2752.287
  -9986888.971    -7624167.403    24550955.637        1372.396        1069.399
 90 11  1 10 11  0.0990000  0  4G18G 2G11G 6
  21167874.485    16494976.292    20379763.251       -4139.648       -3225.702
 -10375996.463    -8023913.851    23578425.068        -413.499        -322.208
   8584784.017     6729453.215    23821011.081       -3537.229       -2756.280
 -10007254.527    -7640036.792    24548623.664        1371.024        1068.331
 90 11  1 10 11 15.2030000  0  3G18G 2G 6
  21230428.136    16543719.612    20393241.827       -4142.863       -3228.204
 -10369706.041    -8019012.424    23581194.815        -418.853        -326.378
 -10027938.629    -7656154.673    24546261.043        1368.422        1066.303
 90 11  1 10 11 30.0510000  0  3G18G 2G 6
  21291958.500    16591664.887    20406496.512       -4144.790       -3229.706
 -10363455.240    -8014141.757    23583930.601        -422.870        -329.510
 -10048244.683    -7671977.735    24543942.424        1367.077        1065.255
 90 11  1 10 11 45.1550000  0  3G18G 2G 6
  21354570.806    16640453.610    20419980.398       -4145.630       -3230.361
 -10357042.110    -8009145.150    23586721.645        -425.866        -331.844
 -10068888.757    -7688063.481    24541585.093        1366.801        1065.039
 90 11  1 10 12  0.2590000  0  3G18G 2G 6
  21417208.223    16689261.685    20433473.363       -4148.497       -3232.597
 -10350571.913    -8004103.096    23589524.996        -430.902        -335.768
 -10089514.611    -7704136.063    24539230.262        1364.463        1063.217
 90 11  1 10 12 15.1070000  0  3G18G 2G 6
  21478821.598    16737272.351    20446741.023       -4150.743       -3234.342
 -10344141.810    -7999091.967    23592293.626        -435.255        -339.160
 -10109762.253    -7719913.053    24536924.046        1362.766        1061.895
 90 11  1 10 12 30.2110000  0  3G18G 2G 6
  21541536.676    16786140.629    20460253.622       -4153.524       -3236.514
 -10337528.480    -7993939.512    23595124.823        -440.272        -343.069
 -10130326.607    -7735937.420    24534584.068        1360.400        1060.053
 90 11  1 10 12 45.0590000  0  3G18G 2G 6
  21603219.871    16834205.761    20473531.487       -4155.804       -3238.290
 -10330963.085    -7988823.533    23597921.473        -444.704        -346.522
 -10150516.888    -7751670.381    24532287.822        1358.575        1058.631
 90 11  1 10 13  0.1630000  0  3G18G 2G 6
  21666005.122    16883129.549    20487057.783       -4157.168       -3239.350
 -10324214.361    -7983564.544    23600782.508        -448.298        -349.323
 -10171024.467    -7767649.796    24529962.134        1357.627        1057.891
 90 11  1 10 13 15.0110000  0  3G18G 2G 6
  21727762.498    16931251.604    20500362.720       -4160.482       -3241.934
 -10317510.865    -7978340.652    23603607.211        -453.821        -353.627
 -10191153.479    -7783335.474    24527681.549        1354.678        1055.594
 90 11  1 10 13 30.1150000  0  3G18G 2G 6
  21790616.578    16980229.067    20513897.281       -4162.600       -3243.584
 -10310624.355    -7972974.828    23606495.112        -458.213        -357.049
 -10211602.837    -7799269.561    24525367.692        1352.875        1054.188
 90 11  1 10 13 45.2190000  0  3G18G 2G 6
  21853492.682    17029222.769    20527440.281       -4163.130       -3243.995
 -10303682.449    -7967565.981    23609393.281        -460.996        -359.217
 -10232034.973    -7815191.028    24523054.540        1352.665        1054.024
 90 11  1 10 14  0.0670000  0  3G18G 2G 6
  21915326.773    17077404.872    20540755.984       -4166.222       -3246.404
 -10296801.558    -7962203.658    23612251.325        -466.348        -363.388
 -10252101.707    -7830826.783    24520785.763        1349.800        1051.790
 90 11  1 10 14 15.1710000  0  3G18G 2G 6
  21978277.580    17126457.261    20554312.360       -4169.175       -3248.704
 -10289716.315    -7956683.192    23615180.277        -471.598        -367.479
 -10272467.490    -7846696.331    24518492.556        1347.100        1049.687
 90 11  1 10 14 30.0190000  0  3G18G 2G 6
  22040208.021    17174714.986    20567656.630       -4173.215       -3251.856
 -10282670.932    -7951192.900    23618078.319        -477.905        -372.394
 -10292443.828    -7862262.827    24516247.351        1343.261        1046.696
 90 11  1 10 14 45.1230000  0  3G18G 2G 6
  22103257.365    17223844.599    20581245.015       -4175.396       -3253.555
 -10275417.222    -7945540.968    23621046.143        -482.440        -375.929
 -10312717.155    -7878059.608    24513976.570        1341.230        1045.115
 90 11  1 10 15  0.2270000  0  3G18G 2G 6
  22166338.620    17272998.192    20594837.433       -4177.435       -3255.145
 -10268097.204    -7939836.880    23624030.353        -486.830        -379.348
 -10332959.949    -7893833.743    24511715.840        1339.352        1043.651
 90 11  1 10 15 15.0750000  0  3G18G 2G 6
  22228380.151    17321344.808    20308413.873       -4180.158       -3257.266
 -10260833.044    -7934176.251    23626973.432        -491.898        -383.298
 -10352829.425    -7909316.326    24509497.255        1336.714        1041.596
 90 11  1 10 15 30.1790000  0  3G18G 2G 6
  22291526.923    17370550.351    20322026.886       -4181.520       -3258.326
 -10253375.096    -7928365.198    23629986.387        -495.665        -386.233
 -10373009.370    -7925041.423    24507250.296        1335.412        1040.581
 90 11  1 10 15 45.0270000  0  3G18G 2G 6
  22353634.613    17418946.448    20335412.550       -4183.860       -3260.148
 -10245977.739    -7922600.584    23632959.798        -500.375        -389.904
 -10392817.291    -7940475.696    24505044.442        1333.099        1038.778
 90 11  1 10 16  0.1310000  0  3G18G 2G 6
  22416835.354    17468193.072    20349027.422       -4184.379       -3260.551
 -10238394.717    -7916692.171    23635993.735        -503.314        -392.193
 -10412945.462    -7956160.435    24502808.535        1332.580        1038.375
 90 11  1 10 16 15.2350000  0  3G18G 2G 6
  22480044.640    17517446.699    20362645.871       -4187.304       -3262.837
 -10230766.065    -7910747.875    23639036.643        -508.644        -396.346
 -10433064.686    -7971837.405    24500568.228        1329.650        1036.091
 90 11  1 10 16 30.0830000  0  3G18G 2G 6
  22542251.316    17565919.257    20376054.683       -4190.903       -3265.637
 -10223162.246    -7904823.136    23642052.529        -514.668        -401.041
 -10452773.414    -7987194.755    24498389.914        1325.959        1033.214
 90 11  1 10 16 45.1870000  0  3G18G 2G 6
  22605577.059    17615264.267    20389704.836       -4193.097       -3267.347
 -10215344.258    -7898730.464    23645145.088        -519.301        -404.650
 -10472773.941    -8002779.507    24496185.672        1323.687        1031.445
 90 11  1 10 17  0.0350000  0  3G18G 2G 6
  22667841.336    17663781.621    20403130.163       -4193.176       -3267.412
 -10207610.397    -7892704.091    23648188.072        -521.852        -406.638
 -10492421.786    -8018089.648    24494018.899        1323.447        1031.258
 90 11  1 10 17 15.1390000  0  3G18G 2G 6
  22731190.806    17713144.580    20416776.937       -4195.610       -3269.305
 -10199694.284    -7886535.880    23651292.688        -526.763        -410.465
 -10512394.611    -8033652.772    24491816.540        1320.875        1029.254
 90 11  1 10 17 30.2430000  0  3G18G 2G 6
  22794560.136    17762523.087    20430433.032       -4196.149       -3269.725
 -10191719.960    -7880322.389    23654405.042        -529.800        -412.832
 -10532344.254    -8049198.710    24489615.431        1320.136        1028.676
 90 11  1 10 17 45.0910000  0  3G18G 2G 6
  22856880.112    17811083.978    20443861.491       -4198.086       -3271.236
 -10183820.160    -7874166.583    23657480.966        -534.237        -416.289
 -10551928.737    -8064459.100    24487459.236        1317.961        1026.981
 90 11  1 10 18  0.1950000  0  3G18G 2G 6
  22920319.326    17860516.976    20457536.021       -4201.194       -3273.655
 -10175700.486    -7867839.571    23660624.472        -539.870        -420.679
 -10571802.549    -8079944.644    24485278.238        1314.604        1024.368
 90 11  1 10 18 15.0430000  0  3G18G 2G 6
  22982711.439    17909134.186    20470984.043       -4203.605       -3275.533
 -10167652.966    -7861568.890    23663732.728        -544.793        -424.514
 -10591307.037    -8095142.879    24483143.159        1311.871        1022.238
 90 11  1 10 18 30.1470000  0  3G18G 2G 6
  23046205.124    17958609.183    20484673.335       -4203.592       -3275.522
 -10159403.796    -7855140.617    23666905.062        -547.363        -426.517
 -10611116.950    -8110579.052    24480974.655        1311.545        1021.983
 90 11  1 10 18 45.2510000  0  3G18G 2G 6
  23109705.698    18008090.297    20498353.198       -4204.331       -3276.102
 -10151106.634    -7848675.378    23670084.230        -550.704        -429.120
 -10630913.463    -8126005.445    24478806.988        1310.434        1021.120
 90 11  1 10 19  0.0990000  0  3G18G 2G 6
  23172160.690    18056756.620    20511814.114       -4206.874       -3278.083
 -10142881.836    -7842266.364    23673223.287        -555.806        -433.095
 -10650338.931    -8141142.043    24476685.947        1307.473        1018.810
 90 11  1 10 19 15.2030000  0  3G18G 2G 6
  23235704.289    18106271.228    20525501.290       -4207.406       -3278.497
 -10134464.194    -7835707.179    23676425.305        -558.958        -435.551
 -10670080.434    -8156525.409    24474529.924        1306.517        1018.064
 90 11  1 10 19 30.0510000  0  3G18G 2G 6
  23298183.296    18154955.686    20538961.525       -4208.375       -3279.254
 -10126138.547    -7829219.649    23679580.822        -562.515        -438.323
 -10689469.579    -8171633.656    24472411.992        1305.091        1016.954
 90 11  1 10 19 45.1550000  0  4G18G 2G13G 6
  23361762.509    18204497.849    20552662.983       -4210.788       -3281.131
 -10117606.280    -7822571.324    23682802.690        -567.573        -442.265
         0.838                    24454407.452        3452.602
 -10709162.615    -8186978.295    24470263.632        1302.194        1014.697
 90 11  1 10 20  0.2590000  0  4G18G 2G13G 6
  23425364.326    18254057.575    20566369.262       -4210.822       -3281.159
 -10109011.445    -7815874.137    23686038.112        -570.283        -444.376
    -52142.418                    24446085.391        3452.241
 -10728824.640    -8202299.399    24468121.972        1301.599        1014.233
 90 11  1 10 20 15.1070000  0  4G18G 2G13G 6
  23487898.236    18302785.139    20579839.115       -4212.704       -3282.631
 -10100512.824    -7809252.019    23689225.149        -574.824        -447.916
   -103386.771                    24437907.807        3449.988
 -10748134.981    -8217346.979    24466016.233        1299.119        1012.301
 90 11  1 10 20 30.2110000  0  4G18G 2G13G 6
  23551549.456    18352383.321    20593549.888       -4214.708       -3284.189
 -10091788.403    -7802453.295    23692486.547        -579.511        -451.566
   -155469.946                    24429589.626        3447.559
 -10767729.581    -8232615.331    24463888.945        1296.540        1010.292
 90 11  1 10 20 45.0590000  0  4G18G 2G13G 6
  23614141.890    18401156.491    20607030.360       -4216.165       -3285.320
 -10083151.362    -7795723.293    23695701.906        -583.645        -454.788
   -206643.425           0.394    24421431.773        3445.661        2684.929
 -10786963.976    -8247603.212    24461801.895        1294.435        1008.650
 90 11  1 10 21  0.1630000  0  4G18G 2G13G 6
  23677844.167    18450794.669    20620757.381       -4218.926       -3287.476
 -10074293.725    -7788821.407    23698990.994        -589.186        -459.106
   -258661.594      -40533.328    24413132.476        3442.404        2682.401
 -10806488.762    -8262816.842    24459690.365        1290.970        1005.950
 90 11  1 10 21 15.0110000  0  4G18G 2G13G 6
  23740498.594    18499616.433    20634259.039       -4220.627       -3288.797
 -10065514.797    -7781980.126    23702241.594        -593.555        -462.511
   -309759.530      -80349.810    24404990.262        3440.188        2680.654
 -10825640.636    -8277740.537    24457624.367        1288.604        1004.108
 90 11  1 10 21 30.1150000  0  4G18G 2G13G 6
  23804262.230    18549305.359    20348212.208       -4223.294       -3290.873
 -10056508.992    -7774962.730    23705565.417        -598.979        -466.736
   -361695.835     -120819.652    24396710.776        3436.896        2678.112
 -10845078.588    -8292886.990    24455533.108        1285.196        1001.452
 90 11  1 10 21 45.2190000  0  4G18G 2G13G 6
  23868063.852    18599020.549    20361965.226       -4224.800       -3292.050
 -10047428.995    -7767887.590    23708905.315        -603.275        -470.084
   -413590.678     -161257.149    24388450.512        3434.776        2676.448
 -10864471.736    -8307998.742    24453454.818        1282.896         999.660
 90 11  1 10 22  0.0670000  0  4G18G 2G13G 6
  23930801.197    18647906.920    20375486.725       -4226.128       -3293.086
 -10038443.260    -7760885.916    23712197.944        -607.325        -473.241
   -464577.423     -200987.238    24380331.570        3432.792        2674.906
 -10883506.506    -8322831.505    24451420.449        1280.783         998.014
 90 11  1 10 22 15.1710000  0  4G18G 2G13G 6
  23994649.792    18697658.592    20389250.416       -4227.940       -3294.494
 -10029232.256    -7753708.614    23715564.726        -611.957        -476.850
   -516403.320     -241371.358    24372087.873        3430.243        2672.928
 -10902828.032    -8337887.360    24449356.530        1278.120         995.938
 90 11  1 10 22 30.0190000  0  4G18G 2G13G 6
  24057433.239    18746580.421    20402789.378       -4228.761       -3295.140
 -10020119.376    -7746607.348    23718886.278        -615.553        -479.651
   -567322.933     -281048.953    24363981.613        3428.644        2671.668
 -10921792.589    -8352664.602    24447334.302        1276.425         994.617
 90 11  1 10 22 45.1230000  0  4G18G 2G13G 6
  24121319.888    18796361.859    20416559.120       -4230.853       -3296.768
 -10010784.952    -7739334.306    23722277.018        -620.479        -483.490
   -619088.228     -321385.455    24355753.446        3425.758        2669.423
 -10941049.575    -8367669.999    24445284.718        1273.411         992.268
 90 11  1 10 23  0.2270000  0  4G18G 2G13G 6
  24185229.561    18846162.244    20430337.916       -4232.623       -3298.148
 -10001384.108    -7732009.015    23725685.107        -625.111        -487.099
   -670816.670     -361693.448    24347520.390        3423.097        2667.341
 -10960268.141    -8382645.848    24443244.771        1270.694         990.152
 90 11  1 10 23 15.0750000  0  4G18G 2G13G 6
  24248078.508    18895135.546    20443889.698       -4233.076       -3298.502
  -9992078.872    -7724757.769    23729047.153        -628.407        -489.668
   -721632.390     -401290.850    24339444.919        3421.744        2666.296
 -10979124.833    -8397339.659    24441247.500        1269.240         989.017
 90 11  1 10 23 30.1790000  0  4G18G 2G13G 6
  24312028.483    18944965.911    20457676.301       -4234.442       -3299.565
  -9982552.354    -7717334.641    23732479.280        -632.670        -492.990
   -773293.929     -441545.996    24331230.313        3419.332        2664.414
 -10998275.652    -8412261.667    24439222.979        1266.840         987.148
 90 11  1 10 23 45.0270000  0  4G18G 2G13G 6
  24374913.115    18993967.053    20471231.138       -4235.855       -3300.668
  -9973126.115    -7709989.313    23735862.452        -636.921        -496.302
   -824045.550     -481093.340    24323162.474        3416.969        2662.575
 -11017066.227    -8426903.532    24437235.106        1264.394         985.242
 90 11  1 10 24  0.1310000  0  4G18G 2G13G 6
  24438904.519    19043829.674    20485030.985       -4237.276       -3301.777
  -9963471.123    -7702466.337    23739322.084        -641.271        -499.690
   -875639.100     -521292.701    24614760.711        3414.501        2660.641
 -11036142.964    -8441768.732    24435227.609        1261.885         983.288
 90 11  1 10 24 15.2350000  0  5G18G 2G13G15G 6
  24502917.958    19093710.383    20498835.836       -4238.648       -3302.845
  -9953749.884    -7694891.554    23742792.369        -645.573        -503.044
   -927189.726     -561462.199    24606571.616        3411.965        2658.680
         0.268                    24416952.957        1189.630
 -11055180.544    -8456603.524    24433226.598        1259.378         981.334
 90 11  1 10 24 30.0830000  0  5G18G 2G13G15G 6
  24565864.009    19142759.186    20512408.384       -4239.756       -3303.708
  -9944132.452    -7687396.631    23746216.726        -649.587        -506.171
   -977831.619     -600923.829    24598528.945        3409.771        2656.967
    -17619.660                    24415196.690        1184.142
 -11073860.176    -8471158.933    24431266.937        1257.135         979.584
 90 11  1 10 24 45.1870000  0  5G18G 2G13G15G 6
  24629908.400    19192663.682    20526216.857       -4241.217       -3304.844
  -9934291.268    -7679728.646    23749711.645        -654.023        -509.629
  -1029315.967     -641042.063    24590354.729        3407.107        2654.886
    -35464.050                    24413418.609        1178.156
 -11092831.953    -8485942.522    24429278.117        1254.477         977.514
 90 11  1 10 25  0.0350000  0  5G18G 2G13G15G 6
  24692896.095    19241745.440    20539800.590       -4243.119       -3306.325
  -9924544.749    -7672133.887    23753165.942        -658.857        -513.396
  -1079882.019     -680443.517    24582327.115        3403.974        2652.446
    -52909.890                    24411701.497        1171.769
 -11111435.702    -8500438.302    24427336.568        1251.372         975.094
 90 11  1 10 25 15.1390000  0  5G18G 2G13G15G 6
  24756996.438    19291693.138    20553640.093       -4245.002       -3307.793
  -9914558.829    -7664352.357    23756705.927        -663.736        -517.197
  -1131273.579     -720489.164    24574191.866        3400.791        2649.964
    -70560.898           0.473    24409979.452        1165.276         908.007
 -11130314.683    -8515149.607    24425383.978        1248.208         972.630
 90 11  1 10 25 30.2430000  0  5G18G 2G13G15G 6
  24821121.081    19341660.473    20567475.030       -4245.723       -3308.352
  -9904502.898    -7656517.009    23760249.201        -667.472        -520.107
  -1182620.664     -760500.360    24566049.182        3398.721        2648.347
    -88119.030      -13680.982    24408268.880        1159.915         903.833
 -11149149.803    -8529826.230    24423430.970        1246.194         971.060
 90 11  1 10 25 45.0910000  0  5G18G 2G13G15G 6
  24884168.210    19390788.247    20581072.748       -4246.852       -3309.231
  -9894563.121    -7648771.768    23763742.695        -671.618        -523.338
  -1233068.426     -799809.480    24558049.016        3396.174        2646.363
   -105300.168      -27068.629    24406603.467        1154.140         899.330
 -11167636.980    -8544231.530    24421514.285        1243.718         969.130
 90 11  1 10 26  0.1950000  0  5G18G 2G13G15G 6
  24948318.761    19440775.556    20594912.506       -4247.609       -3309.826
  -9884390.654    -7640844.682    23767306.951        -675.409        -526.292
  -1284347.960     -839768.010    24549924.810        3393.991        2644.672
   -122690.375      -40619.856    24404925.502        1148.639         895.045
 -11186406.365    -8558856.717    24419573.156        1241.590         967.472
 90 11  1 10 26 15.0430000  0  5G18G 2G13G15G 6
  25011396.016    19489926.349    20608515.668       -4249.132       -3311.010
  -9874330.900    -7633006.215    23770826.277        -679.949        -529.830
  -1334722.694     -879021.373    24541939.098        3390.979        2642.326
   -139701.708      -53875.504    24403288.271        1142.414         890.191
 -11204822.012    -8573207.498    24417670.914        1238.684         965.208
 90 11  1 10 26 30.1470000  0  5G18G 2G13G15G 6
  25075574.560    19539935.060    20622361.391       -4249.551       -3311.340
  -9864039.392    -7624986.644    23774415.161        -683.428        -532.541
  -1385930.209     -918923.282    24533828.048        3389.051        2640.826
   -156921.783      -67293.910    24401640.981        1137.194         886.121
 -11223522.233    -8587778.245    24415743.861        1236.843         963.773
 90 11  1 10 26 45.2510000  0  5G18G 2G13G15G 6
  25139756.037    19589946.661    20636199.905       -4249.839       -3311.558
  -9853697.149    -7616927.769    23778013.057        -686.811        -535.178
  -1437110.152     -958803.835    24525716.664        3387.209        2639.373
   -174064.601      -80651.854    24400008.157        1132.026         882.102
 -11242194.705    -8602328.896    24413819.242        1235.068         962.392
 90 11  1 10 27  0.0990000  0  5G18G 2G13G15G 6
  25202872.182    19639128.232    20649812.556       -4251.880       -3313.150
  -9843462.437    -7608952.346    23781564.847        -691.916        -539.156
  -1487377.100     -997973.027    24517755.937        3383.561        2636.537
   -190822.720      -93709.779    24398425.863        1125.139         876.730
 -11260508.477    -8616598.965    24411937.685        1231.526         959.631
 90 11  1 10 27 15.2030000  0  5G18G 2G13G15G 6
  25267097.937    19689173.317    20663669.165       -4252.624       -3313.734
  -9832983.026    -7600787.403    23785190.563        -695.777        -542.164
  -1538465.178    -1037781.846    24509666.214        3381.138        2634.653
   -207774.091     -106919.245    24396835.090        1119.445         872.293
 -11279094.639    -8631080.549    24709827.746        1229.249         957.855
 90 11  1 10 27 30.0510000  0  5G18G 2G13G15G 6
  25330249.838    19738383.045    20677293.252       -4253.938       -3314.762
  -9822620.457    -7592711.829    23788770.266        -700.155        -545.575
  -1588646.562    -1076884.342    24501723.808        3378.158        2632.329
   -224350.227     -119835.253    24395285.715        1113.218         867.441
 -11297325.453    -8645286.368    24707967.442        1226.400         955.637
 90 11  1 10 27 45.1550000  0  5G18G 2G13G15G 6
  25394503.554    19788454.214    20391371.661       -4254.980       -3315.568
  -9812013.825    -7584447.789    23792424.296        -704.395        -548.878
  -1639649.575    -1116627.340    24493654.614        3375.305        2630.106
   -241119.879     -132902.229    24393732.755        1107.107         862.684
 -11315829.522    -8659705.625    24706081.295        1223.688         953.523
 90 11  1 10 28  0.2590000  0  5G18G 2G13G15G 6
  25458772.093    19838533.096    20405233.800       -4255.944       -3316.319
  -9801351.008    -7576138.504    23796087.740        -708.516        -552.090
  -1690615.609    -1156341.271    24485594.599        3372.548        2627.956
   -257802.652     -145901.995    24392193.296        1101.055         857.962
 -11334299.388    -8674097.963    24704201.712        1221.111         951.516
 90 11  1 10 28 15.1070000  0  5G18G 2G13G15G 6
  25521973.941    19887780.941    20418868.453       -4257.128       -3317.244
  -9790798.394    -7567915.575    23799708.052        -712.850        -555.466
  -1740668.261    -1195342.968    24477678.113        3369.509        2625.591
   -274103.297     -158604.146    24390698.800        1094.784         853.079
 -11352408.530    -8688208.902    24702365.969        1218.229         949.269
 90 11  1 10 28 30.2110000  0  5G18G 2G13G15G 6
  25586266.605    19937879.427    20432736.468       -4257.222       -3317.318
  -9780014.196    -7559512.176    23803396.965        -716.158        -558.046
  -1791553.770    -1234994.512    24469633.158        3367.507        2624.029
   -290607.456     -171463.988    24389199.458        1089.523         848.977
 -11370802.966    -8702541.721    24700502.294        1216.409         947.851
 90 11  1 10 28 45.0590000  0  5G18G 2G13G15G 6
  25649479.193    19987135.737    20446378.311       -4257.514       -3317.546
  -9769355.397    -7551207.197    23807034.324        -719.645        -560.761
  -1841538.807    -1273943.786    24461727.887        3365.251        2622.272
   -306745.612     -184039.232    24387733.430        1084.093         844.746
 -11388850.476    -8716604.825    24698677.243        1214.383         946.273
 90 11  1 10 29  0.1630000  0  5G18G 2G13G15G 6
  25713802.165    20037257.424    20460259.273       -4259.357       -3318.970
  -9758445.432    -7542705.352    23810750.036        -724.680        -564.686
  -1892336.240    -1313526.326    24453700.761        3361.441        2619.306
   -323063.384     -196754.659    24386270.295        1077.013         839.228
 -11407162.283    -8730873.859    24696831.980        1210.804         943.483
 90 11  1 10 29 15.0110000  0  5G18G 2G13G15G 6
  25777056.707    20086546.325    20473913.712       -4260.336       -3319.741
  -9747650.230    -7534293.822    23814419.849        -728.859        -567.942
  -1942220.671    -1352397.051    24445824.675        3358.423        2616.954
   -339004.204     -209176.382    24384848.999        1070.803         834.391
 -11425115.195    -8744862.996    24695027.943        1207.998         941.297
 90 11  1 10 29 30.1150000  0  5G18G 2G13G15G 6
  25841420.601    20136700.391    20487800.735       -4261.399       -3320.566
  -9736600.053    -7525683.694    23818163.921        -733.174        -571.304
  -1992913.823    -1391898.553    24437822.212        3355.264        2614.488
   -355122.627     -221734.750    24683215.723        1064.409         829.411
 -11443330.226    -8759056.533    24693207.894        1205.059         939.007
 90 11  1 10 29 45.2190000  0  5G18G 2G13G15G 6
  25905802.101    20186866.919    20501698.426       -4263.235       -3322.003
  -9725485.156    -7517022.414    23821925.312        -738.283        -575.285
  -2043559.479    -1431362.398    24429831.081        3351.327        2611.422
   -371141.770     -234217.046    24681816.184        1057.174         823.771
 -11461499.859    -8773215.434    24691395.316        1201.347         936.115
 90 11  1 10 30  0.0670000  0  5G18G 2G13G15G 6
  25969100.741    20236190.756    20515362.520       -4263.363       -3322.104
  -9714500.526    -7508462.728    23825634.609        -741.704        -577.951
  -2093305.082    -1470125.401    24421982.241        3349.006        2609.614
   -386799.306     -246418.510    24680451.412        1051.620         819.440
 -11479325.417    -8787104.817    24689622.611        1199.268         934.496
 90 11  1 10 30 15.1710000  0  5G18G 2G13G15G 6
  26033507.058    20286377.326    20529267.932       -4265.100       -3323.455
  -9703260.392    -7499704.527    23829423.793        -746.729        -581.867
  -2143858.529    -1509518.260    24414011.284        3345.029        2606.518
   -402629.924     -258753.592    24679095.286        1044.411         813.825
 -11497412.242    -8801198.220    24687826.580        1195.577         931.618
 90 11  1 10 30 30.0190000  0  5G18G 2G13G15G 6
  26096841.790    20335728.837    20542942.030       -4266.755       -3324.737
  -9692142.205    -7491041.136    23833161.092        -751.630        -585.686
  -2193503.219    -1548201.836    24406184.163        3341.148        2603.496
   -418090.076     -270800.986    24677767.116        1037.334         808.309
 -11515143.104    -8815014.860    24686076.892        1191.964         928.803
 90 11  1 10 30 45.1230000  0  5G18G 2G13G15G 6
  26161295.046    20385952.143    20556854.585       -4268.083       -3325.780
  -9680755.887    -7482168.973    23836978.106        -756.338        -589.355
  -2243941.873    -1587504.865    24398238.349        3337.449        2600.610
   -433708.145     -282970.475    24676443.661        1030.395         802.907
 -11533122.547    -8829024.719    24684305.411        1188.540         926.135
 90 11  1 10 31  0.2270000  0  5G18G 2G13G15G 6
  26225772.418    20436193.902    20570786.840       -4270.108       -3327.355
  -9669295.093    -7473238.345    23840815.370        -761.696        -593.530
  -2294320.250    -1626761.416    24390310.476        3333.091        2597.213
   -449217.161     -295055.359    24675150.110        1022.804         796.989
 -11551047.449    -8842991.926    24682553.864        1184.482         922.973
 90 11  1 10 31 15.0750000  0  4G 2G13G15G 6
  -9657955.834    -7464402.188    23844609.641        -765.771        -596.704
  -2343786.874    -1665306.848    24382529.541        3329.915        2594.736
   -464356.956     -306852.478    24673912.061        1016.487         792.068
 -11568613.398    -8856680.260    24680843.752        1181.665         920.777
 90 11  1 10 31 30.1790000  0  4G 2G13G15G 6
  -9646362.272    -7455368.248    23848476.012        -769.445        -599.568
  -2394061.883    -1704482.051    24374624.513        3327.165        2592.594
   -479665.019     -318781.413    24672659.405        1010.479         787.383
 -11586443.308    -8870573.706    24679115.213        1179.209         918.864
 90 11  1 10 31 45.0270000  0  4G 2G13G15G 6
  -9634903.679    -7446439.668    23852290.686        -773.675        -602.864
  -2443439.614    -1742955.685    24666657.021        3323.809        2589.982
   -494617.938     -330433.207    24671447.694        1003.939         782.290
 -11603928.282    -8884197.773    24677421.735        1176.202         916.521
 90 11  1 10 32  0.1310000  0  4G 2G13G15G 6
  -9623183.840    -7437307.077    23856187.146        -778.441        -606.578
  -2493614.647    -1782052.823    24658769.609        3319.888        2586.924
   -509728.920     -342207.785    24670234.984         996.828         776.750
 -11621667.439    -8898020.876    24675711.762        1172.628         913.737
 90 11  1 10 32 15.2350000  0  4G 2G13G15G 6
  -9611401.661    -7428126.390    23860094.987        -781.929        -609.295
  -2543739.429    -1821111.859    24650897.858        3317.232        2584.856
   -524742.249     -353906.397    24669046.925         990.913         772.139
 -11639362.844    -8911810.113    24674007.061        1170.318         911.936
 90 11  1 10 32 30.0830000  0  4G 2G13G15G 6
  -9599765.027    -7419058.877    23863945.682        -785.486        -612.066
  -2592973.748    -1859475.698    24643167.688        3314.435        2582.682
   -539411.488     -365336.841    24667891.256         984.955         767.497
 -11656722.399    -8925336.533    24672343.209        1167.884         910.039
 90 11  1 10 32 45.1870000  0  4G 2G13G15G 6
  -9587878.322    -7409796.141    23867873.029        -789.038        -614.835
  -2643017.349    -1898470.583    24635307.946        3311.660        2580.514
   -554247.162     -376896.833    24666733.624         978.978         762.840
 -11674348.063    -8939070.592    24670653.225        1165.507         908.187
 90 11  1 10 33  0.0350000  0  4G 2G13G15G 6
  -9576126.131    -7400638.979    23871747.493        -794.263        -618.906
  -2692158.183    -1936762.405    24627598.919        3307.174        2577.015
   -568728.414     -388181.083    24665616.833         971.294         756.850
 -11691625.121    -8952533.609    24669004.112        1161.370         904.964
 90 11  1 10 33 15.1390000  0  4G 2G13G15G 6
  -9564098.161    -7391266.291    23875707.195        -798.512        -622.217
  -2742082.434    -1975664.545    24619764.932        3303.606        2574.241
   -583348.757     -399572.945    24664507.153         964.559         751.601
 -11709142.760    -8966184.119    24667342.844        1158.237         902.523
 90 11  1 10 33 30.2430000  0  4G 2G13G15G 6
  -9552000.150    -7381839.548    23879680.903        -802.934        -625.664
  -2791947.860    -2014520.940    24611950.397        3299.841        2571.310
   -597860.789     -410881.865    24663416.864         957.587         746.170
 -11726608.121    -8979793.107    24665689.731        1154.908         899.928
 90 11  1 10 33 45.0910000  0  4G 2G13G15G 6
  -9540053.172    -7372530.369    23883599.731        -807.036        -628.859
  -2840923.787    -2052683.876    24604275.907        3296.333        2568.569
   -612035.058     -421926.660    24662360.841         950.977         741.019
 -11743739.092    -8993141.465    24664075.593        1151.822         897.523
 90 11  1 10 34  0.1950000  0  4G 2G13G15G 6
  -9527831.570    -7363007.194    23887601.398        -811.454        -632.302
  -2890684.401    -2091458.732    24596483.283        3292.530        2565.609
   -626346.918     -433078.937    24661313.394         943.924         735.527
 -11761111.455    -9006679.059    24662442.798        1148.433         894.882
 90 11  1 10 34 15.0430000  0  4G 2G13G15G 6
  -9515753.911    -7353595.591    23891548.392        -815.465        -635.427
  -2939546.340    -2129533.090    24588831.647        3289.084        2562.922
   -640314.126     -443962.355    24660303.159         937.354         730.405
 -11778141.790    -9019949.589    24660852.690        1145.431         892.543
 90 11  1 10 34 30.1470000  0  4G 2G13G15G 6
  -9503401.954    -7343970.497    23895579.216        -820.027        -638.982
  -2989193.051    -2168219.344    24581064.707        3285.070        2559.796
   -654416.965     -454951.119    24659297.832         930.156         724.796
 -11795415.225    -9033408.615    24659244.515        1141.876         889.773
 90 11  1 10 34 45.2510000  0  4G 2G13G15G 6
  -9490981.979    -7334292.955    23899623.008        -825.416        -643.182
  -3038781.536    -2206858.997    24573311.103        3280.185        2555.991
   -668412.480     -465856.407    24658323.002         922.120         718.533
 -11812635.434    -9046827.434    24657648.032        1137.467         886.339
 90 11  1 10 35  0.0990000  0  4G 2G13G15G 6
  -9478693.353    -7324716.795    23903619.901        -829.480        -646.348
  -3087454.831    -2244786.839    24565708.875        3276.581        2553.181
   -682049.861     -476483.729    24657386.988         915.380         713.282
 -11829497.514    -9059966.731    24656096.913        1134.336         883.897
 90 11  1 10 35 15.2030000  0  4G 2G13G15G 6
  -9466132.563    -7314929.658    23907698.394        -833.574        -649.539
  -3136915.968    -2283328.087    24557980.217        3272.959        2550.358
   -695823.960     -487216.472    24656448.464         908.581         707.984
 -11846606.077    -9073297.974    24654532.138        1131.191         881.447
 90 11  1 10 35 30.0510000  0  4G 2G13G15G 6
  -9453731.547    -7305266.413    23911717.684        -837.480        -652.582
  -3185492.455    -2321179.130    24550396.780        3269.449        2547.616
   -709269.784     -497693.900    24655544.091         901.957         702.823
 -11863385.115    -9086372.341    24652996.254        1128.170         879.094
 90 11  1 10 35 45.1550000  0  4G 2G13G15G 6
  -9441056.859    -7295389.924    23915817.671        -841.273        -655.538
  -3234851.086    -2359641.256    24542692.599        3266.050        2544.976
   -722847.112     -508273.307    24654651.842         895.385         697.704
 -11880405.908    -9099635.700    24651446.528        1125.287         876.847
 90 11  1 10 36  0.2590000  0  4G 2G13G15G 6
  -9428315.414    -7285461.982    23919931.952        -845.256        -658.641
  -3284149.564    -2398055.529    24535001.515        3262.462        2542.177
   -736315.162     -518767.927    24653781.486         888.591         692.407
 -11897374.843    -9112858.076    24649909.204        1122.207         874.447
 90 11  1 10 36 15.1070000  0  4G 2G13G15G 6
  -9415728.822    -7275653.709    23923990.954        -849.554        -661.991
  -3332556.974    -2435775.091    24527452.725        3258.454        2539.054
   -749451.425     -529004.097    24652948.586         881.510         686.890
 -11914007.002    -9125817.693    24648406.507        1118.735         871.742
 90 11  1 10 36 30.2110000  0  4G 2G13G15G 6
  -9402866.294    -7265630.838    23928132.729        -853.511        -665.073
  -3381744.068    -2474102.784    24519789.063        3254.804        2536.208
   -762712.653     -539338.044    24652110.954         874.712         681.590
 -11930879.317    -9138965.265    24646890.048        1115.628         869.322
